GFSGL_sfc_dewp_000.txt.gz
Dewpoint
64 63 64 64 63 62 62 61 61 61 62 63 63 63 62 61 62 62 62 62 61 61 61 61 61 60 57 58 57 56 55 55 54 53 53 54 54 54 55 60 63 66 68
66 66 65 65 64 62 62 61 62 62 61 61 61 61 61 62 63 62 62 61 61 60 61 60 60 60 57 58 57 56 55 55 56 53 54 54 54 54 55 58 59 62 66
67 66 63 61 61 62 62 61 61 61 60 60 59 58 60 61 61 61 62 62 61 61 61 60 59 59 58 57 57 57 56 57 56 56 55 55 55 54 55 57 59 60 64
67 66 62 58 59 61 62 61 61 61 60 60 59 60 61 60 60 61 62 62 61 61 60 60 60 59 58 57 57 57 56 55 55 56 55 55 54 53 55 56 56 59 60
66 65 62 60 60 60 61 61 61 61 61 60 61 61 61 61 61 62 62 61 60 59 60 60 60 61 61 60 59 58 56 55 56 56 54 53 52 52 53 54 56 57 58
65 65 64 62 62 61 62 62 62 62 60 61 61 61 59 60 60 61 58 57 57 57 57 58 58 61 61 62 61 61 59 56 55 55 54 54 53 55 54 55 56 55 55
65 64 64 64 63 62 62 62 62 61 60 61 61 59 59 60 59 58 61 57 55 55 56 57 58 60 61 59 59 60 59 59 59 56 55 55 55 55 55 55 56 56 55
64 63 63 63 63 62 62 61 61 62 62 61 59 61 60 59 59 58 60 55 55 56 57 57 56 57 57 58 56 54 54 55 55 55 55 55 56 55 56 56 57 57 57
63 63 63 63 62 61 61 62 62 62 61 61 62 61 60 60 58 57 57 56 56 55 54 56 57 56 56 55 53 52 53 54 56 56 56 56 56 56 57 57 56 55 54
63 63 62 62 61 61 62 63 62 63 62 64 62 62 59 60 57 55 56 56 53 52 55 55 56 54 52 52 52 52 53 54 54 54 54 55 56 56 56 58 57 55 55
63 62 61 62 61 61 62 64 64 62 60 60 60 60 59 58 57 54 54 53 54 54 53 51 53 51 50 49 50 50 52 53 54 55 55 55 55 55 56 57 58 58 56
62 62 61 59 64 64 65 64 62 61 60 59 59 58 58 56 54 54 54 53 54 51 51 52 50 49 49 49 50 51 51 53 53 53 53 53 54 55 55 56 58 59 57
61 61 59 60 60 61 64 63 61 59 58 57 58 56 55 55 52 51 51 51 51 49 50 49 50 48 48 50 51 51 52 52 52 51 50 51 53 55 55 56 58 59 60
60 60 60 59 59 61 62 62 60 59 57 57 55 54 52 50 49 49 50 49 50 48 47 46 50 50 50 50 49 50 51 51 51 50 51 52 53 53 54 56 56 56 59
60 60 60 60 62 59 55 54 56 50 52 53 52 52 53 49 48 45 45 47 47 45 44 49 50 48 47 46 45 46 49 48 47 48 50 50 51 51 53 54 56 56 55
56 58 59 61 59 55 52 50 46 45 43 43 46 46 45 45 43 41 40 40 41 42 46 45 45 44 43 42 41 42 42 44 44 47 49 50 50 50 51 53 54 54 54
60 60 59 58 58 53 51 51 50 49 46 43 41 43 43 42 41 40 40 40 42 43 42 41 39 38 38 37 37 36 37 38 42 45 47 47 49 49 50 51 51 52 53
59 55 56 57 57 53 52 51 50 48 47 47 44 44 42 42 41 40 41 41 41 39 37 36 34 32 32 33 34 35 35 35 37 38 40 38 43 49 48 48 49 49 50
58 56 56 57 57 56 55 54 53 51 50 48 46 45 44 43 42 41 41 42 39 36 34 33 32 32 32 32 33 34 34 35 36 35 36 36 36 44 46 47 47 47 48
55 55 55 54 55 53 52 52 51 51 50 47 46 45 45 45 44 43 42 41 40 38 37 36 35 35 34 35 32 29 33 34 34 34 35 35 35 36 39 44 45 46 47
55 52 55 54 54 53 52 52 51 49 48 46 45 44 42 43 43 42 41 40 40 40 39 38 33 35 31 26 25 28 30 32 33 32 33 34 35 34 35 35 37 43 45
52 52 54 54 53 53 52 51 50 50 48 46 44 43 41 42 42 42 41 40 40 40 36 32 30 27 24 23 26 27 28 28 29 30 31 33 34 33 34 33 32 35 38
53 54 53 53 52 51 51 52 52 50 47 46 44 43 42 42 42 42 41 41 39 35 32 30 27 25 25 25 26 25 24 25 27 29 29 32 33 32 33 32 32 32 34
50 50 50 49 49 48 48 47 46 47 48 46 44 43 43 42 41 40 40 38 34 34 31 29 26 23 21 21 21 21 22 25 27 27 29 31 32 31 31 30 31 31 32
47 47 47 47 47 47 47 47 44 43 42 42 45 44 43 43 40 39 39 33 30 32 30 28 26 23 20 18 18 19 24 28 27 30 31 28 28 29 28 29 30 30 30
42 42 46 47 47 46 46 45 44 43 43 40 40 42 44 43 40 39 35 29 28 29 30 29 27 24 22 23 22 26 27 28 27 29 31 27 26 27 27 27 28 30 29

GFSGL_sfc_dewp_003.txt.gz
Dewpoint
63 60 61 61 63 62 61 59 59 59 59 59 60 60 61 60 60 61 61 61 61 60 61 61 61 60 58 58 57 56 54 53 54 53 54 54 54 55 55 56 57 57 59
64 63 62 63 62 62 61 60 60 59 59 61 61 61 60 60 60 61 61 61 61 60 60 60 60 61 59 57 57 56 55 54 54 53 54 55 54 56 56 55 55 56 57
65 64 64 64 64 62 62 61 60 60 60 59 58 57 56 56 59 59 60 60 60 61 61 59 59 58 58 57 56 56 56 57 55 55 55 56 56 55 55 55 55 55 56
66 65 64 64 64 63 62 61 60 60 58 58 57 56 56 58 59 59 59 60 60 61 60 59 59 58 58 58 57 57 57 56 55 54 56 55 54 54 54 52 52 53 54
67 66 64 65 63 62 62 61 60 60 59 58 58 57 58 59 59 59 60 61 61 59 59 59 59 60 62 60 58 57 56 56 55 55 55 54 53 52 51 52 53 53 53
68 67 65 64 62 60 61 61 60 59 59 59 58 58 58 59 59 60 61 58 57 57 55 55 56 58 59 61 61 61 59 56 54 54 54 54 53 52 53 53 53 53 52
68 67 65 65 62 60 59 60 60 59 59 59 58 58 58 57 58 58 61 56 54 54 53 54 56 58 58 57 58 59 59 59 60 56 54 54 53 53 53 54 54 54 53
67 66 65 64 63 61 60 60 59 60 59 59 59 59 58 58 57 57 60 58 56 54 55 56 54 54 55 56 56 53 53 53 54 54 54 54 54 54 54 55 55 55 56
66 65 66 65 62 62 61 60 59 61 60 61 60 60 60 59 57 57 57 57 55 54 53 53 54 54 55 55 52 51 51 52 55 56 56 56 56 56 56 56 54 53 53
65 65 65 64 62 62 61 61 60 62 61 61 61 59 60 60 57 55 55 56 53 52 53 53 53 54 53 52 50 49 51 51 52 52 53 54 55 55 56 57 55 53 53
65 65 64 62 62 63 62 62 62 63 61 62 62 61 61 59 58 54 53 54 53 53 52 50 51 52 50 49 49 49 49 50 51 52 52 52 53 54 55 56 56 55 53
64 63 59 61 62 62 59 59 60 62 62 60 59 59 59 58 54 53 53 53 54 51 49 50 50 50 48 49 50 50 50 51 50 51 50 51 51 52 54 55 55 56 58
63 61 61 62 62 61 59 58 59 60 60 59 58 58 57 55 52 51 51 51 51 49 49 49 49 47 47 49 50 51 50 47 48 48 49 50 51 52 53 54 55 56 58
61 60 61 61 60 62 61 60 62 60 59 58 58 57 54 51 49 49 49 48 49 47 46 45 48 50 50 49 47 46 46 47 46 46 48 50 51 51 52 53 53 54 55
61 61 60 61 59 60 55 54 57 54 54 57 55 54 51 48 48 46 46 46 46 45 43 49 50 47 45 43 41 42 43 43 43 44 45 47 49 50 50 52 53 52 53
59 59 59 59 61 60 54 49 46 46 43 43 46 49 45 46 43 41 40 40 40 41 46 47 44 42 40 39 37 37 38 38 40 42 43 45 45 47 49 50 51 51 52
58 58 58 57 58 54 53 51 49 46 43 41 41 41 42 42 41 40 40 40 40 43 43 41 39 36 35 35 34 34 34 35 37 39 41 40 42 43 48 48 49 49 50
56 54 57 57 57 54 53 52 50 48 46 46 43 42 41 42 41 41 40 41 40 39 38 36 32 30 29 30 31 32 33 34 35 34 36 36 37 41 44 45 47 47 48
57 56 56 57 56 53 52 51 50 48 47 46 46 44 42 43 40 40 40 41 39 36 33 31 31 31 32 32 31 30 32 34 34 33 34 34 34 38 39 42 44 45 47
56 55 55 55 54 53 53 54 51 49 48 47 46 46 44 44 43 42 41 40 38 36 36 35 35 35 34 30 25 26 31 32 31 32 32 33 34 34 34 37 40 43 45
54 52 55 54 53 52 52 52 52 53 50 47 47 45 43 44 44 42 40 40 39 39 37 35 33 31 24 22 26 28 30 29 30 30 31 32 34 33 34 33 33 35 41
51 53 53 53 53 53 53 53 50 49 48 47 45 43 40 43 43 42 40 39 39 40 36 30 26 23 21 23 26 26 26 26 27 29 30 32 32 32 33 32 32 33 33
53 52 52 51 51 50 50 50 49 49 48 47 44 43 42 42 42 41 41 41 41 36 31 29 25 23 23 24 25 24 23 24 25 27 29 31 31 30 31 31 31 32 32
51 51 51 50 49 49 49 49 51 48 47 46 44 43 42 41 41 41 41 40 37 33 31 27 24 21 20 20 20 19 21 23 26 27 29 29 29 30 30 29 30 30 31
47 47 48 47 47 46 46 45 44 45 47 46 45 43 43 41 41 40 40 35 33 32 30 27 24 20 16 15 16 17 21 28 28 30 29 26 27 27 28 28 29 29 29
43 45 46 47 46 46 45 45 44 43 43 42 44 43 43 42 41 39 39 31 30 30 29 27 25 21 19 19 18 25 26 28 29 30 28 26 26 27 27 27 27 28 28

GFSGL_sfc_dewp_006.txt.gz
Dewpoint
68 67 64 61 61 61 62 62 61 60 61 62 62 62 62 62 63 63 63 63 63 64 64 63 63 64 62 61 60 59 58 57 55 55 55 57 58 59 59 59 58 58 57
69 66 63 60 62 61 62 62 62 61 61 62 62 62 63 63 63 62 62 63 63 63 63 63 63 62 62 62 60 60 60 59 57 57 58 56 58 60 60 59 57 55 57
69 64 62 62 63 63 63 63 62 61 61 61 62 62 62 62 61 61 62 63 63 63 63 63 62 61 61 61 60 60 60 60 59 57 57 57 57 58 58 58 58 57 56
67 64 64 62 63 64 63 62 62 62 61 61 62 61 61 60 60 61 62 62 62 62 63 63 62 61 61 61 61 61 61 60 59 58 56 56 57 58 57 55 54 54 55
66 65 64 64 63 64 64 64 63 62 61 61 61 61 61 60 58 62 62 62 62 62 63 62 61 61 61 62 62 61 60 59 59 57 56 56 55 55 55 54 53 54 55
68 66 66 65 65 64 64 64 63 62 61 61 60 61 60 59 59 60 62 62 62 62 61 60 59 58 59 60 60 62 62 60 59 57 56 55 56 56 55 54 53 52 52
68 68 67 66 64 64 64 65 63 61 61 61 61 61 61 62 58 58 61 63 60 59 59 59 58 59 59 58 58 59 59 60 60 61 56 57 56 56 56 55 54 53 53
69 68 67 65 64 64 63 62 63 62 61 61 61 62 61 61 57 57 60 62 61 60 59 58 58 58 57 57 58 57 56 55 56 54 56 55 56 56 57 56 55 55 55
68 68 66 66 65 65 64 63 62 62 62 63 63 62 61 62 58 57 59 61 61 60 58 56 56 58 56 55 56 55 54 54 54 54 55 55 55 55 56 56 54 53 52
68 67 67 66 65 63 64 64 63 63 63 64 63 62 60 62 57 57 58 61 59 56 56 57 55 54 53 52 54 53 53 52 52 52 52 53 54 54 55 57 56 53 52
67 67 67 67 66 65 63 63 62 63 63 63 61 59 62 62 62 57 54 59 56 56 55 54 55 52 51 50 50 53 52 53 52 51 50 50 51 52 52 55 56 54 52
66 65 64 64 65 63 61 61 62 61 60 61 61 59 58 60 57 56 52 54 55 56 54 52 54 48 48 49 51 50 50 50 51 50 49 48 51 51 52 53 55 54 55
62 62 62 62 62 62 61 61 61 61 60 60 61 61 61 59 57 52 52 51 52 51 51 51 49 47 46 49 50 49 48 50 49 47 46 48 50 51 53 53 54 54 55
61 62 62 62 61 61 61 62 61 60 60 61 61 61 59 57 55 53 51 51 50 50 47 47 50 50 50 48 48 46 47 48 47 46 45 47 49 50 49 52 51 52 52
61 61 61 61 61 61 61 58 60 57 57 61 59 59 56 54 52 50 50 50 49 47 46 51 52 50 46 44 42 43 44 43 42 43 44 45 46 46 46 50 50 51 51
62 61 60 60 61 60 54 52 46 45 45 44 45 51 50 47 44 42 41 40 40 41 47 49 47 43 42 40 39 37 37 37 37 39 39 42 41 43 44 47 49 49 49
61 58 57 57 59 57 55 53 52 48 43 42 42 41 42 42 41 40 39 40 39 42 46 44 43 40 37 36 34 34 34 35 38 36 39 37 36 40 43 45 46 48 49
59 54 59 59 59 57 55 55 53 52 51 47 43 43 41 40 41 39 39 41 43 41 41 40 37 33 33 33 33 31 32 34 34 34 34 35 35 36 38 42 44 45 47
58 57 57 58 57 55 55 54 53 51 50 48 47 44 42 40 39 39 41 44 43 39 36 34 33 34 34 35 32 29 31 33 33 32 33 33 34 35 36 39 41 42 46
59 56 56 57 55 55 54 53 52 51 50 48 48 48 48 46 46 45 43 42 40 37 36 37 37 37 37 31 26 27 32 32 32 31 32 32 34 34 34 35 37 40 44
56 56 56 56 55 54 54 53 53 52 50 49 49 48 44 47 46 44 42 41 41 39 39 38 37 34 28 26 29 31 31 30 30 31 31 32 34 33 34 34 34 35 37
53 55 56 56 55 55 55 55 54 53 51 50 48 46 41 45 45 44 43 42 41 41 37 34 29 25 23 25 30 29 29 29 30 30 31 31 32 32 33 32 32 33 34
55 54 54 54 55 52 53 53 52 51 50 49 47 44 42 43 44 44 43 42 41 41 36 31 28 24 24 26 27 27 26 27 28 29 30 31 31 31 32 31 31 32 33
53 52 52 52 52 52 52 51 51 48 50 48 46 44 43 43 43 43 43 43 43 39 33 30 27 24 23 23 24 22 23 25 29 30 31 30 30 31 31 31 30 32 31
48 49 50 50 50 50 50 49 50 50 49 48 47 46 44 43 42 42 43 42 41 37 33 30 27 24 20 19 18 19 24 27 30 31 30 30 30 32 30 29 30 29 30
46 47 47 48 48 48 47 47 46 45 45 48 47 46 45 44 42 41 41 40 37 34 32 29 27 24 21 19 20 23 26 28 30 30 30 29 28 29 29 29 29 27 28

GFSGL_sfc_dewp_009.txt.gz
Dewpoint
71 73 73 72 72 72 70 68 67 68 67 67 67 65 65 64 65 66 66 65 65 65 66 66 66 67 63 64 64 63 60 59 57 54 54 59 62 62 61 61 60 60 57
72 73 72 72 71 69 69 66 68 65 66 66 66 66 65 64 65 66 65 62 64 64 64 65 65 63 66 66 62 64 64 62 59 59 60 57 60 62 62 62 60 57 57
71 70 71 70 69 70 66 65 66 66 66 64 65 65 65 64 66 66 65 64 64 64 64 64 64 65 65 62 63 61 59 65 62 59 57 55 56 58 59 60 60 60 57
68 70 70 69 70 67 66 66 66 65 66 66 65 65 65 65 65 64 62 64 64 63 64 64 64 64 64 63 62 63 62 60 60 58 56 55 54 58 57 55 54 54 54
70 70 70 70 69 69 68 66 64 65 65 65 65 65 65 63 59 63 63 63 64 64 64 65 65 64 63 62 59 60 62 59 56 54 54 53 53 52 54 54 53 53 55
71 70 70 71 69 69 68 66 65 64 64 65 63 64 65 60 59 60 62 63 64 64 64 64 64 61 61 60 60 61 62 60 59 62 57 55 57 56 55 53 52 51 50
71 71 70 70 69 68 68 67 66 65 64 64 63 63 65 65 59 59 61 62 63 63 64 64 61 58 60 60 58 59 59 60 61 61 58 57 57 57 57 55 55 54 53
71 71 71 70 69 68 68 68 67 65 67 64 64 65 66 64 59 57 60 63 64 64 64 63 63 62 61 59 59 58 59 59 59 56 57 57 57 56 56 56 56 55 55
70 71 71 70 69 68 68 67 68 67 66 66 65 65 65 65 58 57 61 63 63 64 64 63 61 60 58 55 56 57 58 57 55 54 54 54 54 55 55 54 53 53 52
69 71 71 70 69 68 68 66 67 66 65 65 65 66 63 66 57 56 60 63 61 61 62 61 56 58 53 53 57 57 56 56 55 54 53 53 54 54 55 56 53 54 54
71 71 71 70 70 69 67 68 67 66 64 64 66 66 65 64 64 55 55 64 61 59 58 57 57 53 51 50 51 57 55 53 53 52 50 49 50 51 51 52 54 53 55
71 70 69 69 68 66 66 66 67 66 64 62 64 61 62 63 57 55 54 55 59 59 58 57 56 50 48 49 51 51 50 49 49 48 47 47 47 47 47 50 53 54 56
70 68 68 68 67 66 65 65 64 64 62 62 61 61 58 60 61 52 52 52 53 57 55 53 49 47 47 48 51 49 47 48 47 46 44 44 44 45 49 48 50 55 56
68 67 68 67 66 66 64 64 65 64 62 61 60 62 62 62 60 58 56 54 51 52 50 52 50 50 50 51 48 48 47 45 43 42 41 41 42 41 41 42 45 50 53
66 66 65 63 64 64 60 61 61 63 59 62 61 62 61 61 59 54 53 55 54 50 50 52 52 51 51 50 48 47 45 43 41 40 39 38 38 37 37 40 46 49 52
64 62 61 59 60 59 58 55 44 45 44 44 45 55 54 48 45 44 44 42 41 43 47 48 49 49 49 48 46 44 42 40 39 38 37 37 36 36 36 40 46 48 52
64 63 60 59 59 60 58 58 56 47 42 41 42 43 46 43 41 40 39 40 40 42 47 48 48 48 46 44 40 39 38 37 41 35 35 36 35 35 36 40 43 45 47
63 55 58 57 58 59 59 58 57 56 55 51 42 43 40 40 39 39 40 42 44 44 47 46 46 44 41 40 39 37 35 33 32 34 34 34 34 35 35 38 41 43 46
59 56 58 58 58 57 60 59 57 57 54 51 48 44 43 39 39 40 41 48 47 45 43 42 41 39 40 41 40 36 33 29 33 34 33 33 33 33 34 35 38 42 44
60 57 57 58 59 59 59 58 57 56 53 51 50 49 48 47 48 48 48 48 45 42 42 41 41 42 42 41 35 31 29 33 34 32 32 33 33 33 32 33 35 39 42
61 58 57 57 57 57 56 55 55 54 52 51 50 50 46 49 48 47 46 45 44 42 43 42 41 40 37 35 32 32 33 33 33 33 32 32 33 32 32 32 31 35 37
55 57 57 56 57 56 56 56 55 54 53 52 51 49 43 48 47 46 45 44 44 44 42 40 35 33 30 29 31 33 33 32 33 32 32 31 31 31 31 29 30 31 33
56 54 55 56 57 54 56 56 55 53 52 52 51 49 47 47 45 45 44 44 44 44 42 38 34 30 28 26 30 32 31 31 31 31 31 30 29 30 30 29 29 30 31
54 53 53 53 54 53 54 54 53 50 51 50 50 48 47 46 45 45 44 44 44 43 41 36 33 28 26 22 27 28 30 31 32 32 33 30 29 31 29 28 28 30 29
52 52 52 52 53 53 53 52 52 51 50 50 49 48 48 48 47 45 44 44 44 43 41 36 32 29 26 23 18 21 25 27 31 31 31 31 31 33 30 27 29 28 30
46 47 47 48 49 49 49 48 48 48 48 49 48 48 49 49 48 46 44 43 42 42 40 35 32 29 26 23 24 24 26 27 31 30 30 29 28 28 27 28 28 25 28

GFSGL_sfc_dewp_015.txt.gz
Dewpoint
74 74 75 74 75 77 76 76 76 73 73 71 71 68 67 67 66 67 67 65 65 66 65 63 64 66 59 57 56 56 54 53 52 52 54 59 66 65 62 63 61 63 59
72 74 75 75 75 74 76 76 77 75 73 72 71 70 68 68 68 67 65 63 63 62 62 65 63 59 69 69 60 66 63 62 54 61 60 57 63 65 65 66 60 55 57
70 70 73 74 75 74 76 76 76 76 74 70 70 69 69 67 66 67 67 67 66 65 64 66 64 65 67 62 65 61 56 60 59 54 55 57 57 59 60 62 64 62 59
64 66 71 73 74 74 76 76 76 76 74 70 71 70 69 67 66 65 66 66 67 65 66 65 65 65 67 67 65 67 65 61 60 55 53 55 56 58 58 57 57 57 55
66 66 69 74 75 75 75 76 76 76 73 71 71 70 69 66 64 64 66 66 67 66 65 65 65 66 65 65 62 65 67 60 55 53 52 53 53 56 56 55 55 55 56
70 69 71 75 75 75 76 77 77 76 74 72 70 69 67 64 61 63 66 66 66 66 66 66 67 66 65 63 63 62 62 62 63 57 54 55 60 58 56 56 54 52 50
72 74 74 76 76 77 77 77 76 75 73 71 70 68 67 65 61 61 63 63 65 65 65 67 65 59 64 63 63 62 61 61 60 61 61 61 61 61 62 60 59 56 53
75 74 76 76 77 77 77 76 75 73 71 70 70 68 65 65 61 61 62 64 64 64 66 67 69 68 67 65 65 63 63 63 63 60 61 61 63 62 60 58 59 58 55
74 75 76 76 76 76 76 75 73 71 70 68 67 67 67 68 60 58 61 63 63 64 65 67 68 68 63 60 61 61 62 62 58 58 58 56 55 55 55 52 51 49 49
72 73 75 75 76 75 74 74 73 72 69 67 66 65 63 67 58 57 60 64 66 66 67 69 62 63 58 58 60 61 60 59 57 57 58 57 56 58 56 58 54 51 49
69 70 73 74 75 75 75 73 72 71 69 68 66 66 67 66 65 55 55 64 60 62 60 64 67 56 54 52 53 59 59 57 59 55 53 54 55 53 47 53 60 53 47
72 72 74 75 72 72 74 72 71 69 67 66 66 66 67 70 61 55 54 56 61 60 60 64 62 54 51 51 52 54 52 51 51 50 51 52 50 45 45 49 57 55 52
74 74 74 74 72 73 72 70 68 67 65 65 64 67 68 68 69 54 54 54 56 60 60 57 54 52 51 50 51 53 52 51 51 51 50 46 43 45 55 53 55 57 57
74 72 72 71 70 70 69 68 66 66 66 66 66 66 66 64 62 63 61 59 56 57 55 57 55 54 53 53 53 52 52 52 51 49 46 45 44 43 41 40 38 37 38
70 69 69 68 68 66 62 63 67 61 62 67 64 64 61 61 62 58 58 60 58 56 58 57 55 54 54 55 55 56 55 55 50 47 44 43 41 40 39 38 36 38 39
69 67 66 67 65 63 61 59 45 47 45 44 47 56 57 51 46 45 44 46 47 49 54 54 52 51 54 54 56 55 56 51 47 46 44 42 40 38 36 36 36 37 42
67 67 63 63 63 63 62 61 60 51 44 42 43 46 49 47 42 41 41 42 43 46 51 49 48 48 51 55 54 48 45 44 51 44 42 40 38 36 35 34 35 36 39
66 58 60 59 59 59 58 57 57 56 56 56 45 47 42 41 41 40 41 44 48 46 48 47 47 50 48 47 46 44 43 43 42 40 38 36 35 34 33 34 33 35 36
62 59 58 57 56 55 56 56 53 53 53 55 51 47 44 40 41 41 42 51 48 47 46 45 45 44 44 44 44 44 45 42 38 36 37 34 33 33 33 32 32 36 37
60 58 57 55 55 54 54 53 52 51 56 56 52 51 48 46 48 50 50 50 48 45 45 45 44 45 45 45 45 44 41 37 35 34 33 33 33 32 30 30 30 30 31
55 55 57 54 53 53 53 52 51 50 49 52 51 52 47 50 51 52 51 49 48 45 46 46 45 45 45 45 42 38 34 31 32 32 31 32 33 30 32 30 28 27 27
52 54 52 52 52 52 51 50 50 49 48 47 51 50 45 50 50 49 51 50 47 48 46 48 44 40 38 37 37 33 30 30 31 32 31 31 30 30 30 29 28 27 27
51 50 52 51 54 53 51 50 49 48 48 49 52 51 51 50 49 53 53 51 48 47 46 45 42 38 37 36 30 28 27 29 31 31 32 32 30 31 31 30 28 28 28
52 51 54 57 57 52 49 50 55 49 49 50 52 51 51 50 47 53 52 52 49 46 45 44 41 37 36 34 26 25 27 31 32 31 35 32 32 32 33 31 28 29 27
52 52 55 54 52 49 48 47 47 48 50 51 49 51 51 51 50 51 50 49 50 46 45 43 41 39 38 34 28 28 29 28 29 30 30 34 34 36 31 28 29 27 28
49 50 49 50 49 47 47 46 45 48 49 49 48 51 52 51 49 48 51 51 47 43 44 43 41 40 36 31 29 27 26 24 27 29 30 30 32 31 29 29 29 26 27

GFSGL_sfc_dewp_018.txt.gz
Dewpoint
75 76 76 76 76 76 76 75 74 75 73 73 73 71 70 69 70 69 67 67 66 68 68 68 67 68 65 65 66 65 64 62 60 60 61 63 64 64 63 65 65 65 64
74 75 75 76 76 76 75 76 76 74 75 73 72 71 69 68 69 68 66 65 66 66 67 67 66 64 67 68 67 66 65 64 62 61 63 63 64 65 66 66 63 58 61
73 73 74 74 75 75 76 75 76 75 73 71 72 70 69 68 68 67 67 66 65 66 66 67 65 66 67 66 67 66 65 64 64 62 60 61 62 62 60 63 63 64 62
71 71 73 73 74 74 75 76 75 76 74 73 71 71 69 68 67 67 67 67 67 67 67 67 67 67 67 67 66 67 66 65 63 62 59 59 62 61 62 60 59 61 61
68 69 71 73 74 74 74 76 76 76 75 74 71 71 69 68 65 67 67 67 67 67 67 67 67 67 66 66 66 67 66 64 63 61 58 59 58 60 59 59 58 59 59
66 68 71 73 74 74 75 75 76 76 76 74 72 71 70 68 63 64 66 66 67 67 66 67 66 67 66 64 64 64 63 61 61 61 57 58 60 60 60 59 58 56 54
68 69 70 72 73 74 74 75 75 76 76 74 72 71 70 69 62 62 63 66 67 67 66 67 63 63 65 65 64 63 62 62 61 57 58 59 60 61 61 60 59 58 55
69 71 71 73 73 74 74 75 76 76 76 74 72 71 69 69 61 61 62 66 66 67 65 64 64 65 64 64 64 64 64 64 62 62 60 59 62 63 62 59 58 57 56
71 73 73 75 75 75 75 76 76 76 76 72 70 69 68 68 60 59 61 64 64 65 64 62 65 64 64 61 62 62 61 62 61 59 60 59 57 56 56 57 54 52 51
70 73 75 77 77 77 77 77 77 75 73 70 69 69 65 66 58 57 59 62 61 64 67 66 61 64 61 57 61 62 61 61 62 61 61 59 57 58 57 56 55 54 52
73 76 76 77 77 78 78 76 73 72 71 70 68 67 66 65 65 56 56 64 62 64 64 64 63 59 55 54 56 62 61 59 59 60 59 56 55 56 56 57 58 57 55
76 75 76 77 75 76 76 74 72 71 70 68 67 66 66 67 60 55 55 56 62 62 62 62 65 56 53 53 55 55 53 53 56 55 54 53 54 54 54 56 56 56 54
74 75 76 76 76 74 73 72 70 69 67 66 65 65 66 70 69 56 54 54 55 61 64 57 55 54 54 53 53 53 53 55 54 54 53 54 53 53 56 54 56 58 58
75 76 74 73 72 72 71 70 68 67 66 66 65 67 68 69 67 63 61 59 56 58 56 57 56 55 55 55 55 53 53 54 55 56 55 54 55 52 50 51 49 48 44
73 72 70 69 69 64 58 61 67 62 64 66 66 66 67 67 63 62 61 62 61 59 59 61 61 56 56 55 56 57 55 56 56 56 55 53 51 50 49 49 48 44 43
69 68 68 67 66 64 62 58 46 47 45 46 49 62 57 53 47 46 46 47 48 53 59 63 62 59 58 57 58 57 57 55 54 54 54 51 50 49 47 47 46 47 45
68 68 67 64 64 64 64 62 58 51 44 43 45 48 51 48 43 42 42 42 44 49 60 59 58 55 57 55 54 53 52 54 55 53 52 51 48 47 45 45 45 45 45
70 63 66 65 65 64 64 63 62 59 58 55 46 48 42 42 41 41 41 46 51 50 55 53 54 56 56 57 54 53 52 53 52 51 47 45 45 46 44 44 44 43 43
65 63 64 63 61 60 61 60 58 58 58 56 52 47 43 41 42 42 43 55 54 53 51 51 53 53 53 53 54 53 52 51 48 47 45 45 46 42 43 42 40 40 40
62 60 60 60 58 59 58 58 56 57 58 55 55 53 49 48 50 51 52 54 53 52 52 53 52 53 53 53 53 53 50 49 47 47 46 45 45 44 39 39 37 37 40
60 61 57 58 56 55 55 55 54 54 56 55 54 53 47 52 52 53 53 53 53 53 54 53 54 53 53 52 51 48 44 42 43 43 42 42 44 40 42 40 36 35 36
57 57 55 54 55 59 57 56 56 53 56 55 56 50 44 52 52 55 54 53 54 53 52 55 51 49 47 47 47 44 41 39 41 41 41 39 40 39 40 36 36 35 36
54 54 52 57 54 54 52 52 55 53 52 53 52 50 49 52 54 54 55 55 53 52 51 51 50 47 46 44 42 40 36 38 40 40 40 40 38 39 39 38 36 35 34
57 54 56 59 60 54 58 57 55 51 51 51 52 52 52 53 52 54 54 54 53 51 49 51 49 44 46 43 42 36 37 39 38 37 39 37 37 39 38 38 36 35 34
55 55 55 55 55 56 57 51 53 50 50 52 52 52 52 53 53 52 53 53 52 52 51 49 48 46 44 43 38 31 29 30 34 30 34 38 37 41 39 33 36 33 36
53 53 55 57 56 55 52 51 48 52 49 50 51 53 53 53 53 52 52 51 50 50 49 48 47 46 44 40 35 28 26 29 31 29 31 33 33 38 37 35 36 32 34

GFSGL_sfc_dewp_021.txt.gz
Dewpoint
73 72 74 75 74 73 73 72 70 70 70 70 70 69 67 67 68 67 65 64 66 63 65 64 64 62 61 60 62 60 59 60 58 56 57 57 61 58 60 60 61 62 61
74 74 72 74 74 73 72 73 72 69 70 70 70 69 67 65 67 67 64 64 64 65 64 63 62 63 61 61 62 61 61 60 57 56 59 58 59 60 61 61 62 62 60
74 74 74 73 74 74 72 73 74 71 71 70 70 69 67 66 66 67 65 64 64 65 65 64 63 62 62 63 63 62 62 61 61 59 57 59 58 59 57 58 59 60 61
73 73 73 73 73 74 74 72 73 74 71 70 69 68 67 66 67 66 65 65 65 65 64 65 63 62 62 64 63 63 62 62 61 60 59 58 58 58 59 57 56 57 58
72 72 72 73 73 74 73 74 73 73 72 70 69 68 68 66 67 65 65 65 65 65 65 65 64 65 66 66 65 64 63 62 61 61 59 57 55 57 56 57 57 57 57
70 71 71 71 72 72 73 73 74 72 74 71 69 70 69 67 64 64 65 64 65 65 65 65 64 66 66 65 64 64 63 62 60 60 57 55 56 58 58 58 57 56 55
67 70 70 70 71 72 72 73 74 74 74 73 71 69 69 68 63 63 65 65 65 65 65 66 65 65 64 65 63 63 63 63 62 58 56 56 57 58 59 57 56 56 56
65 67 69 70 70 72 72 73 72 74 73 74 72 70 69 69 62 62 64 64 65 65 66 66 63 61 63 64 63 63 63 62 62 61 59 59 60 60 60 59 57 55 54
63 65 68 69 70 71 72 72 73 72 74 74 73 70 70 67 60 60 62 63 64 64 64 64 60 60 61 61 61 59 59 61 61 60 60 60 59 59 60 56 53 52 51
62 66 67 68 69 71 72 72 72 73 74 73 70 70 67 67 59 58 59 62 61 62 63 64 60 61 59 58 61 60 60 60 59 59 59 58 56 55 57 55 54 53 52
66 68 69 70 71 72 72 73 74 73 71 70 69 68 67 66 62 57 56 62 61 60 61 64 63 58 55 55 56 60 59 57 56 54 54 54 53 53 55 56 56 55 53
73 72 76 75 75 76 75 74 72 71 70 68 67 66 66 66 61 56 56 57 60 62 62 61 62 57 54 54 56 57 53 53 52 52 52 52 52 52 50 51 52 55 56
73 74 75 74 76 74 72 71 70 69 68 67 66 65 65 66 65 56 54 55 57 61 61 57 55 55 54 53 55 56 53 51 52 51 51 52 51 48 50 47 47 45 44
73 74 72 72 71 71 70 70 69 67 67 65 65 64 65 65 63 59 58 56 56 58 57 56 55 54 54 55 54 53 52 52 51 52 53 52 51 45 44 46 43 42 39
72 71 70 69 66 60 54 60 66 61 63 65 65 65 65 64 63 60 59 60 59 58 56 57 56 54 53 53 53 54 52 52 52 54 54 51 45 44 44 42 42 38 38
68 68 66 65 63 61 59 55 46 46 46 48 53 61 55 54 53 50 50 51 52 53 56 58 55 55 54 54 54 54 55 54 54 54 51 46 44 45 41 41 40 39 41
67 67 66 64 64 63 61 59 56 50 45 45 45 49 51 47 46 45 44 45 48 51 56 57 57 57 55 56 56 56 55 55 54 48 46 45 41 39 40 40 38 39 39
67 60 64 64 64 63 62 60 58 56 56 54 46 46 43 43 42 42 42 46 49 49 54 53 52 52 51 51 48 47 47 47 45 40 38 37 37 40 39 37 37 38 36
66 65 64 64 63 62 63 61 59 59 56 53 48 46 42 41 41 42 43 53 53 51 51 50 50 48 48 48 48 48 45 43 40 38 36 39 41 38 36 35 37 40 39
63 62 63 64 63 63 63 62 59 58 56 53 52 51 46 45 46 47 48 50 51 51 51 48 48 48 47 47 47 45 43 42 41 42 42 40 37 36 34 35 36 34 35
62 58 59 58 59 59 58 58 58 58 56 54 54 51 47 50 51 51 50 52 52 52 49 48 47 47 47 46 45 42 39 38 37 38 36 34 35 35 36 36 34 35 35
59 58 56 56 56 56 56 55 57 57 55 54 54 50 45 52 52 52 53 52 53 51 50 49 46 44 45 42 41 37 34 33 37 36 35 34 34 36 36 34 36 36 34
56 56 56 57 55 54 55 54 54 56 56 56 54 51 48 50 53 54 54 53 52 51 50 48 45 42 43 39 35 32 29 36 38 38 37 35 34 36 37 35 36 34 31
56 57 58 58 59 58 56 54 55 52 52 52 51 51 49 51 54 53 53 51 51 50 50 47 44 39 38 37 35 34 36 35 34 31 30 31 33 35 37 37 34 32 31
57 58 58 58 58 57 56 56 56 56 54 52 51 51 51 53 52 53 51 51 50 49 49 48 44 42 39 30 26 23 30 30 25 29 31 31 29 32 34 33 30 33 32
58 58 56 57 57 54 54 52 54 56 55 53 53 53 53 52 52 52 51 50 49 49 48 48 44 43 40 34 27 26 28 30 26 27 24 26 29 32 36 32 31 34 32

GFSGL_sfc_dewp_024.txt.gz
Dewpoint
71 71 71 71 70 72 73 71 70 67 67 68 69 68 66 65 65 66 65 65 63 63 64 63 63 61 61 59 61 59 59 59 57 57 57 55 60 57 58 61 60 60 61
71 72 72 72 72 71 71 72 71 68 68 68 69 68 67 66 65 66 65 64 65 64 63 64 62 63 62 60 60 60 59 60 57 54 57 58 58 58 59 59 60 61 62
71 71 72 73 73 71 70 71 71 70 69 69 68 69 67 66 66 66 65 64 63 64 64 63 62 61 61 61 61 61 62 63 61 59 57 59 58 58 58 57 58 59 60
71 71 71 72 73 73 71 71 71 71 69 69 69 69 68 66 65 67 66 64 64 64 64 64 63 62 61 61 62 63 63 62 62 61 60 60 59 58 59 56 55 56 57
71 72 71 71 72 73 73 72 71 73 70 70 69 69 68 67 65 65 66 65 64 64 64 64 64 64 64 62 64 64 63 62 61 60 60 59 57 56 57 57 57 57 57
71 71 72 72 72 72 73 73 72 72 73 70 69 69 68 67 64 64 65 65 64 64 63 63 64 66 65 64 64 64 63 62 61 60 60 57 57 56 58 57 57 55 54
71 72 72 72 73 73 73 73 73 72 72 71 69 69 68 67 62 63 65 65 65 65 65 64 64 65 65 64 63 63 63 62 62 61 59 57 56 57 57 56 56 55 54
70 71 72 72 72 72 73 73 73 74 72 73 71 69 69 68 62 61 64 66 66 66 65 65 64 65 63 64 63 62 62 63 62 61 61 58 59 58 58 58 57 55 54
67 70 71 71 71 72 72 72 72 73 73 73 73 70 69 69 61 60 64 66 66 65 66 66 66 64 61 60 62 60 61 61 62 60 60 59 59 58 59 57 56 53 51
65 66 70 71 71 71 71 71 72 72 73 73 73 71 68 70 59 58 63 65 64 63 64 64 60 60 57 57 60 59 58 59 60 59 58 57 57 57 58 57 55 53 51
64 65 67 69 70 70 71 71 71 73 73 73 72 70 69 67 60 56 58 64 63 61 60 62 62 57 54 54 56 60 60 58 58 56 54 53 52 52 52 54 55 54 51
63 64 65 68 69 70 71 72 72 73 72 70 68 67 68 66 59 55 56 58 60 60 60 60 62 56 54 53 55 56 56 57 54 53 51 50 50 51 50 49 49 51 55
63 64 67 67 68 71 72 73 73 71 70 68 68 66 66 66 63 56 55 55 57 62 63 61 57 53 51 54 55 56 54 54 53 50 49 50 52 51 48 45 45 44 43
66 67 71 72 73 73 73 73 72 70 68 67 67 66 66 65 65 61 59 56 56 59 58 56 55 55 54 54 55 54 54 52 51 50 50 52 51 46 43 44 41 40 38
73 73 73 72 71 65 58 64 69 65 66 66 66 65 65 64 62 58 57 58 58 58 56 55 54 54 53 53 53 52 51 51 51 52 52 52 50 44 43 42 41 39 36
71 69 67 64 62 61 60 57 50 51 51 51 54 60 58 56 50 48 47 47 49 51 57 55 54 53 53 53 52 52 52 53 51 52 52 50 44 43 41 39 39 38 36
68 66 64 64 64 64 63 61 57 53 46 46 49 50 54 52 47 46 45 45 47 51 56 55 55 54 54 54 54 53 53 54 53 51 46 44 41 38 38 39 36 36 36
66 60 66 65 64 64 63 61 60 60 58 53 45 47 45 45 44 43 43 46 50 51 54 55 54 53 53 51 51 48 50 48 44 39 37 36 36 37 38 35 34 35 35
65 64 65 64 64 61 60 59 59 58 56 52 49 47 43 42 42 42 45 53 52 52 51 51 50 48 48 47 46 45 44 43 41 39 36 36 39 38 35 33 34 39 38
64 61 62 63 63 62 60 59 59 57 55 53 53 51 46 49 51 50 50 51 52 51 51 48 47 46 46 46 45 44 42 41 40 39 39 39 37 36 33 34 35 33 34
63 64 61 63 62 62 61 60 59 58 55 53 53 51 46 52 51 50 49 50 50 50 48 47 47 46 46 46 44 42 39 37 35 37 37 34 34 32 35 34 33 35 35
60 61 62 62 62 62 61 60 58 58 56 54 54 49 43 51 51 50 50 50 51 51 48 47 46 45 46 45 44 40 35 33 35 36 34 33 34 35 36 35 35 35 33
57 57 59 59 57 56 56 57 58 57 56 56 54 49 49 51 52 52 52 52 52 50 49 47 44 42 41 40 38 35 31 35 36 36 35 33 32 33 35 35 35 33 31
57 58 57 57 57 57 57 57 57 54 57 55 54 52 50 51 52 53 53 53 51 50 49 46 43 41 38 35 32 32 36 37 35 34 32 30 30 32 32 34 33 30 32
57 58 57 57 57 57 57 57 57 57 55 53 53 52 51 51 51 53 53 52 51 49 47 45 41 38 35 32 30 32 33 32 26 28 29 29 27 28 31 34 31 32 32
58 58 58 58 57 57 57 57 56 55 55 53 52 51 51 51 52 52 51 50 49 48 48 45 41 37 34 30 28 30 29 29 28 28 24 24 24 29 32 35 32 31 30

GFSGL_sfc_dewp_027.txt.gz
Dewpoint
68 69 69 69 70 70 69 70 69 69 68 69 69 68 67 65 66 65 65 64 63 63 63 62 61 60 60 60 60 59 57 55 53 57 58 56 58 57 57 59 62 60 60
68 68 68 69 70 71 70 71 70 68 67 68 69 68 67 65 64 66 65 64 63 62 62 63 62 63 61 60 59 59 57 59 57 55 57 58 58 58 58 58 59 60 60
67 68 68 69 69 69 70 71 71 69 67 68 68 68 67 66 65 64 65 65 64 64 62 62 63 62 61 61 60 59 60 62 61 59 58 59 58 58 58 57 58 58 58
68 68 69 69 70 70 69 70 71 71 68 67 67 68 68 67 65 64 64 64 64 64 64 63 62 62 61 60 60 60 61 61 62 61 60 60 60 58 59 57 56 57 57
68 69 69 70 70 71 70 70 70 71 70 68 68 68 68 67 66 66 65 64 64 63 63 63 64 64 64 62 61 62 62 61 61 60 59 59 58 58 56 57 56 57 57
68 69 69 70 71 71 71 71 70 70 70 69 68 68 68 67 64 64 66 65 64 64 64 64 64 66 65 63 63 63 63 62 59 58 59 59 59 57 59 59 57 55 54
69 69 69 70 70 71 72 72 71 70 71 70 69 69 68 68 63 62 64 66 65 64 64 65 64 64 65 64 63 63 63 62 62 60 59 59 58 59 58 55 55 55 54
69 69 70 70 70 71 71 72 72 71 71 71 70 69 69 68 62 61 64 66 65 65 66 65 64 64 65 63 62 61 61 62 61 61 60 59 60 59 59 57 56 55 54
69 69 70 71 71 71 71 71 72 72 71 71 71 69 69 69 61 59 62 66 66 66 66 66 65 65 62 60 62 60 60 60 61 60 60 59 59 59 59 57 55 53 52
69 69 70 71 71 71 71 71 72 72 72 71 71 70 68 70 59 58 62 67 66 66 66 66 62 63 58 58 62 60 59 59 59 59 59 58 57 57 58 58 56 53 50
68 69 69 71 71 71 71 72 72 73 73 73 72 72 71 69 64 56 59 66 66 65 65 64 63 57 54 55 56 59 58 60 59 58 56 55 52 51 51 52 54 53 50
65 66 68 70 71 71 71 71 72 72 72 73 73 72 71 68 58 55 57 60 63 64 62 61 61 55 51 51 54 56 55 57 57 55 53 50 49 50 51 48 50 51 53
63 64 66 68 70 70 71 71 71 72 72 72 71 69 67 65 61 56 56 59 58 61 61 59 57 53 51 53 53 54 54 56 54 52 51 49 50 52 49 44 44 42 41
62 63 64 66 68 69 70 71 72 72 72 71 69 67 67 65 64 61 61 58 57 60 58 57 56 55 55 55 54 55 55 54 53 51 49 50 51 49 44 44 41 39 38
61 62 63 65 66 66 59 68 72 70 70 70 69 67 66 65 64 59 59 60 59 58 57 57 57 54 54 53 53 53 52 52 51 50 50 50 50 47 43 42 40 38 36
68 67 69 67 63 61 62 59 50 56 56 56 55 61 63 57 52 49 48 48 49 50 58 58 57 55 54 53 52 51 51 52 50 50 50 50 49 44 42 38 39 37 35
64 65 63 63 63 64 65 64 60 55 52 51 51 53 52 55 50 46 45 45 46 52 58 57 55 54 53 52 52 51 52 52 51 51 51 48 44 41 38 37 36 35 33
63 60 66 65 66 65 64 64 64 63 63 59 47 48 46 46 44 43 43 48 54 54 55 55 55 54 54 54 53 52 51 51 50 48 42 39 37 35 38 34 33 32 34
65 64 66 65 65 63 63 62 62 63 63 55 51 48 44 42 43 44 46 57 56 54 53 53 53 52 51 50 48 48 47 44 40 39 37 36 38 38 34 34 33 38 37
64 61 62 63 62 61 61 60 59 57 57 57 57 53 49 52 54 53 52 53 53 53 52 51 50 48 47 46 45 44 43 41 39 39 38 37 37 36 32 33 34 32 34
63 63 61 63 61 61 61 60 59 58 57 56 56 53 49 57 54 52 51 52 52 51 50 48 47 46 46 46 44 43 41 40 38 36 37 39 35 32 34 34 33 34 34
62 62 63 62 62 61 60 59 58 57 55 55 53 48 44 52 52 51 51 51 51 50 48 47 46 46 46 45 44 41 39 36 35 36 35 33 33 35 35 34 34 33 31
60 60 60 60 60 58 59 59 59 57 56 56 53 50 50 52 52 51 51 51 51 49 48 47 46 45 46 45 44 40 35 34 35 36 35 34 33 33 34 33 33 31 30
57 57 58 58 59 60 59 59 58 54 56 55 53 52 52 52 52 51 51 51 51 50 48 46 45 44 44 41 38 34 33 35 36 35 34 33 31 33 32 33 32 29 31
57 57 57 57 57 55 56 57 57 58 58 56 54 52 51 52 52 52 52 52 51 50 48 46 44 41 39 35 31 31 33 34 34 32 30 27 26 27 30 33 32 30 31
57 57 57 57 56 56 55 56 56 57 56 56 57 54 52 52 51 52 53 52 51 49 48 45 42 39 37 34 32 33 32 31 29 29 27 26 24 25 32 34 34 31 29

GFSGL_sfc_dewp_030.txt.gz
Dewpoint
69 69 69 69 70 70 69 70 70 70 71 70 71 71 70 69 67 67 66 65 65 65 65 64 64 64 62 62 62 60 59 58 57 59 60 61 61 62 62 63 62 64 63
69 70 69 70 70 70 70 70 70 70 70 70 71 71 70 69 68 67 66 65 65 65 65 65 64 62 63 63 62 63 62 62 60 62 61 61 62 61 62 62 61 60 62
67 69 69 69 69 70 70 70 70 70 70 69 70 70 69 69 67 67 67 66 65 65 65 65 65 65 64 63 63 61 61 63 63 61 61 61 61 61 61 60 62 62 60
65 67 68 69 69 70 70 70 71 71 69 69 69 70 69 69 68 67 67 67 66 66 65 65 65 65 65 64 63 64 64 65 64 64 63 63 61 62 61 58 59 60 59
66 66 67 68 69 70 70 71 71 71 70 69 69 69 69 68 67 67 66 66 66 66 66 66 65 65 65 64 63 65 65 64 64 63 62 60 59 59 59 59 58 60 59
66 66 68 69 69 70 70 70 71 71 71 70 69 69 69 68 64 64 66 66 66 66 66 66 67 66 65 63 63 63 65 65 64 63 62 61 61 60 61 61 59 59 56
67 67 68 69 70 70 71 71 70 70 71 71 70 69 69 69 62 63 65 67 67 66 66 66 65 67 66 66 63 62 63 62 63 64 62 61 62 63 62 60 60 59 58
67 68 69 70 70 70 71 71 71 70 70 71 70 70 70 69 61 61 64 68 68 67 67 66 67 67 66 66 66 65 65 65 64 65 64 64 63 63 63 62 61 60 59
68 68 69 70 70 70 71 71 71 71 70 70 70 70 70 70 60 60 62 67 67 67 67 67 66 66 63 61 64 64 64 63 62 60 60 59 59 59 61 61 59 58 57
68 69 70 70 70 70 70 71 72 72 71 71 71 71 68 70 60 58 62 67 66 67 67 67 62 65 59 58 65 64 62 62 63 63 63 61 60 60 59 61 59 56 55
68 69 70 71 71 70 71 71 71 72 72 72 71 72 71 70 68 57 58 68 67 67 66 66 66 59 55 55 59 64 63 63 60 61 61 60 57 56 54 56 59 57 55
69 70 70 71 71 71 72 72 72 72 72 72 72 71 71 72 63 57 56 63 64 67 66 66 65 56 53 53 57 56 54 59 61 61 58 57 54 53 54 53 56 57 56
67 69 70 71 72 72 72 72 72 72 71 72 71 71 71 71 65 55 56 58 60 66 66 63 56 51 50 52 54 54 55 62 60 58 57 55 53 54 55 53 51 52 52
65 67 68 70 70 72 71 72 71 71 71 71 71 71 71 66 64 60 61 62 59 61 59 59 58 57 57 58 56 56 60 60 58 57 56 54 53 53 52 49 47 45 43
65 65 66 67 68 70 67 69 72 72 70 72 72 72 69 64 62 59 59 63 63 60 58 59 59 58 58 57 57 58 58 58 57 55 53 53 53 52 51 47 46 44 42
68 68 67 68 66 63 63 61 50 55 53 54 55 62 64 57 52 51 52 48 49 52 59 60 60 59 59 57 57 56 56 56 56 54 53 53 53 52 50 45 43 42 40
65 65 65 64 65 64 65 64 60 54 50 50 50 54 55 57 51 50 46 46 49 53 61 60 60 59 58 57 56 55 55 55 55 54 53 53 53 50 45 42 41 40 38
63 56 65 65 66 66 66 64 63 62 62 61 52 54 51 52 48 45 44 48 53 57 61 60 60 59 58 56 55 55 56 55 54 54 53 52 49 44 41 41 39 38 38
61 64 66 67 66 63 64 63 62 62 62 61 57 51 47 44 43 43 48 62 60 59 58 59 59 58 57 56 56 55 55 54 53 51 49 44 41 41 41 39 37 38 39
62 60 62 64 63 62 61 62 61 61 58 57 58 56 50 52 53 56 59 60 60 58 57 57 56 56 55 54 52 51 49 47 45 44 42 41 42 40 37 36 37 36 38
65 64 61 63 62 62 61 61 60 60 59 60 59 55 51 61 58 58 57 56 56 56 55 54 53 52 52 50 49 48 46 44 44 43 42 41 41 38 38 38 36 36 36
64 64 63 63 62 62 61 60 60 60 59 57 54 51 49 58 58 57 56 55 55 55 54 53 51 50 49 48 49 46 45 44 43 41 40 40 39 37 38 37 36 36 34
62 62 62 62 61 58 60 59 59 59 58 57 55 54 56 56 56 55 54 54 54 52 51 50 50 48 48 48 48 46 43 42 41 40 40 38 36 37 38 36 36 34 33
60 60 61 60 60 60 60 59 58 53 56 56 55 55 55 55 55 54 54 54 53 51 50 49 49 47 49 47 46 44 42 41 40 39 39 37 36 36 36 36 35 33 33
57 58 59 59 60 60 59 59 58 58 58 57 56 55 54 54 54 54 53 53 53 51 49 49 48 48 48 47 45 43 38 34 39 36 38 38 36 37 33 33 36 33 34
58 58 58 57 57 57 57 58 58 58 58 57 56 55 55 55 55 54 53 53 52 51 50 48 47 45 45 45 43 37 31 33 35 33 35 33 31 30 30 34 37 33 33

GFSGL_sfc_dewp_033.txt.gz
Dewpoint
71 72 72 72 72 73 73 74 74 74 74 74 74 74 74 74 73 73 72 70 69 69 68 68 68 68 63 62 62 62 60 59 56 58 59 63 64 64 63 65 63 65 62
70 71 72 72 73 72 73 73 74 74 74 75 74 74 74 74 73 73 71 69 69 68 68 68 67 65 68 67 63 66 63 63 59 63 62 61 64 66 65 65 62 59 62
70 70 71 71 72 72 73 73 74 74 75 73 74 74 73 73 73 73 72 71 70 69 68 68 67 67 66 64 64 63 62 63 63 60 59 61 62 62 63 64 64 63 61
67 69 71 72 72 72 73 74 74 74 74 74 74 74 73 73 73 72 72 71 71 70 69 68 68 68 67 67 66 66 65 64 64 62 60 60 62 63 62 59 58 60 59
68 68 70 72 73 73 73 74 74 74 74 74 74 74 73 72 70 72 72 71 71 70 69 69 68 68 66 67 66 68 68 65 62 61 61 60 60 60 60 56 59 59 61
69 68 71 72 73 73 73 74 74 74 74 74 74 74 73 71 66 66 70 71 71 71 70 69 69 67 66 64 64 65 67 67 66 62 60 60 63 62 59 59 58 57 55
69 70 71 72 73 73 73 74 74 74 74 74 73 73 73 73 63 63 66 70 70 71 72 70 68 67 67 67 63 63 63 63 64 67 65 64 65 64 65 64 62 61 59
69 70 71 71 72 73 73 73 74 74 74 74 74 73 73 73 62 62 64 71 72 72 71 71 71 69 69 69 68 66 66 66 66 64 66 67 66 66 65 63 65 64 62
69 70 71 71 71 72 72 73 73 73 73 73 74 74 73 73 61 60 64 70 71 71 71 70 70 70 66 62 68 67 67 67 62 61 62 61 60 61 62 62 63 58 55
69 70 71 72 72 72 73 73 74 73 73 72 73 74 71 73 61 59 63 68 70 69 71 71 63 69 61 59 69 67 66 66 66 65 64 62 62 62 60 65 62 55 51
68 69 72 73 73 73 74 74 74 73 73 73 73 74 74 73 72 58 58 70 69 69 69 69 69 59 56 56 60 68 67 66 64 65 63 62 63 62 61 62 62 56 51
70 71 73 74 71 71 74 73 74 74 74 74 73 73 72 74 65 58 56 60 66 69 69 69 68 56 55 54 58 59 56 61 63 61 60 60 59 58 57 57 59 59 56
71 72 73 73 73 74 74 73 72 74 72 72 71 71 71 73 72 59 57 57 60 69 71 66 59 53 54 55 57 55 56 62 61 60 59 58 59 58 58 58 58 59 59
71 72 73 73 73 74 73 72 72 71 71 71 71 71 71 73 71 63 62 60 58 64 60 61 60 59 60 61 59 57 63 63 61 60 59 59 58 56 54 54 51 50 48
69 69 70 70 71 73 73 73 71 73 71 71 71 71 73 68 63 59 60 64 62 58 61 62 62 62 62 62 63 60 61 62 61 60 59 58 56 54 53 53 52 50 48
71 68 65 65 67 69 72 69 53 51 55 55 57 68 71 57 51 50 48 50 52 53 62 61 61 62 62 62 60 60 61 60 61 60 59 57 55 54 54 53 51 49 47
67 69 68 66 68 69 69 69 68 62 49 49 50 51 54 53 50 50 49 51 51 56 62 62 62 62 62 59 59 58 58 59 61 58 57 56 54 54 53 51 48 46 44
66 58 66 68 67 67 68 68 66 66 64 57 50 53 49 48 48 49 48 52 56 60 62 62 62 61 61 60 58 57 57 58 57 57 56 55 55 54 52 49 46 44 41
63 65 66 65 63 63 64 63 64 64 64 61 58 53 49 46 44 45 47 62 60 62 62 63 62 61 62 61 59 58 58 56 56 56 55 55 54 51 49 46 42 40 40
65 60 63 64 63 62 62 61 62 61 61 60 60 59 53 53 56 56 61 62 62 62 63 64 63 62 62 61 59 58 58 56 56 55 53 52 50 46 43 41 37 35 37
64 63 61 65 64 62 62 61 62 61 60 60 60 58 49 59 58 59 62 62 62 63 64 63 63 62 61 59 58 56 54 52 51 50 48 47 46 42 41 38 35 34 33
63 63 63 62 63 63 61 62 62 61 60 59 57 53 47 60 60 62 62 63 64 64 61 60 58 58 56 56 55 51 48 47 48 47 46 44 43 41 39 36 34 33 33
64 63 63 63 62 59 61 60 62 61 60 58 58 58 59 62 62 62 62 59 58 58 58 57 56 54 53 53 51 48 46 46 46 46 44 42 40 38 37 36 34 33 32
62 63 63 63 64 62 62 61 59 55 59 59 59 60 61 61 60 59 57 57 56 56 56 55 54 52 52 49 48 46 45 44 44 43 42 39 38 37 36 35 34 32 30
57 58 60 62 62 62 61 61 61 60 60 59 59 59 58 57 57 57 56 56 55 54 54 53 52 51 50 49 48 46 41 38 43 38 41 40 39 41 35 33 31 30 32
56 58 59 59 59 60 60 59 59 60 60 58 57 57 58 58 57 56 55 55 55 53 52 51 51 50 50 49 48 41 32 34 38 35 39 39 38 36 33 32 30 29 31

GFSGL_sfc_dewp_036.txt.gz
Dewpoint
73 74 74 73 74 75 75 76 77 75 76 75 75 74 73 74 75 76 75 73 73 72 70 68 70 69 61 60 60 59 59 57 55 54 57 63 66 65 62 63 63 62 61
72 75 74 74 74 73 75 76 77 77 76 76 76 75 74 73 74 75 74 72 72 71 70 69 68 66 69 68 61 69 64 64 58 63 63 60 66 66 66 67 62 58 59
70 70 71 72 73 74 76 76 77 77 77 74 75 77 75 74 75 75 74 73 72 72 71 70 69 68 68 64 65 62 62 62 63 59 58 60 59 62 65 66 65 64 61
65 68 71 73 73 74 75 76 76 77 77 77 77 77 76 74 74 73 74 73 73 72 72 71 70 68 69 68 65 67 66 62 64 60 58 57 60 63 62 59 59 61 59
68 67 71 74 75 75 75 76 77 77 77 77 77 77 77 74 70 75 75 73 74 73 72 71 70 69 66 67 64 69 70 65 59 60 59 58 58 58 61 59 57 57 62
70 70 72 75 75 75 76 77 77 77 77 77 77 77 76 71 65 66 72 73 74 74 74 73 72 69 68 65 64 65 68 69 68 59 59 60 66 62 60 59 57 57 55
70 72 73 75 75 76 76 77 77 77 77 77 77 77 77 76 63 64 67 72 73 74 75 73 70 68 69 69 65 64 64 64 65 68 67 65 66 66 66 65 64 61 59
72 72 73 75 75 76 77 76 77 77 77 77 77 77 77 76 64 62 65 73 74 75 75 74 74 73 72 70 70 67 67 69 68 64 67 67 69 67 67 66 66 66 63
71 72 73 74 73 74 76 76 76 75 76 76 75 77 77 76 63 61 65 72 72 75 75 74 75 74 68 63 70 69 69 69 64 62 63 62 62 62 64 61 60 62 56
70 71 73 74 74 74 76 77 76 75 74 73 74 76 73 77 63 59 64 69 71 69 75 76 65 71 62 60 70 71 69 69 68 67 66 64 63 63 61 65 60 57 56
68 69 72 74 75 76 77 77 76 75 74 75 75 75 77 75 75 58 59 72 68 69 68 70 71 61 57 57 62 71 68 69 67 68 66 64 64 64 62 63 64 59 54
70 70 73 75 71 71 77 77 77 76 76 76 75 73 73 76 67 59 58 62 67 70 69 68 70 58 56 55 60 62 58 63 69 66 66 62 63 61 61 61 65 63 56
71 73 73 73 73 75 75 75 73 75 71 72 71 70 71 70 74 61 56 58 61 69 69 66 60 54 54 55 57 58 59 67 68 65 62 62 61 60 64 62 62 63 62
72 73 73 73 73 74 71 72 71 70 70 69 70 69 70 70 71 72 66 61 59 63 63 66 61 60 60 61 60 61 67 67 68 64 62 62 62 59 59 58 55 55 52
72 71 72 71 73 73 73 71 70 72 68 70 70 70 68 69 70 67 64 64 67 64 61 62 62 62 62 62 63 64 67 66 64 63 62 61 59 58 57 55 53 52 51
69 67 65 65 68 69 69 71 56 55 51 48 49 58 68 57 53 52 51 50 51 53 63 62 62 63 63 63 62 62 65 65 64 63 61 61 59 57 55 54 53 52 51
67 70 68 64 62 64 67 68 68 62 50 48 46 48 54 53 49 48 47 49 50 54 62 61 62 62 63 64 64 63 62 66 67 63 61 59 57 56 54 54 53 52 50
66 59 65 67 68 68 67 68 68 68 68 70 54 48 46 46 47 47 48 52 55 59 63 63 63 63 63 62 63 63 64 63 62 61 59 58 56 55 54 53 52 50 48
65 65 64 65 65 65 66 64 62 62 61 60 59 53 51 46 47 46 46 62 61 64 66 66 64 62 62 62 62 61 62 60 59 59 57 56 55 54 53 50 49 44 44
65 61 62 63 63 63 63 64 62 62 61 61 60 58 58 57 58 59 59 59 61 65 64 62 61 61 62 62 63 61 59 57 58 57 55 54 53 52 49 48 45 42 40
61 61 61 62 61 59 60 61 62 62 62 62 60 59 50 60 58 59 60 60 62 63 66 63 62 63 64 65 63 59 57 57 56 56 53 53 52 49 48 44 41 37 35
63 62 60 59 60 60 60 60 59 61 61 61 62 57 46 62 60 60 60 62 64 65 65 66 65 66 63 61 61 57 56 55 55 53 52 49 49 47 43 39 36 34 33
60 61 62 62 61 58 61 60 60 61 61 60 61 61 60 61 62 62 62 63 64 64 65 66 66 62 60 59 58 55 52 51 51 50 49 47 45 43 40 37 35 34 32
60 59 60 61 61 59 59 60 60 55 59 60 61 62 62 62 62 62 63 63 61 60 59 59 57 56 57 55 54 51 49 49 49 49 49 46 43 40 38 36 34 34 32
57 57 57 58 59 59 58 57 59 60 60 59 59 60 61 61 61 59 57 56 56 56 56 55 54 55 54 52 50 48 43 40 46 41 45 44 42 43 37 35 34 33 32
54 56 56 56 56 57 58 59 59 59 59 58 59 60 60 59 58 57 56 55 54 53 53 52 53 53 52 50 49 41 34 35 40 35 41 41 40 38 36 36 35 30 30

GFSGL_sfc_dewp_042.txt.gz
Dewpoint
75 75 75 76 75 75 74 75 76 75 78 75 77 76 76 76 76 77 75 75 76 75 74 74 73 72 70 70 68 68 68 67 64 64 69 70 69 67 66 67 68 69 66
75 76 75 76 76 76 75 74 75 77 75 77 77 76 75 75 76 75 75 72 75 74 73 73 73 70 72 72 72 69 68 69 67 66 68 69 70 70 70 70 67 64 68
74 75 75 75 75 76 76 75 75 75 76 75 77 76 75 75 75 76 75 74 72 75 74 73 72 72 71 68 70 69 69 70 70 66 67 70 70 70 69 69 70 69 67
70 73 74 75 75 75 76 77 75 76 75 76 75 75 76 75 75 75 75 75 75 73 75 74 73 72 70 71 69 69 69 69 68 68 67 66 68 69 68 66 68 69 67
68 71 72 74 76 76 76 76 77 76 76 76 76 76 76 75 74 75 75 75 75 74 74 75 74 72 69 69 70 70 68 68 68 64 65 66 66 67 64 66 66 66 67
70 69 72 74 75 76 76 76 76 77 77 77 76 75 76 74 70 68 73 74 75 75 74 74 74 71 70 67 67 67 69 67 65 64 64 63 65 66 68 66 64 66 62
70 72 72 74 75 75 76 76 76 76 77 77 77 76 75 76 67 66 68 74 74 75 75 74 73 72 71 71 66 65 64 65 65 67 65 66 69 69 69 68 67 66 64
73 72 74 75 74 75 76 76 76 76 77 76 77 77 76 75 67 64 66 73 74 74 75 75 74 74 73 72 70 68 67 66 66 67 68 67 70 71 69 70 69 68 67
70 73 72 75 74 75 76 76 76 76 76 77 76 77 77 76 65 63 64 72 72 73 74 74 75 74 70 65 71 69 67 67 63 63 64 66 64 65 68 68 67 64 63
70 71 74 73 75 75 75 76 77 77 76 76 76 77 73 77 68 62 64 72 71 71 73 74 66 72 65 61 70 70 69 67 67 66 66 64 64 65 64 68 66 63 62
71 72 73 75 74 75 76 77 77 77 76 77 76 77 77 75 75 61 59 74 73 71 70 71 72 62 60 59 61 70 70 70 67 68 66 67 67 68 66 68 68 66 63
72 73 74 76 74 73 77 77 77 77 77 76 76 76 76 77 68 65 58 60 70 73 72 70 70 61 57 57 59 64 60 65 70 68 68 67 66 66 68 67 67 67 66
77 77 76 77 76 75 77 77 76 77 76 76 75 75 75 75 76 63 59 58 59 68 73 70 60 55 55 59 58 61 60 70 71 68 68 67 67 67 67 67 67 66 66
77 79 77 77 76 76 75 75 75 75 75 75 75 74 73 74 75 74 70 64 60 64 67 70 67 64 62 63 64 62 70 72 71 69 69 68 68 68 67 67 66 65 65
77 76 77 75 76 76 75 74 74 75 72 74 74 72 72 72 71 63 66 73 71 68 69 72 72 71 71 70 69 67 70 71 70 70 69 67 67 66 66 66 65 64 63
75 73 72 72 73 74 74 73 51 53 51 48 50 62 69 54 49 51 55 57 55 53 67 71 72 73 70 69 67 67 69 69 70 70 68 67 66 65 65 65 64 63 61
76 75 71 70 71 73 73 73 72 56 46 47 46 47 46 46 45 46 44 45 47 55 71 69 70 69 67 68 67 68 68 69 70 69 67 65 64 65 63 63 62 60 57
72 59 72 71 71 72 73 73 72 71 70 68 50 50 45 44 43 42 44 50 65 62 68 68 68 69 68 67 67 67 68 69 69 68 66 65 65 64 63 62 59 57 57
71 68 68 67 67 65 68 66 66 66 66 65 65 56 52 44 44 43 43 63 63 62 63 63 63 63 64 64 65 64 65 64 65 65 65 64 64 63 62 62 60 54 55
66 62 63 66 65 65 64 63 63 64 63 63 62 62 62 61 61 61 63 63 63 63 62 61 64 65 64 65 63 64 64 64 65 64 65 65 64 63 62 59 57 56 55
62 63 62 63 62 62 62 61 62 61 63 64 60 58 47 60 61 61 61 62 63 64 65 65 66 66 66 65 64 64 65 64 65 65 64 64 64 62 58 56 56 52 51
61 62 61 58 61 61 62 63 63 61 60 60 60 57 50 60 60 61 62 62 63 64 64 66 66 66 66 65 65 65 64 64 64 64 64 64 64 60 57 56 54 51 50
60 61 61 61 60 60 60 60 60 60 60 60 60 60 60 61 61 61 63 63 64 66 67 66 66 66 65 65 64 64 63 63 64 64 63 61 58 57 55 54 52 50 47
60 59 59 59 59 59 60 60 60 57 60 60 61 62 62 62 62 63 63 64 65 64 66 67 67 65 66 65 64 63 62 61 62 61 59 58 56 53 54 52 50 48 45
55 56 57 57 57 57 58 58 59 58 58 58 58 58 60 61 60 60 61 62 62 63 64 66 65 66 65 64 63 62 53 48 58 53 59 56 55 55 53 50 49 46 44
50 54 55 55 55 55 55 55 55 55 55 54 55 55 55 55 57 59 59 59 58 57 59 62 63 63 64 62 50 39 34 38 43 43 55 55 54 53 50 50 48 44 43

GFSGL_sfc_dewp_045.txt.gz
Dewpoint
72 72 73 73 72 71 72 69 71 71 73 72 74 73 73 73 74 73 73 73 73 73 72 72 71 70 65 64 64 63 60 61 57 58 63 63 64 65 64 64 66 65 63
72 73 72 73 73 71 71 73 68 73 71 74 75 74 74 73 73 74 73 73 72 73 72 71 71 70 67 66 68 62 62 63 59 56 64 65 63 63 63 63 64 64 66
72 72 73 73 73 73 72 71 73 70 73 71 74 74 74 74 74 73 74 73 72 73 73 72 70 71 68 66 67 66 66 63 65 61 63 65 66 66 66 66 64 63 65
71 72 73 73 73 73 73 73 70 73 72 73 72 74 74 73 73 74 73 73 73 71 73 72 71 71 69 67 65 65 65 65 64 63 61 62 64 67 64 63 64 67 64
70 72 72 73 73 73 73 74 74 72 73 72 73 72 74 73 73 73 73 73 73 72 71 73 73 71 69 68 67 65 64 65 65 62 63 63 61 65 64 64 63 64 66
66 70 72 73 73 73 74 74 74 74 72 74 72 72 73 74 69 68 72 73 73 73 73 71 73 71 70 67 67 66 66 62 61 64 60 61 61 62 64 63 63 63 62
65 67 70 72 73 73 74 74 74 74 75 73 74 73 73 73 66 66 68 72 72 73 73 73 71 72 71 71 66 66 65 65 62 60 63 61 60 62 64 63 62 61 62
65 67 67 71 72 73 73 73 73 74 74 75 74 74 74 73 66 64 66 72 72 72 73 73 73 72 72 72 70 68 67 67 66 63 61 61 64 63 65 64 63 64 65
67 69 69 71 71 72 72 73 73 73 73 73 74 74 74 74 65 63 65 71 72 72 73 73 73 73 69 65 71 70 68 67 64 62 63 62 63 65 67 67 65 63 62
67 70 72 71 72 72 72 73 73 73 73 73 73 74 72 75 66 62 64 72 72 72 72 72 66 71 65 62 71 71 69 68 67 65 64 63 64 64 65 65 66 63 62
69 70 72 72 72 73 73 73 73 73 73 74 74 74 75 73 73 61 60 72 72 72 71 71 71 63 60 59 61 71 70 69 67 66 65 64 66 66 67 68 66 65 63
69 70 71 73 71 73 74 74 74 74 74 74 74 74 74 75 67 63 59 61 69 73 72 72 71 60 58 58 60 64 61 63 69 67 66 65 65 65 66 68 68 67 67
70 71 72 72 73 71 75 74 75 74 74 74 74 74 74 75 75 62 59 59 60 71 74 71 64 59 55 58 58 61 60 68 70 69 67 67 66 67 67 66 67 67 66
72 71 74 74 74 73 75 75 75 75 75 74 74 74 74 74 75 74 71 64 61 64 67 70 68 66 64 63 62 61 64 70 71 71 70 69 69 67 66 67 65 66 65
73 75 75 74 74 74 70 65 73 74 72 75 75 74 74 74 70 59 61 70 69 66 67 71 72 72 71 71 67 67 65 66 69 71 71 71 69 67 66 66 66 65 64
74 74 74 73 74 74 69 61 50 50 49 50 50 65 59 52 47 47 47 49 51 52 64 69 70 71 72 72 72 72 67 66 68 70 70 71 69 67 66 66 66 64 63
70 73 72 70 72 73 74 72 62 55 47 45 46 47 49 47 46 46 45 45 47 52 67 68 69 70 71 70 70 69 69 69 69 69 70 70 70 68 66 66 64 64 63
68 61 69 71 70 72 72 73 67 63 62 57 50 50 45 44 43 43 46 50 63 62 64 64 64 66 67 67 67 68 68 68 68 67 66 65 65 64 64 64 63 63 62
69 68 66 66 66 66 67 67 67 67 65 62 58 52 47 45 45 46 49 62 62 62 63 63 63 63 64 64 64 64 65 64 64 64 63 63 63 63 61 62 63 58 59
66 61 64 65 65 64 65 64 64 63 63 62 61 60 59 57 58 58 59 59 59 59 59 59 60 62 62 62 62 62 63 62 62 61 61 62 63 63 63 62 62 60 59
64 63 65 66 64 63 63 63 63 63 62 61 58 54 48 59 58 58 58 59 60 60 61 61 61 61 61 61 62 61 62 62 62 63 64 63 63 62 62 62 61 59 59
63 64 63 61 61 63 62 62 61 60 60 60 57 55 47 59 61 59 59 61 61 62 62 62 62 62 63 63 63 64 63 63 64 64 63 63 63 62 62 61 58 57 55
61 60 61 60 60 59 60 60 60 60 60 61 61 61 62 62 62 62 61 62 62 63 64 63 62 63 62 62 63 63 62 63 62 64 63 63 61 61 58 57 54 52 50
59 59 60 60 60 60 60 60 58 55 58 58 58 58 58 60 60 59 59 59 62 63 64 63 63 63 62 62 62 62 62 63 63 63 62 62 61 57 54 53 51 49 47
59 58 58 57 57 57 57 56 56 56 55 55 55 55 55 55 55 54 54 54 55 54 54 59 63 62 62 61 62 62 54 47 58 55 59 57 55 53 51 49 47 45 43
50 51 54 53 53 53 53 52 52 52 52 52 52 51 51 51 51 50 50 50 51 51 50 48 46 45 55 60 55 43 37 41 50 47 54 54 53 51 49 47 45 42 41

GFSGL_sfc_dewp_048.txt.gz
Dewpoint
68 70 69 69 68 73 70 67 67 69 68 69 71 72 73 73 72 72 71 73 72 72 72 70 69 69 68 65 64 62 59 59 55 55 61 61 63 63 62 63 59 59 60
69 69 71 71 70 68 72 70 68 68 70 70 72 72 73 73 73 72 72 72 73 72 72 71 70 70 69 66 63 63 62 60 57 55 58 64 62 63 62 63 60 59 61
69 70 70 71 71 71 69 71 71 69 69 71 73 73 73 72 73 73 72 72 73 72 73 72 71 71 70 68 65 64 64 62 62 57 57 63 63 64 62 63 62 63 64
70 70 70 71 72 72 72 69 71 71 68 70 72 74 73 73 73 73 73 73 72 72 72 72 72 71 70 69 67 65 64 65 63 63 60 63 63 65 63 60 62 64 62
70 71 71 71 72 73 73 72 71 70 72 69 70 72 74 73 73 73 73 72 73 72 72 73 72 71 69 69 68 66 64 63 64 63 62 60 61 64 63 62 61 61 64
70 70 71 72 72 72 73 73 72 72 70 71 71 71 72 73 69 68 71 72 72 72 71 71 72 71 69 67 66 66 66 64 62 62 62 61 59 60 64 62 62 62 60
69 69 71 71 72 73 73 73 73 73 72 70 71 71 71 72 66 66 68 72 72 72 72 71 71 71 71 71 67 65 65 64 63 61 60 61 60 60 61 63 63 61 61
65 69 70 72 72 73 73 73 73 73 73 73 72 72 72 71 65 64 66 72 71 72 72 72 72 72 71 72 72 69 68 68 66 64 61 60 60 61 62 61 62 63 63
64 65 69 71 72 73 73 73 73 73 73 73 74 73 72 73 63 62 64 71 72 72 72 72 73 73 69 64 71 71 70 69 66 62 63 61 59 60 61 62 63 62 62
64 65 66 68 71 72 72 72 73 73 73 73 73 74 72 73 64 61 64 71 71 72 73 73 66 70 65 62 69 71 71 71 70 69 65 64 62 61 62 63 63 62 62
66 66 68 67 69 71 71 72 72 73 73 73 73 73 74 73 73 60 60 72 72 72 72 72 72 62 60 59 61 72 71 70 69 69 69 67 66 67 65 66 65 64 63
69 69 71 71 69 70 71 71 72 72 72 72 72 73 73 74 66 60 59 62 69 73 73 72 72 62 58 58 60 64 62 63 72 72 70 68 67 66 67 68 68 68 68
65 68 69 71 71 72 72 71 72 73 72 73 73 72 73 74 75 61 59 59 61 71 74 71 64 60 57 58 58 60 60 69 71 72 72 71 68 68 68 68 69 69 68
69 68 70 70 71 71 73 73 73 73 73 73 73 73 73 74 75 75 69 65 61 63 66 71 68 65 62 66 64 61 63 68 70 71 71 71 72 71 68 67 67 67 66
71 72 71 72 70 71 63 63 71 71 70 74 74 75 74 74 74 67 69 71 70 67 68 70 71 72 72 72 72 68 66 66 66 68 70 71 71 71 69 68 67 66 65
69 70 72 73 72 69 62 58 49 48 46 50 57 67 59 53 49 49 48 48 50 53 65 67 68 69 70 71 72 72 69 67 68 68 68 69 69 70 70 69 67 66 65
68 68 67 69 73 72 66 64 60 55 49 46 45 47 50 50 46 47 47 48 49 54 65 65 66 67 68 69 70 71 71 68 68 67 68 68 69 69 67 68 68 66 65
67 62 67 69 71 72 73 67 62 61 58 57 51 49 45 44 44 46 47 53 62 61 63 62 63 64 66 66 66 66 67 68 67 67 64 64 64 63 63 63 62 62 61
66 66 66 66 65 66 68 69 65 64 59 57 55 52 47 44 45 47 48 60 61 61 62 61 61 60 60 60 60 61 62 64 64 64 62 61 62 60 61 61 60 57 59
65 62 64 66 66 64 65 66 66 64 62 61 61 60 58 54 57 57 57 58 58 57 57 57 57 58 58 59 59 60 61 62 62 63 61 61 62 62 60 61 62 61 60
65 64 64 64 64 64 65 64 64 63 62 60 57 57 50 58 57 57 57 58 58 58 58 59 59 59 60 60 60 61 62 61 61 61 60 63 63 63 62 61 61 60 58
65 63 64 63 62 62 62 62 62 61 59 59 57 53 45 59 59 58 58 59 60 60 60 60 60 60 61 61 62 63 62 62 62 62 62 62 62 62 61 61 60 59 58
63 62 61 60 60 58 59 60 60 60 59 59 59 59 61 59 57 58 58 57 58 61 62 61 61 61 62 61 61 62 61 61 63 63 63 62 61 61 60 58 58 58 55
60 60 60 60 60 59 59 58 57 54 56 56 56 56 56 55 53 53 53 53 53 53 52 54 54 56 61 61 61 61 61 61 62 62 62 61 60 57 57 56 54 52 50
57 58 59 58 57 56 56 55 54 54 53 52 52 52 51 51 50 50 50 50 50 48 47 46 44 42 44 46 45 44 42 37 51 55 62 61 60 60 58 54 52 51 49
51 52 54 54 54 53 52 51 50 50 48 48 47 47 47 46 46 47 47 47 47 47 46 46 45 40 37 35 34 33 31 32 44 44 59 58 57 55 53 50 49 48 46

GFSGL_sfc_dewp_051.txt.gz
Dewpoint
67 68 68 68 68 68 68 68 68 68 67 70 71 72 73 72 72 72 71 72 71 71 71 70 69 68 68 66 64 63 59 58 54 55 59 61 62 62 62 64 62 60 59
67 67 68 68 69 70 69 68 68 69 69 68 71 71 72 72 72 71 71 71 72 71 71 71 70 70 68 67 65 63 62 60 57 55 55 61 61 62 62 63 63 60 58
65 67 68 68 68 68 71 71 68 67 68 70 69 71 71 72 72 72 71 71 71 72 72 71 71 70 70 69 67 65 63 62 60 57 57 59 63 62 62 62 62 61 59
66 66 68 69 69 68 68 69 71 70 68 69 70 70 71 72 72 72 72 71 71 71 72 72 72 71 71 70 69 67 65 63 62 61 60 59 61 62 62 61 61 62 60
66 67 67 69 70 70 70 69 69 71 71 69 69 71 72 72 72 72 72 72 71 71 72 72 72 72 70 70 70 69 67 65 64 62 62 60 61 62 62 61 59 59 61
67 67 68 69 70 71 71 71 70 69 71 71 69 69 71 72 68 68 71 72 72 71 71 72 72 71 70 67 67 67 68 66 65 63 63 61 60 61 61 60 60 60 58
68 68 69 70 70 71 72 72 72 71 70 70 71 70 69 71 65 66 68 72 71 71 71 71 71 71 70 71 68 66 66 64 66 67 64 64 62 61 61 61 60 60 59
68 69 70 70 71 71 71 72 72 72 71 71 70 70 71 70 65 64 66 72 72 72 72 71 71 71 70 70 71 71 69 69 67 66 67 67 65 64 61 60 61 62 63
67 69 70 71 71 71 72 71 72 72 73 72 72 70 70 71 62 62 64 71 71 71 72 72 72 72 68 64 70 70 71 71 67 63 63 64 62 61 61 61 60 60 62
65 68 69 70 71 71 72 72 72 72 72 73 73 73 70 71 64 60 63 70 71 71 72 72 66 70 64 62 69 71 70 71 71 71 69 65 63 64 61 64 65 64 63
63 65 67 70 71 71 72 72 73 72 73 73 73 73 74 73 72 60 59 70 71 71 71 71 72 63 60 59 61 72 71 71 70 71 71 71 70 68 68 68 66 66 65
66 65 66 66 69 70 71 72 72 72 72 72 72 73 73 73 66 61 59 61 68 72 72 72 72 62 58 58 60 64 62 63 71 73 72 72 71 70 69 69 69 67 68
67 68 69 69 68 67 70 70 71 71 71 71 72 72 72 73 73 61 59 59 60 70 73 71 64 59 57 58 57 59 59 68 70 71 71 72 72 73 73 71 69 69 68
71 69 69 69 70 71 71 70 70 71 71 71 71 71 72 73 74 74 67 64 61 64 67 70 68 64 62 66 65 62 63 67 68 70 71 71 72 73 73 72 70 68 67
69 70 70 71 68 69 65 64 70 71 68 72 72 73 73 72 73 68 70 73 71 68 68 70 70 71 72 73 72 70 68 67 67 68 69 70 70 70 71 71 70 68 66
66 67 67 68 70 69 62 58 49 47 46 47 52 66 66 56 55 54 52 53 53 53 67 69 70 70 70 70 69 70 69 67 68 68 68 68 68 68 69 69 69 68 66
64 66 66 64 69 67 64 63 61 54 47 44 44 49 53 53 46 45 45 47 48 56 68 66 66 66 66 66 67 69 70 69 68 67 67 67 66 63 63 63 64 64 61
65 61 66 66 67 70 67 65 61 60 61 58 50 47 44 44 45 44 45 53 62 61 64 64 64 65 65 65 64 63 63 63 63 64 64 63 63 62 61 62 61 60 60
66 65 65 65 64 65 70 64 63 61 59 58 58 53 48 44 44 45 46 63 62 62 63 62 59 59 59 59 59 59 59 61 62 64 63 63 61 57 59 58 58 55 56
65 62 62 64 64 64 67 66 65 62 60 59 60 59 58 56 59 59 60 59 58 57 57 57 57 57 58 57 57 57 60 61 61 61 62 62 59 59 58 60 60 60 59
64 64 62 64 63 63 64 65 65 62 62 61 60 58 51 60 59 58 57 57 57 57 57 57 58 58 58 59 59 62 62 62 59 59 59 59 60 61 61 61 61 60 59
64 64 63 63 62 61 61 62 62 61 59 59 58 54 48 60 59 58 57 58 59 59 59 59 58 59 59 60 61 60 62 61 61 60 61 62 62 62 62 62 60 59 57
62 63 62 61 60 58 59 59 59 59 59 59 59 58 57 55 55 54 54 54 54 53 54 57 58 58 61 61 60 60 61 60 61 63 63 62 62 61 61 60 59 58 56
61 61 61 60 60 60 59 58 56 53 56 55 54 53 52 51 51 50 50 49 48 47 48 48 46 44 46 48 49 51 55 51 55 61 63 62 60 56 60 58 58 57 54
57 58 59 59 58 57 56 55 54 53 52 50 49 49 49 48 48 48 47 47 46 46 46 45 41 39 40 39 37 35 33 32 37 43 60 61 60 58 57 56 54 53 51
50 52 51 51 50 50 50 49 48 47 46 46 46 46 46 45 45 46 46 46 46 46 45 45 44 43 41 40 38 36 31 32 35 35 56 60 60 59 58 57 54 52 50

GFSGL_sfc_dewp_054.txt.gz
Dewpoint
66 67 67 68 68 68 68 68 68 68 68 70 71 71 72 72 73 73 73 73 72 73 72 71 71 71 70 68 67 66 63 61 60 61 61 65 66 66 66 67 66 66 65
67 67 67 68 68 68 68 69 69 68 68 69 71 71 72 73 73 73 72 73 72 72 72 73 72 71 71 71 69 68 66 64 62 63 63 63 66 67 67 67 66 63 64
67 67 67 68 68 68 69 69 69 70 69 68 69 70 71 72 73 73 73 72 73 73 72 72 72 73 72 71 70 69 67 66 64 62 63 62 64 65 65 66 66 67 65
65 67 67 68 68 69 70 70 69 69 69 70 70 70 71 72 73 73 73 73 72 72 73 73 72 73 72 72 72 71 70 68 66 64 64 63 64 65 65 64 63 64 64
65 66 67 68 69 69 70 71 71 70 69 69 70 70 71 71 71 73 73 73 73 72 72 73 73 72 70 71 72 72 72 69 68 66 66 65 64 64 64 64 63 64 65
65 66 68 69 69 69 69 69 70 72 71 71 70 70 70 70 66 66 71 72 73 72 72 72 73 71 70 68 67 68 70 71 70 68 67 67 68 67 65 64 63 63 61
66 67 68 69 70 70 70 71 70 70 71 71 71 71 71 71 65 65 67 71 72 73 73 72 72 72 71 73 68 66 66 65 67 71 69 68 68 69 68 67 65 64 63
67 68 69 69 69 70 71 71 71 71 70 70 71 71 70 70 64 63 66 72 72 72 73 73 73 73 73 72 73 72 72 71 70 68 70 71 71 71 71 69 68 66 65
68 68 69 70 70 70 71 71 72 72 72 71 71 71 71 71 62 62 64 71 72 72 73 73 73 73 68 64 72 72 72 72 68 64 64 65 64 63 65 69 67 64 62
68 69 70 70 71 71 71 71 72 73 73 72 72 72 69 71 63 60 63 70 71 71 73 73 66 71 64 62 70 72 71 72 73 73 72 67 65 67 63 66 68 67 66
68 70 71 71 71 72 72 73 72 73 73 73 73 74 74 71 71 60 59 70 71 71 71 71 73 63 60 60 61 73 72 72 72 72 73 73 73 72 71 70 69 68 68
68 69 70 71 71 71 72 73 73 73 73 73 73 73 74 75 65 62 59 60 67 71 72 72 73 62 59 58 59 63 61 62 71 72 72 72 72 73 73 73 71 70 69
67 67 68 71 71 72 72 73 72 73 73 72 72 73 73 74 75 61 59 58 59 69 73 70 64 59 57 59 57 59 58 67 69 70 71 71 72 73 74 74 74 72 70
69 70 70 69 69 70 71 72 72 72 72 72 72 72 72 73 74 74 70 65 60 64 65 70 68 65 63 66 66 64 64 66 68 70 70 71 73 72 72 72 72 71 69
70 71 72 71 70 72 70 69 71 72 69 71 72 72 73 73 73 68 69 73 72 69 69 72 71 72 72 73 73 73 71 69 68 69 69 70 70 70 70 72 71 70 68
67 67 67 69 72 70 65 61 49 49 47 47 49 62 72 58 57 53 52 52 53 54 68 71 71 71 71 72 72 72 72 69 70 69 69 69 69 69 69 68 67 66 66
67 67 67 66 68 69 67 65 64 57 46 44 44 49 51 59 52 50 48 48 49 53 71 71 70 71 71 70 70 70 70 70 70 69 69 67 68 67 64 64 65 65 63
67 57 67 66 67 69 69 67 66 64 64 64 48 48 44 45 44 43 44 52 64 62 68 68 68 68 68 68 67 66 66 66 66 66 65 66 66 64 64 64 64 63 63
66 66 66 66 67 65 70 68 66 65 65 62 59 52 46 43 43 44 45 65 66 65 65 64 63 65 65 64 64 64 63 63 63 64 65 65 64 63 63 62 62 56 58
64 62 62 66 66 66 69 67 66 65 63 62 62 61 59 58 61 61 62 62 62 62 62 63 62 62 62 63 63 63 62 62 63 63 63 64 65 63 62 62 63 61 62
60 64 62 65 65 65 66 67 66 63 62 62 61 60 50 62 60 60 60 60 60 60 61 62 62 63 63 64 63 63 63 63 63 64 63 64 63 63 64 64 62 62 61
58 61 64 64 64 64 64 65 64 63 62 61 59 55 50 61 59 59 58 58 59 59 59 62 62 62 63 63 62 63 63 63 63 64 64 64 64 64 64 63 62 60 60
57 60 62 64 63 59 61 61 61 60 60 60 59 57 56 56 55 54 53 52 50 50 50 51 51 52 51 52 52 53 60 60 62 64 64 63 64 63 62 61 61 59 58
57 60 62 62 61 61 61 59 58 55 57 56 54 53 52 52 50 50 48 48 47 46 45 44 44 44 44 43 40 39 40 40 43 55 61 64 63 60 62 60 60 60 57
55 58 59 60 59 58 57 56 54 52 51 50 49 49 49 49 48 47 47 47 47 46 46 45 44 43 43 43 41 40 37 32 38 38 48 61 64 63 61 61 59 59 56
49 49 48 48 48 48 48 47 46 46 45 44 44 45 45 45 46 45 46 45 45 45 44 44 43 43 43 42 40 36 33 34 37 34 50 61 63 63 62 61 60 58 58

GFSGL_sfc_dewp_057.txt.gz
Dewpoint
70 70 70 70 70 71 71 71 73 71 72 72 73 73 73 73 74 75 75 74 75 75 74 74 74 74 70 70 68 67 66 65 62 61 64 66 69 69 67 68 68 68 66
69 70 70 70 71 70 71 71 73 73 72 72 72 73 73 73 73 74 73 72 73 74 74 75 73 72 75 74 71 72 70 69 65 69 67 65 69 70 70 70 67 63 65
68 68 69 69 70 71 71 71 72 72 72 71 71 72 72 72 73 74 74 73 73 74 74 74 74 74 74 72 73 71 70 71 70 67 66 65 66 65 67 70 69 69 66
65 66 69 70 70 70 72 73 72 73 72 72 72 72 72 72 72 72 73 73 74 73 74 74 74 74 74 75 73 74 73 72 72 70 68 67 67 70 67 65 64 64 64
68 68 69 71 71 72 72 73 72 73 73 73 72 72 72 71 69 72 72 73 73 73 74 74 74 73 71 72 72 75 75 72 70 67 67 66 65 65 66 65 64 65 67
69 69 71 72 72 72 73 73 74 73 73 73 72 72 72 69 65 66 71 71 73 74 73 74 74 72 72 68 67 68 72 75 73 70 68 68 73 71 69 68 67 66 65
70 70 71 72 72 73 73 74 74 74 73 73 72 72 73 73 64 64 67 71 72 73 74 73 72 71 72 74 69 66 67 66 67 74 74 73 74 75 75 74 73 71 69
70 70 71 72 72 73 73 73 73 73 74 74 73 74 73 73 64 63 64 71 73 74 74 74 75 75 75 73 73 73 74 74 73 71 73 74 75 76 77 75 76 75 73
69 70 71 72 72 73 73 73 73 73 73 73 72 73 74 74 63 62 65 71 72 74 74 75 75 75 69 65 73 73 75 75 68 65 66 65 64 64 67 71 70 70 68
70 70 72 72 72 73 73 74 74 74 72 71 71 73 70 74 65 60 64 70 71 70 74 75 66 71 65 62 73 73 74 73 73 74 75 70 66 70 64 69 70 69 70
69 70 72 73 73 74 74 75 74 74 73 74 73 74 74 72 73 60 58 71 70 70 70 70 71 62 61 60 61 74 74 73 73 74 75 74 75 75 74 74 72 71 69
72 71 73 74 71 71 75 74 75 75 75 75 75 73 73 75 66 62 58 60 68 72 72 72 73 62 58 57 60 63 61 63 72 73 73 73 73 73 75 75 75 73 71
73 73 73 74 73 75 75 74 73 74 72 72 71 71 72 73 75 61 58 57 59 69 72 70 64 59 57 60 58 59 58 68 70 70 71 72 73 74 75 75 75 75 75
72 73 73 73 73 74 72 72 71 71 72 71 71 71 71 72 73 74 72 68 60 63 65 70 69 65 64 68 69 65 68 70 70 72 73 72 73 73 73 73 72 71 70
71 70 71 70 72 72 73 71 72 74 69 72 71 72 71 72 72 69 70 74 74 70 70 74 73 73 74 74 74 74 73 71 68 69 70 70 71 71 71 71 70 67 64
69 70 69 72 71 70 70 67 49 50 49 49 50 61 72 61 57 54 53 53 54 55 70 73 73 74 74 73 73 73 73 70 72 73 73 72 71 70 70 67 65 64 64
69 70 68 67 72 71 70 70 69 60 47 46 45 48 50 54 54 50 48 48 49 54 72 73 73 73 73 73 73 72 72 73 73 72 71 70 69 68 65 63 63 64 62
68 59 68 70 69 70 71 70 70 70 69 69 50 49 46 46 48 47 46 53 65 60 71 73 73 72 71 71 71 70 70 69 68 67 67 66 65 65 63 62 63 62 62
63 66 68 67 68 68 71 71 70 71 71 70 65 55 48 42 42 43 45 70 72 71 69 67 67 67 67 67 67 67 67 66 65 64 64 64 64 64 63 62 62 57 59
58 59 62 66 67 68 71 70 70 70 70 69 68 68 61 58 66 66 67 67 67 66 66 66 65 64 64 65 65 65 65 64 64 64 64 64 63 64 62 62 62 62 61
56 58 59 64 65 64 66 69 70 68 67 67 67 63 52 65 65 66 64 64 63 63 64 64 64 64 64 65 65 64 64 63 64 63 64 64 64 62 63 64 64 62 62
56 57 59 60 64 64 64 66 67 67 66 65 61 58 49 61 61 62 61 61 60 60 61 64 63 63 62 63 64 64 63 63 64 64 64 64 64 64 63 63 63 62 62
55 57 59 59 61 61 64 64 65 65 65 63 60 60 60 60 59 59 57 56 55 54 54 55 57 54 51 50 50 51 57 60 61 63 64 64 63 62 61 61 62 61 60
55 56 60 60 61 62 63 64 64 58 62 62 60 59 58 57 55 54 54 52 50 48 47 47 46 46 46 44 44 43 43 46 48 55 61 63 63 61 62 60 60 60 60
52 52 51 52 58 60 60 59 59 57 55 54 53 53 52 51 50 50 50 48 48 47 47 46 45 46 46 47 46 45 39 34 40 39 50 57 62 63 61 61 60 60 60
46 46 46 45 45 45 46 46 46 46 46 46 46 47 48 48 48 48 48 47 46 46 46 46 46 47 46 44 42 36 32 34 41 34 50 59 62 62 62 62 61 60 60

GFSGL_sfc_dewp_060.txt.gz
Dewpoint
70 71 71 70 70 72 71 72 72 72 72 73 72 71 70 72 73 75 74 72 74 75 74 73 74 75 69 66 66 65 64 62 60 59 59 64 71 71 69 68 68 68 65
70 73 71 71 71 70 71 72 73 73 73 73 73 72 71 71 73 74 73 71 72 73 73 74 73 70 74 74 69 72 69 70 64 71 68 63 70 72 72 71 68 64 63
68 68 69 69 70 71 72 72 73 73 73 72 72 73 72 71 72 73 73 73 72 72 73 73 73 74 74 71 72 69 68 70 70 68 67 66 65 66 69 73 72 72 67
65 66 69 70 70 70 73 74 72 74 74 73 73 72 72 71 70 71 72 73 72 71 73 73 73 74 75 75 74 75 74 72 70 67 65 64 64 68 65 64 65 65 63
68 66 69 72 72 72 73 74 74 74 73 74 73 73 72 70 66 70 70 71 72 72 72 73 74 73 71 72 72 76 77 73 68 66 64 63 62 62 65 63 65 66 68
70 69 71 74 74 74 75 75 76 75 75 74 73 73 72 68 64 64 68 69 71 72 72 73 74 72 72 68 67 68 71 76 77 70 67 66 74 72 69 68 67 67 67
71 71 73 74 75 75 75 76 76 76 75 75 74 73 74 74 63 63 65 68 68 71 74 73 71 67 71 73 69 67 68 66 67 74 75 75 75 76 77 77 75 73 72
72 73 73 74 75 75 76 76 77 75 75 75 74 75 75 74 64 62 64 71 72 73 73 73 75 75 73 71 72 72 73 74 74 72 73 74 74 75 76 76 78 76 75
72 73 74 74 74 75 75 76 75 74 75 74 73 75 76 75 62 62 65 71 70 74 73 74 74 75 70 64 73 73 74 73 66 63 65 66 65 65 68 72 71 71 71
71 72 74 75 75 75 75 76 76 74 73 71 72 74 71 75 65 61 65 70 71 68 74 76 66 70 64 62 74 73 74 71 71 73 74 72 66 70 64 72 73 71 71
70 70 73 74 75 75 77 76 75 75 74 75 73 75 75 74 73 60 59 72 68 67 67 66 67 62 61 60 61 74 73 72 72 74 74 75 76 75 74 76 78 77 73
71 71 74 75 71 71 77 76 75 76 76 76 75 73 71 74 66 61 58 60 67 70 69 66 70 59 57 58 61 63 61 63 72 72 73 73 73 73 74 76 78 77 74
73 74 74 74 73 75 75 75 73 75 72 72 71 71 70 71 73 62 58 57 60 69 71 68 62 59 55 59 57 59 59 71 72 72 73 73 74 75 77 76 76 76 76
73 74 73 73 73 73 72 72 71 70 71 69 70 69 69 70 71 72 72 67 60 64 67 70 69 66 63 67 70 68 72 73 72 74 74 74 75 75 73 75 73 71 68
72 72 73 72 73 73 73 70 71 73 67 70 69 70 69 70 70 67 68 73 73 69 70 73 72 72 73 73 74 75 75 75 73 74 73 72 72 72 73 72 70 68 64
70 69 69 69 71 71 71 71 50 53 51 52 53 61 70 62 60 57 57 56 53 55 71 72 73 73 73 73 74 74 75 73 74 72 71 72 73 72 71 69 67 64 63
71 72 71 71 70 71 71 71 70 61 49 47 49 50 51 53 53 51 48 48 51 58 73 73 73 74 74 74 74 73 74 74 75 74 74 72 72 69 67 65 63 63 62
68 60 71 69 67 69 72 70 70 71 71 69 51 53 48 47 48 48 48 54 68 63 73 74 75 75 74 73 73 73 73 72 72 71 71 70 67 66 64 63 62 63 62
68 69 68 68 68 66 68 71 72 72 71 74 75 56 49 42 44 44 45 73 73 73 72 73 73 71 71 71 71 70 70 70 69 69 66 65 64 63 63 62 62 59 59
61 60 62 67 70 71 72 71 70 71 73 73 70 70 65 61 66 67 65 69 72 74 73 72 70 69 70 68 68 68 67 66 65 64 63 62 63 63 62 62 61 61 62
53 56 58 63 63 65 67 69 68 68 70 73 72 66 54 70 71 69 69 70 70 70 70 69 68 67 66 66 66 65 63 62 62 62 62 63 63 62 63 63 62 61 62
52 53 55 59 62 62 61 60 62 65 66 68 68 63 51 65 67 67 67 65 63 63 63 65 64 64 63 64 65 64 62 62 62 62 63 63 63 63 62 62 62 61 61
52 54 55 56 57 58 62 60 59 60 61 64 65 63 63 64 63 63 62 61 60 59 59 59 60 60 59 59 59 59 60 62 63 64 64 63 63 62 62 62 61 61 60
55 54 55 57 58 57 57 58 60 59 62 63 64 64 63 62 61 59 58 56 54 54 53 53 53 53 53 52 52 50 48 47 50 58 62 63 63 61 62 61 60 60 60
48 48 49 48 49 51 54 54 56 56 54 54 56 58 57 57 57 55 54 53 52 51 49 48 48 48 49 48 48 46 41 34 41 40 50 58 60 62 62 61 60 59 60
43 44 44 44 43 43 43 43 43 43 43 42 43 45 48 49 50 50 49 48 48 47 46 45 45 44 43 40 36 35 31 32 40 35 46 56 59 61 63 63 61 60 60

GFSGL_sfc_dewp_063.txt.gz
Dewpoint
73 73 73 73 72 74 74 75 75 74 75 75 74 73 72 72 74 77 77 74 75 76 75 73 75 77 69 64 64 63 63 62 60 60 59 66 74 75 72 72 69 71 67
71 73 73 74 72 71 73 74 76 76 75 76 75 75 73 72 74 76 74 72 72 73 74 75 73 69 77 76 70 76 69 71 64 71 69 66 72 74 74 75 69 67 68
70 69 71 72 72 72 74 74 75 76 76 73 75 76 74 73 74 75 76 75 74 74 74 74 74 75 77 72 74 69 66 69 70 68 68 68 68 67 70 74 75 74 70
65 66 70 71 72 71 73 75 75 76 76 76 76 76 75 73 73 72 74 75 75 73 74 74 74 75 76 77 75 77 75 73 70 68 67 66 67 71 68 66 66 67 67
67 66 69 72 73 73 73 75 75 76 76 77 77 76 76 73 68 73 73 74 75 74 74 73 74 73 70 73 72 76 77 73 69 68 66 66 65 64 68 67 66 68 71
69 67 70 73 74 74 74 75 76 76 77 77 76 76 75 69 64 64 70 71 73 74 75 75 75 72 71 68 67 68 72 77 77 70 67 67 73 71 69 68 70 70 70
71 70 71 73 74 74 74 75 76 77 77 77 77 77 77 76 63 62 65 69 71 73 75 75 73 67 72 75 70 67 68 66 68 74 74 74 74 76 77 77 74 73 73
71 73 72 74 74 75 76 75 77 77 77 77 77 77 77 76 64 62 64 72 71 72 74 75 76 75 75 75 75 74 74 75 75 72 74 75 76 77 77 76 77 76 76
72 72 73 74 75 75 76 76 77 77 77 76 77 77 78 77 63 61 64 71 71 74 74 74 74 75 70 65 74 73 74 74 66 62 63 64 65 65 68 71 71 72 72
72 73 74 75 76 76 77 77 77 77 76 73 75 77 73 78 66 60 64 69 71 69 75 76 67 71 65 62 75 75 74 74 74 73 74 72 67 70 64 71 73 74 73
72 73 75 76 77 77 78 78 78 77 75 77 76 76 77 76 76 60 59 73 69 68 67 66 68 62 61 60 61 74 74 74 72 73 74 74 75 77 77 77 78 78 76
73 73 75 77 74 74 78 78 78 78 77 78 77 76 73 77 68 61 58 61 68 71 69 62 66 57 57 58 60 62 61 63 71 71 72 73 73 73 73 77 80 80 78
75 75 75 76 76 76 77 77 75 77 72 73 71 70 69 69 73 61 58 58 60 70 70 64 62 58 55 58 57 59 59 71 72 72 73 73 72 72 78 78 77 77 76
75 76 76 75 75 76 73 74 72 71 71 70 70 69 68 67 66 69 69 65 60 65 67 70 68 65 61 67 70 66 71 73 73 73 73 72 73 75 76 75 73 73 72
74 73 74 72 73 74 73 72 71 72 67 68 66 65 64 66 66 65 66 72 72 69 70 72 71 71 71 72 73 74 74 75 75 74 72 73 75 74 73 74 73 72 70
72 71 69 70 71 71 71 71 53 57 52 53 52 63 70 57 56 52 53 55 58 57 70 71 71 71 71 71 72 73 74 74 75 76 75 73 73 73 74 73 72 70 66
74 73 70 68 69 71 70 70 70 61 52 50 52 52 52 50 52 51 52 51 53 59 72 72 71 70 73 73 73 75 75 75 77 75 74 74 74 74 71 71 68 65 63
70 61 72 71 70 70 71 71 69 70 69 69 56 56 49 48 50 49 50 54 73 68 72 71 71 71 72 73 75 75 75 75 75 74 74 73 73 71 69 67 65 64 63
66 67 68 72 71 70 71 70 70 70 69 71 71 59 51 44 47 48 47 72 71 71 71 72 74 74 75 75 74 75 76 74 73 72 72 72 72 69 66 64 63 57 60
65 63 64 69 71 70 67 66 65 67 69 71 72 72 64 63 69 71 68 71 72 74 77 75 74 74 73 73 73 73 72 71 70 69 69 67 65 63 62 62 62 61 63
63 66 65 62 70 65 63 68 68 66 64 70 70 64 58 70 70 72 70 71 72 73 72 73 71 71 72 70 70 69 68 68 69 67 64 63 63 62 63 62 62 61 61
53 57 58 60 67 68 66 67 66 67 67 66 69 62 55 69 68 72 71 71 69 68 68 70 68 67 66 66 66 66 64 64 64 63 63 63 63 62 62 62 62 62 62
54 53 53 56 60 60 63 59 59 61 61 60 64 65 65 66 66 66 67 66 65 64 65 66 66 63 62 62 61 60 59 60 62 63 63 63 63 63 63 63 62 62 61
53 51 51 52 53 55 55 59 60 57 59 61 62 62 65 65 64 63 60 60 60 59 59 58 58 57 56 56 55 54 47 46 47 52 57 60 62 61 63 63 62 62 61
44 45 46 46 47 47 47 47 50 50 50 51 52 53 54 57 58 56 56 57 55 54 53 52 51 51 48 45 44 43 38 32 41 39 47 56 59 61 63 62 61 61 61
41 41 42 42 42 42 42 42 41 41 41 42 41 41 42 45 46 48 48 47 47 44 41 41 40 41 38 35 34 33 30 31 35 32 42 51 55 58 59 61 63 64 63

GFSGL_sfc_dewp_066.txt.gz
Dewpoint
73 73 73 72 71 71 72 71 73 73 78 76 77 76 76 75 77 77 76 75 75 75 76 76 75 75 74 74 73 71 70 71 68 68 70 71 74 74 71 72 73 73 71
73 73 73 73 72 71 70 73 75 76 75 79 76 77 75 75 76 76 75 72 75 74 75 76 75 73 76 76 75 75 75 75 73 71 72 71 71 72 74 75 73 69 70
73 72 72 72 73 72 70 71 74 74 75 74 77 75 76 75 75 75 76 75 74 75 75 76 75 76 76 75 75 73 72 72 73 71 70 73 73 74 73 74 75 74 71
70 71 72 72 72 71 72 71 73 75 74 75 75 76 75 75 74 74 75 75 75 74 76 75 76 76 76 77 75 75 75 75 74 73 71 70 71 72 73 72 71 73 72
68 69 71 73 73 73 72 73 73 73 74 75 75 75 75 75 72 73 73 75 75 75 75 75 75 74 72 73 74 76 76 75 73 72 71 71 71 72 71 71 71 72 73
68 69 71 72 73 73 73 73 74 74 74 75 75 75 75 73 67 66 71 72 75 74 74 74 76 72 71 67 67 68 71 75 74 74 73 71 72 73 73 72 71 70 70
69 70 70 72 72 73 74 73 74 74 74 75 75 75 75 75 65 63 66 71 72 73 75 74 73 71 71 74 69 66 67 66 68 73 72 72 71 72 73 73 73 73 72
69 71 71 72 72 73 73 73 73 74 74 75 75 76 76 75 66 62 64 70 72 73 73 73 74 74 74 75 75 74 74 74 73 71 71 72 73 75 75 75 75 75 73
71 70 72 71 72 73 73 73 73 73 74 74 75 76 76 76 65 63 63 70 70 71 72 73 74 75 69 65 72 72 72 73 68 66 68 68 67 66 69 74 71 68 69
69 71 72 71 72 73 73 74 74 74 73 74 74 75 73 76 66 62 64 71 70 70 73 74 66 69 64 62 72 74 73 73 73 73 73 72 66 69 62 67 69 71 72
71 71 73 75 73 74 75 75 75 75 74 75 75 75 76 75 75 61 59 72 70 70 70 70 72 63 60 59 61 72 71 71 72 74 74 73 74 76 76 76 76 76 75
73 72 74 74 74 73 76 76 76 76 75 75 75 75 75 76 68 62 58 61 68 71 70 70 70 61 59 59 60 62 61 62 71 71 71 71 73 73 74 78 79 78 78
74 74 74 76 75 75 76 76 75 76 74 74 74 74 74 74 75 62 58 58 60 71 72 68 61 58 53 56 56 59 59 68 70 71 72 73 74 75 78 78 78 77 76
73 75 74 76 75 75 74 75 75 74 74 74 73 73 73 73 73 75 68 64 61 64 67 71 67 66 63 68 70 62 68 72 73 73 74 75 76 76 76 77 75 74 73
75 75 74 74 74 75 74 75 74 75 73 73 73 72 72 71 70 66 69 72 71 68 70 73 73 72 71 72 74 75 74 74 74 74 74 74 75 76 75 75 73 74 72
74 73 72 72 73 73 73 72 53 56 53 56 59 66 66 54 50 50 49 58 59 57 70 72 72 72 72 72 72 73 75 74 76 77 77 77 75 73 73 74 74 73 71
70 71 72 70 71 73 73 73 71 62 50 49 49 53 58 55 50 50 52 52 53 59 73 73 73 73 73 73 74 76 75 76 77 76 76 74 73 73 73 73 73 72 71
66 60 69 71 70 73 73 72 71 71 70 69 54 57 51 52 50 49 53 58 70 67 73 75 75 75 74 74 76 75 76 76 77 76 76 75 75 74 73 72 72 71 69
62 65 65 70 70 70 75 71 72 71 71 74 66 57 51 47 50 49 52 72 73 72 73 72 72 74 78 77 76 77 76 76 77 76 75 73 73 73 72 71 67 60 62
60 62 62 67 70 70 70 71 71 71 70 71 72 71 69 64 69 69 69 69 71 72 75 74 77 76 76 77 75 76 75 74 73 73 72 71 71 68 65 65 65 65 66
59 62 62 66 68 69 70 68 67 69 69 67 67 69 57 69 72 73 71 71 72 72 74 75 76 75 73 74 74 72 72 71 71 71 69 68 68 66 67 66 64 63 64
59 61 61 61 62 64 64 66 68 68 67 67 70 66 55 68 73 74 73 72 70 69 69 71 71 70 69 69 69 69 68 67 68 67 67 67 67 66 65 64 64 64 64
53 52 55 56 56 55 59 59 59 60 63 63 66 67 69 67 65 64 64 64 64 63 64 61 60 61 59 61 59 53 51 50 52 55 61 64 63 64 64 64 64 63 62
48 47 47 47 50 52 52 53 53 51 53 57 59 62 63 62 60 60 59 58 57 58 55 54 51 46 44 44 43 43 38 38 45 50 53 56 60 61 63 63 63 63 62
42 43 43 43 43 43 45 45 46 47 49 50 50 52 54 57 56 55 55 52 50 48 44 45 46 43 39 36 33 31 31 31 38 37 47 53 56 60 60 61 62 63 62
40 40 40 41 41 41 41 40 41 41 42 43 44 46 44 43 41 40 40 40 38 34 32 31 31 31 31 31 31 32 30 31 33 32 39 49 53 55 54 55 57 59 61

GFSGL_sfc_dewp_069.txt.gz
Dewpoint
68 70 67 66 70 71 68 67 70 70 72 74 74 74 74 74 73 73 71 72 71 72 72 72 72 71 70 70 72 71 67 65 62 63 66 67 68 68 69 69 69 68 68
69 69 70 67 68 69 70 68 70 69 70 73 73 73 73 72 73 74 71 71 72 71 72 72 72 72 71 71 72 70 71 71 68 66 68 66 66 67 68 69 70 71 70
70 69 70 70 66 67 67 70 67 73 69 71 73 73 72 73 72 73 73 72 72 72 71 72 72 72 71 72 71 70 70 69 70 69 67 69 70 70 71 70 71 72 72
70 70 69 70 70 66 66 65 71 70 73 73 73 73 73 72 72 72 73 73 73 73 73 73 73 73 73 73 73 73 72 72 71 71 71 70 69 69 70 70 69 69 70
70 70 70 70 70 71 69 68 65 71 69 71 73 73 73 73 72 72 72 73 73 73 72 73 73 73 72 72 74 73 73 72 72 72 71 70 70 68 69 70 70 71 69
69 70 71 71 70 70 70 70 67 67 72 70 70 72 73 73 69 68 70 71 73 73 73 73 73 71 71 68 68 69 73 73 72 72 71 70 70 70 70 70 69 68 69
66 69 70 71 71 71 71 70 70 67 67 71 72 73 72 73 66 66 68 69 69 72 72 72 72 72 71 72 69 66 66 66 67 69 69 69 69 70 70 70 70 71 71
66 67 69 70 70 71 71 70 70 71 69 69 70 72 73 73 66 64 66 69 69 69 72 73 72 71 71 71 71 71 71 69 68 68 69 69 70 72 72 71 71 72 73
67 67 69 69 70 70 70 70 70 70 71 70 71 72 73 73 65 64 63 66 68 69 70 70 71 72 69 66 71 72 72 73 70 65 66 66 66 66 68 72 72 71 70
67 69 69 69 70 70 71 70 71 70 69 72 71 72 71 73 65 63 64 69 67 67 69 70 66 70 66 64 69 69 68 68 69 70 70 67 65 67 65 68 70 69 68
70 70 70 69 69 70 70 70 70 70 70 70 71 71 72 73 73 62 60 71 70 68 67 68 69 63 59 58 60 69 70 70 70 72 72 73 72 72 73 71 69 70 72
69 71 71 71 69 71 70 71 71 70 70 70 70 71 72 73 67 63 60 61 68 70 68 69 68 62 59 58 60 61 60 61 69 70 70 70 70 70 71 74 75 76 76
65 70 71 71 70 69 71 71 71 71 71 71 71 71 72 72 73 63 59 58 60 70 70 67 64 60 56 57 58 59 59 64 67 68 68 69 71 72 73 75 75 74 74
64 69 72 72 71 70 72 72 72 72 72 71 71 71 72 72 72 74 68 64 61 63 66 68 64 65 65 67 66 59 62 66 67 67 68 71 73 74 74 75 73 72 71
61 68 73 71 71 72 72 72 72 72 71 72 72 72 71 72 72 69 70 71 70 67 68 70 70 70 70 70 71 71 66 68 70 72 72 73 73 73 72 72 71 71 70
60 67 71 71 73 72 72 69 52 54 56 57 61 68 69 59 61 59 56 58 59 57 67 70 70 71 71 71 70 70 73 71 72 73 73 73 73 73 72 72 71 72 70
59 62 66 70 73 73 73 72 69 61 52 48 50 58 58 60 49 49 50 51 51 59 70 71 71 71 71 71 71 70 71 74 75 74 74 74 73 72 72 71 72 72 70
58 58 63 69 70 71 73 73 73 68 68 67 54 53 50 50 51 51 50 54 62 65 71 71 71 71 73 73 73 74 73 74 74 73 73 73 72 71 71 71 70 70 70
57 59 61 64 70 67 72 73 73 70 70 68 61 57 50 46 46 47 50 70 70 70 71 71 71 72 72 72 72 73 73 72 73 73 73 73 72 71 70 70 70 63 62
57 58 60 65 68 68 69 69 72 72 71 67 66 66 61 60 65 66 65 66 69 71 72 72 71 70 67 65 67 72 71 70 70 70 71 71 71 70 68 65 63 62 63
56 58 57 60 62 63 63 67 67 68 69 68 68 66 57 66 67 66 65 67 68 69 68 71 71 69 70 71 71 71 70 71 70 70 69 68 68 66 64 63 63 63 63
53 54 56 55 57 59 59 59 63 66 67 67 68 60 54 67 67 70 68 65 63 60 60 63 57 59 58 56 55 59 56 55 54 57 63 64 64 63 63 63 63 62 62
48 50 50 51 52 53 55 55 55 56 58 63 66 65 62 61 61 60 58 58 57 54 52 51 50 48 49 49 47 45 46 47 48 53 55 57 61 62 63 62 62 61 61
45 45 46 45 47 47 48 49 50 49 50 50 53 55 56 57 57 56 54 52 48 49 48 46 43 42 43 43 42 45 42 37 43 47 47 52 54 55 60 61 61 62 62
40 42 42 42 42 42 42 42 43 44 45 47 46 45 45 45 48 48 45 44 43 40 38 38 39 35 33 33 32 31 33 33 34 34 41 48 52 54 56 57 58 62 62
39 40 40 39 40 40 40 39 39 39 40 40 41 42 43 41 40 40 41 39 35 35 33 33 31 31 31 31 32 31 30 31 33 33 41 45 43 48 51 52 53 55 56

GFSGL_sfc_dewp_075.txt.gz
Dewpoint
65 66 65 66 69 69 67 67 68 70 69 70 72 72 70 71 71 71 70 70 70 70 69 69 69 69 69 68 69 69 67 64 62 63 63 66 67 66 67 68 69 69 69
65 65 65 65 66 69 68 67 67 68 69 70 70 72 71 71 71 71 70 71 70 69 70 69 69 70 70 69 69 68 68 67 66 65 65 66 67 68 70 69 70 70 70
66 65 65 64 64 65 68 69 67 67 68 70 71 72 71 71 71 71 71 70 70 70 70 70 69 69 69 69 69 69 69 69 68 67 68 69 69 70 69 70 70 70 70
65 66 66 65 64 64 64 67 69 67 68 69 72 72 72 72 72 72 71 71 70 70 71 71 70 70 70 69 69 69 69 69 69 69 68 67 68 70 69 69 70 69 69
65 66 66 66 65 64 64 64 67 69 67 68 69 72 72 72 72 72 72 72 71 71 70 71 71 71 70 69 70 70 70 70 69 69 68 68 69 69 69 69 68 69 69
66 66 68 67 67 66 64 63 65 67 68 67 68 68 71 71 67 67 70 71 71 71 70 71 71 70 70 68 67 68 70 70 69 69 69 69 69 69 69 68 67 66 67
67 67 67 68 69 69 67 65 63 64 65 66 68 69 69 70 65 65 67 70 70 70 70 70 70 71 70 72 68 66 66 66 67 70 70 70 70 70 68 67 67 67 67
67 68 68 69 68 69 69 68 65 64 64 64 64 67 70 69 65 63 65 70 70 70 70 71 71 70 71 71 71 71 71 70 69 68 70 71 71 70 69 69 69 69 70
67 67 68 70 70 69 69 69 69 67 66 65 64 64 66 67 63 63 64 69 70 70 70 70 71 71 67 64 70 70 70 70 67 63 64 64 63 63 64 68 69 67 68
65 67 68 69 71 72 70 70 71 71 69 69 67 65 65 68 61 61 64 70 70 70 70 70 64 68 63 61 69 70 69 69 70 70 69 66 64 66 63 67 69 68 68
62 63 65 66 68 69 71 72 71 71 71 70 69 68 66 68 69 60 60 69 69 69 69 69 70 62 60 58 60 70 69 68 67 68 68 68 69 70 71 70 69 70 68
60 62 63 65 67 70 70 70 72 71 70 70 70 70 69 68 62 60 59 61 67 70 69 69 69 60 58 57 58 60 60 61 67 68 67 68 68 69 70 72 71 70 71
58 58 61 63 65 67 70 70 71 72 70 70 69 69 70 70 70 60 58 58 60 69 71 68 62 58 55 57 57 59 58 65 67 65 66 66 67 68 69 69 70 71 71
57 57 58 61 62 66 70 72 71 71 70 69 69 69 69 70 71 71 68 64 60 63 66 69 67 64 62 63 62 61 62 64 65 65 66 67 68 67 68 69 70 72 72
54 55 57 60 61 63 66 72 72 72 70 70 69 69 69 68 69 67 68 70 70 67 67 70 71 67 69 69 67 67 67 64 64 65 66 65 66 67 68 70 72 72 72
51 53 56 57 59 62 65 70 54 56 56 55 56 66 70 63 58 54 54 54 55 54 65 70 70 70 70 70 70 69 69 66 66 66 66 67 67 68 69 71 71 72 70
51 51 54 56 59 61 62 66 71 64 51 49 50 53 55 63 52 51 51 51 49 53 70 71 70 70 71 70 70 70 70 70 70 70 69 69 69 70 69 71 70 69 68
50 51 55 58 58 60 62 65 69 70 69 69 56 53 52 51 51 51 48 51 59 56 70 71 71 71 72 71 71 71 71 71 70 71 70 70 71 71 70 70 69 69 68
49 52 55 55 57 58 61 65 68 71 71 71 66 56 52 48 47 45 46 69 70 68 67 70 71 71 71 71 71 72 72 71 70 71 72 72 71 70 68 67 66 59 60
49 52 53 53 54 56 58 60 64 68 70 70 69 69 60 58 62 63 60 65 68 70 69 69 71 71 71 70 70 71 70 69 70 70 70 67 68 67 64 62 63 62 63
47 49 51 51 52 51 52 55 57 61 67 70 69 67 56 66 68 69 67 67 66 65 66 67 68 67 66 65 64 65 65 66 66 67 68 67 65 63 63 65 66 65 64
47 48 49 48 48 48 47 50 52 53 55 66 65 60 51 66 66 61 56 54 52 51 52 52 52 52 51 52 56 61 64 63 63 63 65 65 63 64 64 64 63 63 62
45 45 45 45 45 46 45 45 45 49 48 51 56 57 56 53 51 50 48 47 46 46 45 46 47 47 47 48 49 50 54 53 51 54 58 61 62 62 63 62 63 62 61
42 42 42 42 43 43 43 43 43 42 46 45 45 46 47 46 45 44 44 43 43 43 46 44 41 41 43 44 43 43 40 42 47 52 53 57 58 56 59 60 60 60 61
40 40 40 40 40 40 40 41 42 41 41 41 42 43 43 43 42 41 41 41 40 41 40 40 38 38 38 38 38 37 34 36 41 43 51 54 56 58 56 55 57 57 58
40 39 39 39 39 39 38 38 38 40 40 40 39 39 40 42 42 41 41 41 40 40 39 39 39 38 38 37 36 34 33 34 37 36 47 48 48 48 51 53 53 53 52

GFSGL_sfc_dewp_078.txt.gz
Dewpoint
66 67 67 68 67 67 67 69 70 71 71 71 73 73 73 72 72 72 72 72 71 72 71 71 71 71 70 71 70 71 69 66 66 68 66 69 71 72 73 73 73 74 72
66 67 67 68 68 68 67 68 69 70 71 71 72 73 73 72 72 72 71 72 71 71 71 71 71 70 71 72 71 71 70 70 69 69 69 69 71 73 73 73 73 72 73
67 66 66 66 67 68 68 68 69 69 70 70 71 72 72 72 72 72 72 72 72 72 71 71 71 71 71 71 71 71 71 70 70 69 70 72 72 71 73 74 74 74 72
66 66 66 66 66 66 68 69 68 69 69 69 71 71 72 73 73 73 72 72 72 72 72 72 72 72 72 72 71 72 71 71 72 71 71 71 71 72 72 71 72 73 71
66 66 66 66 67 66 67 68 69 69 69 69 70 71 72 73 71 73 73 72 72 72 72 72 72 72 70 71 72 73 73 72 72 72 71 71 71 71 72 72 71 71 71
66 66 68 68 68 67 67 67 68 69 69 69 69 70 71 71 68 67 71 72 73 72 72 73 73 71 70 67 67 67 71 73 73 72 72 71 72 72 73 71 71 70 68
68 67 68 69 69 68 67 67 66 67 69 68 68 69 70 71 65 65 67 72 72 72 73 73 71 71 71 73 69 66 66 66 68 73 72 72 73 73 73 73 71 70 70
68 68 68 68 69 69 69 67 66 66 67 68 68 69 69 69 63 64 66 71 72 72 72 72 72 72 72 72 72 72 72 73 71 69 71 73 74 74 74 73 72 72 72
64 67 69 70 69 69 69 70 69 67 66 66 67 68 69 69 61 62 64 70 71 72 72 72 72 72 68 64 72 72 72 73 68 64 65 65 64 64 66 70 70 71 69
60 62 64 66 69 70 69 70 71 70 68 66 67 67 65 68 61 60 63 68 68 69 71 72 65 70 64 61 71 72 71 71 72 72 71 68 65 68 63 69 70 69 70
59 61 62 64 66 68 70 72 71 71 71 70 69 69 68 66 67 58 59 69 69 68 69 69 71 62 60 58 61 72 70 71 70 71 71 71 71 71 71 70 71 71 72
58 60 61 63 64 66 67 69 71 72 71 71 71 70 70 69 62 60 57 60 66 69 68 69 70 60 57 57 58 61 60 61 70 70 71 70 70 70 71 72 75 73 74
57 58 59 61 63 65 66 67 69 71 72 71 70 70 70 71 70 59 57 57 59 68 70 67 62 58 57 57 57 59 58 65 67 68 68 68 70 70 72 73 73 74 74
54 56 56 59 59 62 65 67 67 70 71 70 70 70 70 71 71 71 65 62 60 62 66 69 66 65 63 65 64 61 64 66 67 68 68 69 69 70 71 72 72 73 73
53 53 54 57 58 59 61 64 65 68 70 71 71 71 70 70 70 67 68 69 68 65 66 69 70 71 71 71 70 70 69 67 67 67 68 68 69 70 70 71 72 72 73
50 50 53 54 57 58 59 60 58 55 54 54 55 65 71 63 59 54 54 53 54 53 66 69 70 70 70 69 70 71 71 68 69 69 69 70 69 69 70 72 73 73 73
49 49 50 52 55 57 58 59 62 63 53 51 50 51 52 63 50 50 50 51 49 54 71 70 70 70 71 70 70 70 71 71 71 70 69 69 70 70 70 71 72 73 73
48 48 50 53 55 55 58 59 61 63 66 68 56 54 51 50 48 50 49 52 61 56 70 71 71 71 72 71 71 71 71 73 72 72 72 71 71 71 71 71 72 72 73
45 48 49 52 53 53 55 58 59 61 64 67 71 59 52 47 49 49 48 69 70 70 68 70 72 73 72 72 72 72 73 73 73 72 72 72 71 71 71 71 72 64 66
46 48 49 51 52 52 53 55 56 58 60 62 68 70 63 59 62 61 59 65 70 72 72 70 71 73 73 73 72 72 72 72 72 72 73 72 72 72 71 71 71 69 67
47 47 48 49 49 50 51 51 52 54 55 58 61 66 56 67 69 69 68 66 68 70 71 71 71 71 72 72 72 72 72 72 72 71 72 72 71 70 69 68 67 66 65
45 46 47 48 48 48 48 48 48 50 52 52 55 62 49 63 67 65 59 55 52 51 52 54 52 52 52 53 56 62 66 68 68 69 71 70 69 68 67 67 67 67 66
43 44 44 44 45 45 46 46 46 46 48 48 49 51 50 48 48 46 47 46 46 45 45 46 48 47 47 48 50 48 51 54 54 56 61 64 67 67 66 66 65 65 66
41 41 41 42 42 42 42 43 43 42 43 45 45 45 44 44 43 43 43 43 43 43 44 44 43 42 44 44 45 47 49 48 51 53 56 60 64 62 65 64 65 65 64
39 40 40 40 40 40 40 40 40 41 41 41 42 43 43 42 41 41 41 41 41 41 41 41 42 41 41 40 42 41 39 40 46 48 54 54 56 57 58 58 57 58 60
40 39 39 39 39 39 39 38 38 38 39 40 40 40 41 41 40 40 40 40 39 39 38 39 39 40 39 39 39 38 36 35 39 38 48 49 48 47 49 51 54 55 55

GFSGL_sfc_dewp_081.txt.gz
Dewpoint
68 70 70 69 69 70 70 71 72 73 74 74 74 74 74 74 75 75 75 73 74 74 74 74 74 74 70 69 70 69 68 68 64 64 69 70 74 74 73 74 71 71 68
68 70 70 70 70 69 70 70 72 73 73 74 74 75 74 74 75 75 74 72 73 73 73 73 73 71 74 74 71 74 72 72 69 70 71 69 73 75 75 75 72 68 72
67 67 68 68 69 69 69 70 71 71 72 71 73 74 74 74 74 75 75 74 74 73 72 73 73 73 74 71 73 71 70 72 72 70 69 70 71 72 73 73 73 74 69
65 66 67 68 68 69 71 71 70 71 71 71 72 72 73 74 74 74 74 74 74 73 73 73 73 73 74 75 73 75 73 72 72 71 69 69 70 72 73 68 68 68 70
66 66 67 69 70 70 69 71 71 71 71 71 72 72 72 71 70 74 74 74 74 74 73 73 73 72 70 71 71 73 74 73 70 69 68 68 68 67 69 68 68 68 71
68 66 69 69 71 70 71 70 72 72 71 71 71 71 71 68 64 66 71 73 74 74 73 74 74 71 71 67 67 67 71 74 73 69 67 67 72 71 69 69 68 68 66
68 69 70 70 70 71 71 71 71 71 71 71 71 71 72 73 64 65 68 71 72 73 74 74 72 70 72 73 68 66 67 66 68 73 72 72 73 73 74 74 73 71 70
69 69 70 70 70 71 71 70 71 70 70 71 71 72 72 71 63 63 66 72 73 73 74 74 74 74 73 73 73 73 73 73 73 71 73 73 74 75 75 74 75 74 73
60 64 65 66 70 70 71 71 71 70 70 69 70 71 72 72 62 61 65 70 70 74 74 74 74 74 69 65 72 72 73 72 67 66 66 65 65 64 67 71 69 68 66
57 60 63 65 66 67 71 72 72 72 70 69 69 70 68 72 64 59 63 66 68 67 72 75 66 71 64 62 72 72 72 71 71 71 72 70 67 71 63 71 71 68 67
56 58 60 62 64 66 68 69 72 73 73 72 71 71 72 70 70 59 58 69 67 67 67 66 67 62 61 58 62 73 72 71 69 71 70 70 70 71 71 72 73 71 68
55 56 59 61 62 64 66 67 68 69 72 73 73 71 71 72 64 61 57 59 66 69 69 68 69 59 58 57 59 63 61 62 70 68 67 67 68 68 69 71 75 75 73
54 55 57 59 60 63 64 65 68 69 70 71 72 71 70 71 72 60 57 56 58 68 69 67 62 56 55 58 57 59 58 68 69 68 67 66 67 68 73 74 74 75 76
53 54 54 54 56 60 64 65 66 68 68 67 69 71 72 72 71 72 69 64 59 62 64 68 66 64 63 66 66 63 67 69 69 69 68 68 69 70 70 71 70 70 71
52 51 52 52 54 56 60 61 64 66 66 67 68 71 70 70 71 67 68 71 69 66 67 69 69 70 70 70 70 71 71 70 70 70 70 69 69 70 70 71 71 71 69
50 49 49 49 50 53 57 58 55 54 53 50 50 55 68 63 59 54 55 53 53 54 66 69 69 70 70 70 69 70 71 70 71 70 69 69 69 69 70 70 71 70 69
49 48 48 48 48 53 55 58 58 58 53 51 49 49 48 56 53 50 50 50 52 55 69 70 70 70 70 70 70 69 70 71 74 70 70 69 69 70 70 70 71 71 70
49 47 46 48 50 53 54 55 58 58 59 62 59 55 53 48 48 50 49 51 62 57 70 71 71 71 71 71 71 71 71 71 72 72 71 71 71 71 71 71 71 71 71
46 46 46 47 48 51 53 54 56 58 60 60 62 60 61 49 49 48 49 69 70 70 69 70 72 72 74 73 73 73 73 72 72 73 72 72 72 73 73 72 72 64 67
44 46 47 46 48 50 52 53 53 56 57 59 59 62 64 59 63 61 60 65 70 71 72 73 73 72 74 75 74 75 75 74 73 73 73 73 73 73 72 72 72 72 71
44 45 46 46 46 48 50 51 52 52 53 55 56 58 48 56 65 68 67 65 68 71 72 73 72 73 74 74 74 74 73 73 73 73 72 72 73 73 73 73 73 72 72
46 44 45 46 46 47 48 48 48 50 50 51 53 54 47 57 59 56 56 55 54 52 53 57 58 57 55 56 57 62 68 70 70 69 71 72 72 72 72 71 71 71 70
43 43 44 45 45 45 45 46 47 47 47 48 49 50 49 49 48 48 48 49 47 48 48 50 51 50 51 49 49 50 53 56 57 58 61 64 67 69 69 69 69 69 68
41 41 42 43 43 43 43 43 43 43 43 45 46 45 45 44 44 44 45 44 44 45 46 47 47 45 47 46 48 47 45 49 54 57 59 62 64 63 66 67 68 68 67
39 40 40 41 41 41 41 41 41 41 42 42 42 43 43 42 42 42 42 42 42 42 41 42 42 42 41 41 40 42 36 39 50 48 58 57 57 56 57 56 58 59 58
39 39 39 39 39 39 39 39 39 39 39 39 40 41 41 40 40 40 40 40 40 39 39 39 40 39 39 39 37 35 33 35 42 39 51 52 51 51 51 51 51 52 51

GFSGL_sfc_dewp_084.txt.gz
Dewpoint
70 70 70 70 71 72 71 71 71 71 72 74 75 75 72 73 74 75 73 72 72 72 72 72 73 74 68 64 65 65 64 63 61 60 61 65 72 73 72 73 72 70 63
69 71 70 71 71 70 71 70 71 72 72 73 75 75 74 72 73 74 73 70 72 72 71 73 72 69 74 73 67 71 69 69 65 70 69 65 71 72 73 75 70 66 67
67 67 69 69 70 71 70 71 71 72 72 71 72 74 74 72 73 75 74 73 72 72 72 72 72 72 73 69 70 67 67 68 68 66 65 65 66 68 71 74 72 72 64
64 66 68 69 69 69 71 70 71 72 72 71 71 72 73 73 71 73 74 74 73 73 73 73 72 72 73 74 72 73 72 71 71 68 66 65 65 70 69 66 63 63 63
67 66 67 69 70 70 72 71 70 71 72 72 71 71 71 70 69 72 72 73 75 74 73 74 73 72 69 70 69 74 75 71 67 65 64 64 64 64 68 64 63 62 67
69 69 69 70 70 71 72 72 72 72 72 72 72 71 70 65 63 65 70 74 73 74 73 74 74 72 71 68 68 68 71 73 73 67 62 63 72 69 65 64 64 63 63
65 69 70 71 71 72 71 72 72 72 72 73 72 72 72 72 63 63 67 69 69 72 74 73 71 68 72 73 69 67 67 66 67 73 73 71 73 72 74 73 74 70 69
59 61 64 68 70 71 72 73 72 72 72 72 72 73 73 72 63 62 64 70 71 73 73 73 74 73 71 71 73 72 73 73 73 71 72 73 74 74 75 74 75 75 72
57 58 59 61 65 68 72 72 73 73 73 71 71 72 73 73 62 61 65 69 68 72 73 74 75 75 69 64 72 71 72 72 65 64 65 65 64 64 67 70 67 65 61
55 58 58 61 63 63 68 71 75 76 72 71 71 72 69 73 65 60 63 67 68 66 71 74 66 70 65 62 74 74 73 70 67 68 71 70 68 71 65 73 70 67 63
56 57 58 60 61 62 64 67 71 75 75 75 73 73 73 71 72 60 58 70 67 66 65 64 64 61 61 59 62 75 72 69 66 68 66 66 66 67 69 73 75 71 66
56 57 57 58 59 62 64 65 66 70 72 73 74 74 72 74 66 63 58 59 66 68 68 65 67 58 56 58 60 63 60 62 65 61 60 61 61 60 62 66 76 76 73
55 56 57 57 56 58 59 63 65 68 69 70 70 70 71 71 73 61 58 57 58 66 69 66 60 56 53 57 57 59 60 68 67 64 62 62 62 60 70 73 74 79 78
55 55 54 55 54 55 54 55 61 66 67 67 66 69 72 75 72 71 70 67 59 62 64 66 66 64 62 65 66 63 68 69 67 66 64 64 63 61 61 64 66 66 67
53 52 51 49 52 53 53 53 55 58 63 64 66 67 67 68 73 63 63 71 75 69 68 69 69 69 69 70 69 69 69 69 69 68 67 66 64 63 62 64 64 65 66
51 49 47 47 48 49 51 51 50 51 50 49 48 54 64 59 55 55 54 53 54 56 70 69 69 69 69 69 69 69 68 67 68 68 68 67 66 64 63 63 64 65 66
50 51 48 48 47 48 49 50 51 53 51 49 48 48 48 51 51 49 47 47 49 57 71 73 69 69 69 70 71 71 70 71 74 70 68 67 66 65 64 64 64 65 66
51 49 49 47 47 47 49 49 50 51 52 55 54 51 51 49 48 46 45 47 64 56 70 70 72 72 72 73 72 71 71 71 71 71 71 69 68 67 66 66 67 68 68
47 47 48 48 47 48 48 49 49 51 52 54 57 56 55 51 48 45 43 58 67 69 69 71 71 72 72 72 73 74 74 73 73 73 73 73 73 71 70 69 68 64 66
46 48 47 46 46 47 48 49 49 51 52 53 55 56 59 59 60 63 63 60 65 70 70 72 71 71 72 73 78 77 76 76 77 77 75 74 73 73 73 73 73 72 72
43 44 45 45 45 45 47 47 49 49 50 52 52 54 46 54 57 59 64 64 65 67 71 73 74 74 73 75 78 77 76 76 76 75 75 75 75 73 73 73 73 73 72
42 43 44 43 43 44 45 47 48 49 49 50 51 51 46 53 55 54 54 53 53 54 54 57 59 56 57 60 60 63 63 64 69 72 73 73 73 73 73 73 73 73 72
43 41 41 42 43 45 46 45 45 47 48 49 49 50 49 50 49 48 48 48 49 49 51 51 54 53 52 52 52 53 55 58 57 59 62 65 66 68 70 71 71 71 71
40 40 40 41 42 43 44 45 46 45 45 46 47 47 47 47 46 45 45 45 46 46 47 48 47 48 49 49 51 51 50 51 55 58 60 63 65 64 65 66 66 67 66
39 39 40 40 40 41 42 43 43 44 44 44 44 44 44 44 43 43 42 42 42 42 42 43 44 44 44 43 43 43 38 39 51 51 60 61 59 60 58 59 59 58 59
39 38 39 39 39 40 40 40 40 41 41 41 42 42 41 41 41 40 40 40 40 40 40 40 40 40 39 39 38 35 33 36 44 41 56 57 56 55 56 56 56 56 55

GFSGL_sfc_dewp_087.txt.gz
Dewpoint
71 71 72 71 72 73 72 72 72 71 72 72 74 72 73 72 73 75 76 72 73 73 73 72 74 76 68 62 62 62 62 62 60 60 61 67 75 74 73 74 72 73 67
69 71 71 71 71 71 72 72 73 74 72 72 72 73 73 72 74 75 72 69 71 71 71 72 71 68 76 75 67 74 69 71 65 72 70 65 72 74 75 77 72 67 68
67 68 69 70 70 70 71 72 73 73 73 70 72 75 73 72 74 74 74 73 71 71 71 72 72 73 75 71 73 67 65 68 69 67 66 65 66 66 69 75 76 74 67
70 67 68 70 70 70 72 73 71 74 74 73 73 74 74 73 72 72 73 74 74 72 72 72 72 72 75 75 73 76 73 72 71 66 64 64 64 70 67 66 65 64 64
69 69 69 70 71 71 72 72 72 74 74 74 74 73 73 70 68 73 73 72 75 74 74 74 73 71 70 71 69 75 76 72 67 64 63 62 62 64 68 65 65 64 68
67 67 69 72 73 74 72 72 73 73 74 75 74 74 73 66 63 65 71 72 74 75 74 75 76 72 71 67 67 67 71 75 76 67 63 63 74 69 64 63 65 64 63
61 61 65 67 68 70 73 74 75 74 74 75 75 74 75 75 64 62 65 69 72 74 75 75 73 67 72 74 69 67 67 66 67 74 75 74 74 76 76 76 73 72 69
59 59 61 63 65 67 69 73 74 74 74 75 74 75 76 74 64 62 64 71 71 73 74 75 76 75 75 74 74 73 74 74 74 71 73 74 75 76 77 75 76 77 74
58 61 60 60 61 63 66 67 72 75 76 74 74 74 75 76 64 61 64 70 68 72 73 74 74 76 71 66 74 74 74 74 66 66 68 67 67 65 68 71 67 65 62
56 58 59 61 61 60 61 64 67 71 74 76 74 74 71 75 66 61 63 69 70 68 72 74 66 70 65 63 74 74 74 74 74 71 71 70 68 71 65 72 70 67 65
55 56 58 59 60 62 62 63 64 65 69 73 75 76 75 73 74 60 59 72 69 68 67 67 68 61 60 59 60 75 74 74 72 72 70 68 67 69 71 73 75 71 68
55 56 57 58 58 56 61 65 64 65 66 69 73 74 73 77 68 64 58 60 68 71 70 67 67 58 56 57 60 63 62 65 71 68 65 62 61 62 62 66 75 76 74
54 55 56 57 56 58 58 60 57 64 64 65 66 67 70 74 76 64 59 58 60 69 71 68 58 58 54 56 56 57 59 68 69 68 67 67 65 62 68 71 74 80 79
53 53 53 54 54 54 54 53 51 53 56 60 62 63 65 65 72 77 75 70 63 66 67 69 67 64 60 63 66 62 66 68 69 69 69 68 67 65 63 64 63 63 64
50 49 50 49 50 52 53 51 52 54 52 54 55 57 58 60 65 57 57 63 65 63 61 68 71 70 69 70 71 71 72 71 70 70 69 69 67 66 65 65 63 63 64
50 47 45 46 47 46 46 46 47 48 47 49 47 51 55 53 51 50 48 49 49 51 63 70 71 73 72 71 70 71 71 70 70 70 70 69 68 68 67 67 65 64 64
50 51 49 48 47 47 47 46 45 46 48 47 46 46 45 49 46 45 44 45 47 51 65 68 70 72 73 74 72 69 69 70 73 70 69 69 69 68 67 67 66 65 65
48 47 47 47 47 46 46 46 46 46 46 47 47 49 49 47 46 45 44 46 61 59 65 68 70 72 74 74 74 74 71 72 71 72 72 71 71 69 68 68 67 67 66
44 45 46 47 47 47 47 47 47 47 47 47 48 48 49 48 46 45 45 58 62 65 67 68 69 71 71 71 74 74 76 76 75 76 76 74 74 75 74 70 69 62 64
42 45 47 46 47 46 46 47 47 47 47 48 48 49 51 53 56 57 57 63 63 64 65 68 72 71 70 73 75 74 75 75 76 76 73 75 75 75 74 74 74 73 74
39 40 43 43 44 45 45 45 47 47 47 48 48 49 45 53 53 54 57 59 59 58 59 62 64 72 72 73 74 75 74 74 75 76 76 76 76 75 75 75 74 74 73
42 44 44 42 43 44 45 45 46 45 47 48 47 48 47 51 51 53 56 54 54 53 53 54 56 58 60 61 61 64 66 69 69 70 73 74 74 74 74 73 73 73 72
36 37 38 40 41 41 42 43 43 44 45 46 47 47 49 49 50 52 51 50 49 49 50 50 51 54 54 55 55 55 57 60 61 62 64 65 66 66 67 69 71 71 71
38 37 37 38 40 40 40 40 42 42 44 45 46 45 48 49 49 49 47 47 46 46 46 46 46 46 48 49 50 50 51 50 52 58 61 62 63 63 66 66 64 63 64
38 38 38 39 39 39 39 39 40 41 43 44 45 45 46 47 46 45 45 44 43 43 42 42 43 42 42 42 43 43 40 35 44 47 58 61 62 62 62 62 61 60 60
40 38 38 38 38 38 38 38 39 40 40 41 42 43 43 44 43 42 42 42 41 40 40 40 40 39 38 38 38 36 34 37 46 41 58 58 58 58 57 56 56 56 56

GFSGL_sfc_dewp_090.txt.gz
Dewpoint
73 74 74 74 75 76 75 76 76 77 73 72 65 66 74 76 76 77 75 73 74 75 76 74 75 75 73 73 73 71 71 70 68 69 72 72 73 73 72 74 75 75 73
72 74 74 74 74 74 75 75 77 77 77 75 73 74 75 76 75 75 75 73 74 74 75 75 74 71 76 76 73 73 73 73 71 69 71 70 70 71 75 76 73 70 72
73 72 72 73 74 74 75 75 76 76 76 74 75 76 76 75 76 75 75 75 74 74 75 75 75 75 75 73 76 74 72 72 72 71 69 73 71 71 71 74 76 76 74
70 73 72 72 72 73 75 75 75 76 76 75 76 76 75 75 75 75 76 75 75 74 75 75 75 75 75 76 74 75 73 74 73 72 71 69 70 71 74 73 71 70 70
67 68 71 72 74 75 76 76 76 77 75 76 76 75 76 74 72 74 74 75 75 74 75 75 75 74 72 73 73 75 75 74 72 71 69 71 70 71 70 70 69 72 71
65 65 67 69 71 72 74 76 76 76 76 76 75 75 74 71 65 64 72 73 75 75 74 75 75 73 72 67 67 67 71 75 74 74 72 69 71 73 73 72 71 69 67
63 63 65 66 67 68 70 72 75 75 76 75 74 75 75 75 66 63 65 72 74 74 75 74 72 69 70 73 68 66 66 66 67 71 71 72 73 73 75 74 73 73 71
61 61 62 63 63 65 66 68 69 71 75 76 75 75 75 75 66 64 64 70 71 72 74 75 75 74 73 75 75 75 73 73 72 69 70 70 71 73 74 73 73 74 74
59 61 62 63 63 63 63 64 67 68 70 74 74 75 75 75 65 62 65 71 71 71 71 73 73 74 71 66 72 73 74 74 69 67 68 67 66 66 68 73 71 69 67
57 59 61 62 63 63 64 64 65 67 68 70 71 74 71 74 67 62 64 72 71 71 72 72 66 69 64 62 71 73 71 71 72 73 73 69 67 69 65 70 72 69 68
56 57 59 61 62 63 64 65 65 64 66 68 69 72 74 73 73 62 60 73 73 71 71 70 71 62 59 59 60 71 71 72 71 73 72 72 71 71 73 72 72 70 68
57 57 59 60 58 57 63 63 63 65 66 67 68 69 70 74 66 66 60 60 66 73 73 73 72 59 55 55 58 60 60 64 70 70 70 70 69 67 67 68 72 73 72
56 56 57 58 59 60 61 61 59 60 65 64 64 64 66 65 69 61 59 58 59 64 68 68 59 59 57 59 55 56 57 65 66 67 68 69 69 69 70 69 69 75 76
55 56 55 55 55 57 55 54 56 55 55 57 59 60 60 61 64 68 65 63 62 65 65 68 64 61 61 64 65 67 63 67 67 67 68 69 69 69 69 69 66 64 65
52 53 53 51 53 54 56 55 54 57 54 53 55 55 55 56 57 54 55 60 63 60 56 61 67 69 70 72 72 71 71 69 69 69 69 70 70 70 69 69 67 65 66
47 47 49 49 50 50 50 51 49 46 46 46 46 50 55 51 48 47 45 45 45 48 56 61 66 68 69 70 73 72 71 70 71 71 71 70 70 69 69 69 69 67 66
45 45 46 46 48 48 50 50 49 49 46 44 43 45 46 49 46 45 43 43 44 48 57 61 65 67 68 70 71 71 71 72 73 72 73 71 70 70 69 69 68 68 68
46 46 44 46 46 47 48 48 48 49 49 51 48 46 46 45 45 43 43 46 60 55 61 62 64 66 67 67 68 71 71 73 72 73 74 72 71 71 71 69 69 68 68
43 40 42 41 43 46 47 48 48 48 48 48 50 48 48 44 43 44 43 59 59 60 62 63 65 66 67 69 70 72 72 71 72 73 72 72 73 73 72 71 71 64 65
40 43 42 40 42 42 44 46 46 47 47 48 49 49 51 51 54 56 59 60 59 62 60 61 62 62 63 64 70 72 71 72 73 73 72 72 72 73 72 71 72 71 71
37 38 41 40 41 42 42 43 43 44 46 46 46 48 45 49 50 52 54 55 58 57 55 55 55 56 57 59 61 66 71 72 73 73 71 71 72 72 72 72 72 71 72
35 35 36 36 38 40 41 42 43 43 43 43 44 45 44 48 50 51 53 55 55 54 53 53 52 52 54 55 55 57 60 66 67 67 67 67 67 69 71 71 71 71 71
35 35 35 36 36 37 38 39 38 39 40 40 43 45 46 46 48 49 50 51 51 50 50 49 49 48 49 51 53 54 54 57 59 61 62 63 64 66 67 67 68 69 70
34 34 35 35 36 36 37 37 37 37 39 39 41 43 44 45 47 48 48 49 49 47 47 46 45 45 45 44 46 47 48 51 50 52 56 60 62 62 64 65 66 65 65
35 36 37 37 36 36 36 36 36 36 37 38 39 40 42 44 45 45 46 46 45 44 43 43 43 42 42 41 41 41 40 35 38 43 52 58 60 62 63 63 62 61 61
38 38 40 39 37 37 36 36 36 36 37 37 39 40 40 41 42 43 43 43 42 42 41 41 40 39 39 39 38 35 33 33 39 39 49 58 59 59 59 58 58 58 57

GFSGL_sfc_dewp_093.txt.gz
Dewpoint
71 71 72 73 73 73 72 73 71 70 71 70 69 68 69 71 73 72 72 71 70 71 71 71 69 70 70 70 71 70 68 68 64 65 69 68 66 65 66 68 71 71 71
70 70 71 73 73 72 73 73 72 71 71 69 65 63 64 71 73 73 72 71 70 70 70 71 69 70 70 72 70 70 69 68 66 63 65 66 66 66 68 71 72 71 71
69 70 71 73 72 72 73 73 73 73 72 71 70 68 71 72 73 72 72 71 72 71 71 71 71 71 70 70 69 70 70 71 71 69 69 69 69 68 67 68 70 72 70
68 69 69 69 70 71 74 74 74 74 73 72 73 72 73 73 73 73 72 71 71 71 73 73 72 71 70 71 70 70 70 70 70 70 69 68 68 69 70 69 66 67 68
67 68 68 69 70 69 70 73 73 73 74 73 72 72 74 73 71 73 72 73 71 71 72 73 72 73 72 71 72 71 71 71 71 70 69 69 67 68 68 69 69 69 68
64 66 67 68 68 68 69 70 72 71 72 73 73 73 72 72 69 68 71 72 73 72 71 72 73 72 71 69 69 69 71 71 69 69 70 69 68 68 70 70 70 69 68
63 63 64 66 65 66 67 68 68 69 72 72 72 71 72 73 67 65 65 68 72 72 73 72 71 71 70 72 68 66 66 66 67 68 67 67 68 68 69 69 69 69 69
61 62 63 64 64 64 65 65 66 67 68 69 71 73 72 73 67 64 66 67 67 69 72 73 72 71 70 71 73 73 70 69 68 67 68 68 67 67 69 68 70 70 72
57 58 60 62 62 63 63 64 65 66 66 68 69 70 72 72 66 63 65 69 69 69 69 70 73 73 70 66 69 69 71 72 69 66 66 66 65 65 67 71 70 69 68
55 55 58 59 59 60 62 62 63 64 64 67 67 69 68 72 66 62 63 69 70 71 70 70 65 67 64 63 69 70 70 70 71 71 69 67 66 68 65 68 69 68 68
54 55 56 57 58 57 59 59 59 60 63 64 66 67 69 70 69 59 59 67 71 72 71 70 70 61 57 56 57 66 66 65 67 70 70 70 70 71 71 69 69 69 69
54 53 54 55 55 55 57 59 59 59 59 63 64 66 67 66 60 58 57 57 60 64 67 70 71 57 55 56 59 59 58 60 65 66 67 68 69 69 69 69 71 71 70
52 53 54 53 54 55 57 55 55 57 55 59 62 61 62 62 65 57 57 58 60 63 66 64 58 56 57 61 58 58 57 61 62 63 64 65 66 67 68 68 67 66 70
47 48 49 50 50 51 53 54 54 53 53 53 52 54 54 55 57 64 60 61 59 62 63 63 62 60 60 62 62 66 67 68 67 65 65 64 65 66 68 69 68 68 67
45 45 46 46 46 47 48 49 50 51 49 46 47 53 52 52 53 53 51 54 58 58 54 60 62 65 66 67 67 69 71 70 67 67 66 66 66 67 67 68 68 68 67
45 44 44 44 45 46 47 47 48 47 46 44 43 45 48 51 48 46 45 44 44 46 55 59 60 62 64 66 67 67 68 69 71 69 69 68 68 68 68 69 69 68 67
44 45 44 44 43 44 45 46 46 47 46 45 44 44 42 44 44 44 44 42 43 46 54 58 59 60 62 65 66 66 66 69 70 71 72 70 70 70 68 69 69 68 67
44 46 42 42 42 42 42 43 45 46 46 46 46 45 45 43 42 42 42 45 53 50 56 59 60 61 63 64 66 66 66 66 67 70 71 71 71 71 71 71 69 69 68
40 40 40 40 40 42 42 42 43 44 45 45 45 45 47 45 44 43 41 48 54 57 58 60 61 61 61 61 62 62 63 64 66 70 70 70 70 70 69 67 66 60 64
38 42 41 39 40 40 41 41 41 41 41 42 43 44 45 46 45 46 48 52 57 59 57 56 57 56 55 54 54 56 58 60 63 67 70 71 71 70 70 69 69 69 70
38 37 39 36 37 37 38 39 39 40 41 41 39 42 42 43 43 44 47 51 53 53 52 51 52 52 51 52 53 53 53 55 58 61 66 69 69 68 69 69 70 70 70
36 36 36 35 35 36 36 36 36 37 37 37 38 38 40 42 44 45 47 48 51 51 51 51 50 49 50 50 50 50 51 52 55 57 60 63 66 67 68 67 66 66 64
35 35 35 35 35 36 35 35 35 35 35 36 36 36 37 39 40 41 42 45 49 50 49 48 47 47 47 47 48 47 47 48 51 52 52 54 59 62 66 66 66 67 67
35 35 35 36 36 35 34 33 33 35 34 34 35 36 36 38 40 41 43 45 46 47 46 45 44 44 44 44 44 44 44 45 46 46 47 49 53 57 61 63 65 66 67
36 35 36 37 36 35 35 34 33 32 33 34 34 35 35 37 39 40 41 43 44 45 44 44 44 43 42 41 40 40 39 35 35 36 40 45 51 55 60 62 64 63 62
37 38 38 38 38 36 35 36 35 35 34 34 34 34 36 37 38 39 41 42 42 42 42 42 42 40 39 38 38 36 33 32 34 33 37 45 50 55 59 61 60 59 58

GFSGL_sfc_dewp_096.txt.gz
Dewpoint
70 69 70 72 71 71 71 71 71 71 71 71 71 71 71 72 72 71 71 71 69 70 70 70 70 69 69 69 71 69 68 67 63 63 67 67 65 65 67 68 69 69 72
69 70 70 71 71 71 72 72 71 70 70 69 69 69 68 69 71 72 71 71 70 69 69 69 70 69 68 69 69 68 69 68 67 65 66 66 67 68 68 67 69 71 71
69 69 69 69 71 71 71 72 72 69 69 69 66 63 62 66 70 72 72 71 71 71 69 69 70 70 69 69 69 68 69 69 69 68 68 69 68 68 67 68 69 68 68
69 68 68 69 69 69 70 71 72 72 70 70 70 69 68 70 71 72 72 71 70 71 71 71 71 70 70 69 69 69 68 68 68 68 68 68 68 69 68 68 68 68 69
68 67 68 68 69 67 68 69 70 72 72 72 71 72 72 73 72 72 72 72 70 70 71 71 72 72 70 69 70 70 70 69 69 69 68 68 68 67 67 69 68 68 68
65 66 67 67 67 67 68 68 68 69 71 72 72 71 71 72 69 67 71 72 72 71 70 71 71 71 70 68 68 68 70 70 69 68 67 67 67 67 68 69 67 67 65
62 63 64 65 64 65 65 65 66 67 68 68 70 71 71 72 67 65 66 69 71 71 72 71 70 70 70 71 69 67 66 66 67 68 67 67 66 67 67 66 66 67 67
61 63 64 64 64 64 64 64 64 66 66 67 68 69 70 72 66 64 65 68 67 67 69 71 72 71 71 71 70 70 71 70 67 67 68 67 67 68 66 66 66 68 69
54 56 59 61 61 63 63 63 64 64 64 65 67 67 68 69 63 62 64 70 69 69 69 69 70 71 68 65 69 70 70 70 68 64 64 64 64 63 65 69 68 67 68
52 54 55 56 57 58 59 60 63 63 64 65 65 66 65 68 60 59 62 69 69 70 70 71 65 67 63 62 69 70 70 69 70 71 71 67 65 67 63 67 69 68 68
53 53 53 53 53 54 55 57 59 58 58 60 63 65 67 65 63 57 58 66 67 68 70 71 70 58 55 55 56 63 65 65 65 66 69 70 70 70 70 69 69 69 68
50 50 51 52 53 53 53 53 53 53 55 56 61 62 65 65 59 56 56 58 61 63 63 66 66 57 55 57 58 60 57 58 63 64 65 65 66 67 69 71 71 70 70
46 47 48 47 48 49 51 51 52 52 53 52 51 53 53 54 62 56 56 56 57 60 63 62 57 56 55 57 59 58 58 64 64 63 65 65 66 66 67 68 69 70 71
44 45 45 45 45 46 47 48 48 47 47 46 46 47 49 52 52 56 59 55 56 58 60 60 59 57 57 58 60 64 66 66 67 67 67 68 68 66 65 66 66 66 67
44 44 44 44 44 45 46 47 47 47 46 46 46 46 46 47 47 49 49 51 52 51 51 56 59 61 62 63 65 66 67 68 69 69 69 69 68 67 66 66 66 67 67
43 44 44 43 43 43 44 44 46 45 45 43 42 44 46 45 44 42 42 41 43 45 53 55 57 59 59 60 62 63 64 66 67 69 69 69 68 68 67 67 68 67 67
42 43 42 41 41 41 41 42 41 43 44 43 42 43 43 42 42 41 41 42 43 45 51 55 56 59 59 60 62 63 64 66 66 67 68 68 70 70 69 69 70 69 69
39 42 39 39 39 40 41 41 41 41 41 42 42 42 42 42 41 41 42 45 48 49 52 54 56 58 61 59 57 57 57 57 58 60 62 64 67 70 70 70 70 70 70
38 38 39 39 39 41 40 41 41 41 41 41 40 41 43 42 41 41 42 46 47 50 53 56 58 58 55 53 53 52 52 53 55 56 58 60 64 68 69 69 69 62 64
38 40 39 36 37 37 38 38 38 37 36 37 38 38 39 39 39 41 43 44 44 50 53 52 52 52 52 51 51 51 51 51 53 54 54 56 59 63 67 68 69 68 66
36 36 37 35 35 36 36 36 36 36 36 36 36 36 39 38 37 38 40 42 46 49 51 51 51 51 50 49 49 48 47 49 50 52 53 54 57 58 59 63 67 69 69
35 35 35 34 35 35 35 35 35 35 34 34 34 34 36 36 36 37 38 38 40 43 45 50 50 49 48 47 47 47 46 45 47 49 50 51 52 53 55 59 62 66 66
35 34 34 35 35 35 34 34 33 33 33 32 32 31 32 33 35 36 36 37 39 42 45 48 48 46 46 46 46 46 45 45 45 46 46 46 47 48 50 53 58 62 65
34 34 35 35 36 36 35 34 34 34 33 32 32 32 33 33 34 34 35 37 39 41 42 44 45 45 43 44 44 44 44 44 44 44 42 41 42 43 46 50 54 59 62
35 35 35 36 36 35 35 34 34 35 33 32 31 33 33 33 33 34 35 36 38 39 41 43 43 42 42 42 42 41 39 37 38 37 38 37 38 40 43 47 51 55 60
36 36 36 36 36 35 34 33 33 34 34 33 32 33 34 33 34 35 35 36 36 37 38 39 40 41 41 40 39 37 33 32 33 32 35 36 37 40 44 47 50 54 58

GFSGL_sfc_dewp_099.txt.gz
Dewpoint
70 69 69 70 70 69 70 70 71 70 70 71 72 72 72 72 72 71 70 70 69 69 69 69 69 69 69 69 70 68 68 65 63 65 65 66 66 67 68 68 69 70 69
69 69 70 70 70 70 70 70 71 70 70 70 70 70 70 71 71 71 70 70 70 69 68 69 68 69 68 68 69 67 68 68 66 65 66 67 67 67 68 68 68 69 68
68 68 69 69 69 70 70 70 71 70 69 69 68 67 68 68 69 71 72 71 70 70 70 68 68 69 69 68 68 67 68 69 68 67 67 68 68 68 68 69 69 68 68
69 68 67 68 66 67 68 69 70 71 69 69 68 66 65 63 65 69 71 71 71 70 71 70 70 70 70 69 69 68 68 68 67 67 67 67 68 69 69 67 67 68 68
68 68 67 67 68 68 67 68 68 69 71 70 70 69 69 68 69 70 71 72 70 70 70 70 71 71 70 69 71 70 69 69 68 67 67 67 67 66 66 67 67 67 67
66 67 67 67 67 67 66 66 66 67 68 69 70 71 71 72 69 66 70 71 72 71 70 70 70 70 69 67 67 67 70 69 69 68 68 67 67 67 67 67 66 65 64
63 64 64 64 64 64 64 64 64 65 66 67 67 69 69 70 65 64 66 69 70 71 71 71 71 71 69 70 68 66 66 65 67 70 69 68 67 67 66 65 65 65 65
58 60 61 62 64 63 63 63 63 64 64 65 66 67 68 70 63 62 64 67 69 68 68 70 70 71 71 70 71 70 70 70 68 67 69 69 69 68 67 67 66 66 67
52 53 55 58 61 60 59 61 62 63 63 64 65 66 66 67 61 60 62 68 69 69 69 69 69 69 67 63 69 70 70 70 68 63 64 64 63 63 65 67 67 66 68
52 52 53 53 53 53 56 58 60 60 60 62 63 65 64 67 58 58 62 68 68 68 69 70 64 61 57 57 65 68 68 69 69 68 69 68 64 66 63 67 69 68 68
49 49 50 50 51 51 52 52 52 56 55 58 61 66 66 64 62 56 57 63 62 63 64 65 67 60 55 54 55 64 65 65 66 66 66 67 67 68 70 68 68 69 68
47 47 47 47 47 49 50 50 49 48 48 47 48 53 51 57 57 56 55 55 57 59 59 63 64 58 54 54 56 59 58 58 64 65 66 67 67 67 67 69 70 69 70
45 45 45 45 46 46 48 48 47 47 46 46 46 46 47 49 53 52 53 54 54 56 59 58 55 53 53 56 57 56 56 62 64 65 65 67 68 68 68 67 67 70 70
43 43 43 43 44 45 45 47 47 45 45 46 46 46 46 47 47 47 48 49 51 52 53 53 55 55 56 57 60 63 64 64 65 65 67 68 69 69 68 68 66 67 66
43 43 43 42 42 42 43 44 45 45 45 45 45 45 45 45 45 44 43 44 45 46 46 52 54 55 57 58 60 61 62 64 64 65 67 67 68 68 68 69 68 67 66
41 42 42 40 40 41 41 42 43 43 43 42 42 43 43 44 43 41 40 41 43 44 49 50 52 53 55 58 58 60 61 62 60 61 63 63 64 65 67 69 69 68 67
39 39 38 39 39 40 40 40 40 41 42 41 41 41 41 41 41 40 39 41 43 46 47 50 52 54 56 58 60 58 57 56 54 55 57 57 58 61 63 66 67 68 67
38 42 38 38 38 39 39 39 40 40 38 37 38 40 40 39 39 38 39 42 43 45 48 51 52 55 57 57 55 53 51 51 51 52 52 54 55 57 59 61 64 67 67
38 38 36 36 37 37 37 37 37 36 36 36 36 37 38 38 37 38 39 42 42 43 44 48 51 52 52 52 51 50 51 50 50 50 51 52 52 53 54 56 60 58 61
38 40 37 35 35 35 36 35 35 35 34 34 35 35 35 35 34 35 36 38 38 40 43 45 47 50 51 52 51 50 49 48 48 49 48 49 51 52 53 54 55 56 59
36 36 38 34 34 35 35 34 34 34 34 33 33 34 36 33 33 34 35 36 36 37 38 40 43 45 46 49 49 48 47 47 46 47 47 48 48 48 49 52 52 53 56
35 34 34 34 34 34 34 34 34 33 33 33 33 32 35 32 32 33 33 34 34 35 36 40 41 43 45 48 47 46 45 45 45 45 44 44 45 46 46 48 50 51 53
35 34 34 34 35 36 34 34 33 33 33 33 33 32 31 31 32 32 33 33 32 35 38 40 40 41 42 43 45 45 44 43 43 44 43 43 43 43 44 43 45 47 49
35 34 34 34 35 35 35 34 34 35 34 33 32 31 31 32 32 32 32 33 33 34 35 36 38 38 39 41 43 43 43 43 43 43 43 42 42 42 42 42 44 45 47
34 34 34 35 35 36 35 34 34 33 33 33 32 32 32 32 32 32 33 34 34 34 35 37 37 36 36 38 39 41 40 38 39 38 40 39 39 39 39 40 41 42 44
34 35 35 35 35 35 34 34 33 33 32 33 32 33 34 34 34 34 34 34 35 35 36 37 37 38 38 39 39 37 34 34 35 34 35 36 36 37 38 39 40 42 44

GFSGL_sfc_dewp_102.txt.gz
Dewpoint
69 69 70 70 70 71 70 70 71 72 72 72 72 72 72 72 73 72 72 72 71 71 71 72 71 72 70 70 73 70 70 68 66 68 68 70 71 71 72 72 72 73 71
70 70 70 71 71 71 71 71 72 72 72 72 72 72 73 72 73 73 72 72 71 71 71 71 71 70 71 71 71 71 70 70 69 69 69 69 71 72 72 72 71 69 71
69 69 69 68 69 69 70 71 72 72 72 71 71 71 71 71 71 72 72 72 71 71 71 71 71 70 71 71 70 70 69 69 70 70 69 70 71 71 71 72 72 72 69
68 68 68 67 67 68 69 69 69 71 72 71 71 70 69 69 69 70 71 72 72 72 72 72 71 71 71 72 71 71 71 70 70 70 69 69 70 71 70 69 69 71 69
68 68 67 68 68 67 67 68 68 69 69 72 71 71 70 68 66 69 70 71 72 72 72 72 72 72 69 70 72 74 72 71 71 70 70 70 70 69 70 70 69 69 70
68 67 67 67 67 66 66 66 66 67 67 68 69 71 71 72 67 65 68 72 72 72 72 73 73 71 71 67 66 67 71 73 72 71 71 70 71 70 71 70 70 69 68
63 64 65 65 64 64 64 64 65 65 66 66 67 68 69 71 62 63 65 70 72 72 72 72 72 71 71 72 69 66 66 65 68 73 71 72 71 72 71 71 70 69 69
55 57 61 63 62 62 62 62 63 63 65 65 66 67 68 69 60 60 63 70 70 70 70 70 71 71 71 70 72 72 72 72 72 69 70 72 73 73 72 71 71 70 70
53 53 55 58 58 58 58 59 61 61 61 63 65 66 68 63 58 59 65 69 69 69 70 70 69 70 61 60 68 70 71 71 68 64 64 64 63 63 65 69 69 70 68
50 50 53 54 54 56 58 58 60 60 59 62 66 65 62 63 55 56 60 63 60 62 65 66 62 62 58 58 64 67 68 69 69 69 70 69 67 69 63 68 69 69 68
49 49 49 50 51 52 53 53 54 56 56 56 55 56 56 54 52 51 53 58 58 60 61 62 64 58 55 54 55 61 64 64 65 66 67 68 69 69 69 70 70 70 69
47 47 48 49 48 49 51 51 50 51 50 51 50 51 51 54 50 49 49 51 53 57 58 61 61 54 51 52 56 58 56 56 63 63 64 65 66 67 69 70 72 71 71
45 45 45 46 46 48 48 48 46 48 48 48 47 47 47 48 47 48 48 49 49 52 53 52 52 51 52 56 57 56 57 64 65 65 65 65 67 68 71 71 72 73 73
44 44 43 44 43 44 45 45 45 45 45 45 45 45 45 46 46 45 44 44 46 49 50 51 53 54 54 56 58 61 63 65 65 65 65 67 68 67 69 70 69 71 69
43 42 41 41 41 42 42 43 43 44 44 44 43 42 42 43 43 43 41 41 45 46 47 54 55 56 57 58 58 58 60 62 58 60 59 58 57 59 60 65 65 68 67
41 40 40 40 40 40 40 40 42 42 42 40 40 41 42 41 40 39 38 39 41 44 50 51 52 53 55 56 56 58 60 56 54 56 56 54 53 54 55 57 61 63 64
40 39 39 39 38 38 38 38 36 38 41 38 38 39 39 39 38 37 37 39 41 45 47 49 51 52 53 54 56 55 54 53 52 52 53 52 52 52 53 54 55 58 59
42 40 38 38 37 37 37 36 36 35 34 34 37 38 38 37 37 37 37 39 38 40 41 42 44 48 51 51 52 51 50 50 50 50 51 51 52 52 51 51 53 54 57
38 36 36 36 36 36 36 35 35 34 34 33 34 35 36 36 36 36 37 36 36 36 37 38 41 40 44 46 48 50 50 49 49 48 48 49 49 49 50 51 53 51 52
39 38 36 35 35 34 34 34 33 33 33 33 33 33 33 34 33 33 34 34 35 35 35 36 36 42 41 44 43 46 48 48 46 46 46 46 46 46 47 49 50 49 51
38 38 37 34 34 34 34 33 33 33 32 32 32 33 36 32 32 32 32 33 32 32 33 35 36 37 37 40 43 45 47 46 46 44 44 44 46 45 46 45 45 46 48
36 37 34 33 34 35 34 34 34 33 33 32 32 33 35 32 32 32 32 32 32 33 33 33 35 38 40 41 42 42 42 41 42 42 42 43 42 43 43 44 44 44 45
35 34 34 35 35 36 36 35 35 35 34 34 33 32 31 31 32 32 33 32 33 33 33 35 36 36 37 38 39 39 39 39 41 42 42 41 41 41 42 42 41 41 41
35 35 34 34 36 36 36 36 36 36 35 35 34 33 32 32 32 32 33 33 33 33 33 35 35 36 36 37 38 37 37 39 41 42 41 41 40 40 40 40 40 40 40
35 35 35 35 35 37 37 38 37 37 36 35 35 33 33 33 33 33 33 33 34 34 34 34 35 35 36 36 37 38 37 34 36 35 37 38 38 38 39 39 39 39 40
36 36 36 36 38 38 38 38 38 37 37 36 35 35 34 34 35 35 36 36 36 35 35 34 34 35 36 36 36 35 34 33 35 33 34 35 35 35 36 37 37 38 39

GFSGL_sfc_dewp_105.txt.gz
Dewpoint
69 71 72 72 72 73 73 73 73 73 73 73 73 73 74 74 75 75 75 74 74 74 73 73 73 74 70 70 71 71 69 68 64 63 68 70 73 73 72 73 70 70 66
71 71 70 71 72 72 72 73 73 73 74 74 74 74 74 74 74 75 73 73 73 73 73 73 73 70 73 73 70 73 70 71 69 70 71 70 73 74 75 75 70 69 72
71 72 72 72 72 73 73 73 74 74 74 74 73 73 73 74 74 75 74 74 74 73 73 73 72 73 74 72 73 71 69 70 71 70 70 71 72 72 73 73 74 74 69
70 69 70 71 71 71 72 72 72 74 74 74 73 73 73 72 72 72 72 73 73 72 74 74 73 72 73 74 72 74 74 75 74 73 69 69 70 72 72 70 68 69 69
68 68 67 68 70 69 70 70 71 72 73 74 74 73 73 72 70 71 71 71 71 72 73 74 74 72 70 71 74 76 74 74 70 67 67 67 68 67 69 69 68 68 69
68 68 69 68 69 68 69 68 69 70 71 72 72 73 73 72 63 65 70 73 74 74 74 75 74 72 71 67 66 67 70 75 75 75 72 69 72 71 70 69 69 68 66
65 66 67 66 65 66 66 67 67 68 69 69 70 71 71 69 61 62 66 73 73 73 74 73 73 71 72 73 69 67 67 65 67 74 73 74 73 73 73 73 72 71 70
59 61 63 63 63 64 63 63 63 65 66 67 69 70 66 61 58 60 64 72 73 72 72 72 72 70 64 65 71 72 73 74 74 72 73 73 74 74 75 74 74 73 72
55 56 57 59 60 60 59 60 62 62 64 68 68 65 61 58 54 56 63 64 64 65 67 66 65 63 60 60 67 68 70 72 68 65 64 62 62 62 65 69 69 70 68
51 52 55 56 58 59 60 61 61 62 61 59 58 56 54 52 51 52 57 57 59 59 61 63 61 58 55 56 62 63 63 66 68 68 70 70 68 71 64 71 71 70 71
50 51 52 54 54 55 55 56 57 56 55 56 55 55 52 51 48 49 50 53 54 53 54 55 56 54 51 52 53 63 62 61 62 63 64 64 65 66 66 69 72 71 69
52 52 53 54 51 52 53 53 55 55 55 54 53 51 50 51 48 48 48 49 50 53 52 52 54 51 50 51 55 54 54 57 61 61 61 61 62 63 65 67 71 71 71
50 50 50 51 51 52 52 51 49 52 49 49 48 48 47 48 46 46 46 46 47 48 49 51 51 50 51 53 55 55 57 61 62 62 63 63 63 63 66 67 68 71 73
48 47 47 47 47 48 46 46 45 46 46 44 44 43 44 44 41 40 40 41 44 45 48 48 52 53 53 55 55 55 57 59 60 59 58 58 58 57 56 58 58 59 61
44 43 43 42 43 43 43 43 43 43 42 41 42 42 40 38 36 39 39 39 42 43 48 48 48 49 50 51 53 55 57 57 56 55 55 55 54 54 53 54 53 53 55
40 38 38 38 38 39 38 38 42 40 40 39 39 39 37 38 39 38 37 38 41 43 43 43 44 46 49 51 51 53 53 54 53 53 53 53 53 53 53 52 52 52 52
41 41 37 36 34 36 35 33 33 37 39 38 38 38 37 37 37 37 37 38 40 41 38 40 41 43 45 47 48 48 48 50 53 51 51 51 51 51 51 51 51 51 51
41 41 35 34 34 34 34 33 32 32 32 33 36 36 36 36 36 36 36 37 35 37 36 37 37 38 38 40 42 43 45 46 48 48 48 49 48 48 48 48 50 50 50
37 34 34 34 33 33 33 32 31 32 32 32 32 35 35 36 35 36 36 34 33 33 34 34 35 35 37 38 39 40 40 41 43 45 45 45 45 45 45 45 45 47 48
37 38 36 33 33 33 33 32 31 32 31 32 31 31 32 34 33 33 34 34 33 32 32 33 34 35 36 38 38 38 38 39 41 41 43 44 43 42 44 44 44 44 45
34 35 35 33 32 33 33 32 32 31 32 32 31 33 34 33 32 32 33 33 33 33 33 33 34 35 35 36 36 36 35 36 37 39 40 41 42 39 41 42 41 41 41
35 35 34 32 34 35 35 35 34 34 34 34 33 33 34 32 32 33 33 33 33 34 34 35 34 34 34 37 37 36 35 35 36 37 38 38 38 39 41 40 40 40 41
35 35 34 34 35 37 36 35 35 35 35 37 36 35 33 32 32 33 34 34 34 34 34 34 35 34 34 35 35 36 38 38 38 38 38 39 40 39 38 39 39 39 39
38 36 35 35 36 36 36 37 38 37 37 38 38 37 37 35 33 33 33 34 34 34 34 34 34 34 35 35 35 35 35 38 39 38 37 37 37 37 37 37 37 38 39
38 38 38 37 36 36 37 37 38 39 39 39 39 39 38 37 35 34 34 34 34 35 35 35 34 35 35 35 35 35 35 34 35 34 36 36 36 36 36 36 37 37 37
43 39 39 38 38 38 38 38 39 39 39 39 39 40 40 39 37 35 36 36 36 35 37 36 35 36 35 35 35 34 33 32 34 33 35 35 34 35 36 36 36 36 37

GFSGL_sfc_dewp_111.txt.gz
Dewpoint
68 69 69 68 68 70 70 71 71 72 73 73 73 72 72 72 72 73 75 74 71 72 72 71 71 74 67 64 64 63 62 61 60 62 62 65 74 74 71 72 69 71 64
71 72 69 69 68 67 69 70 71 72 72 73 73 73 72 72 75 73 72 71 72 71 70 71 69 65 74 76 66 74 69 70 64 71 68 65 72 74 74 76 67 64 66
71 69 69 73 69 68 68 69 70 72 73 71 72 73 73 72 73 74 73 72 71 72 72 72 70 70 72 71 72 70 66 67 70 65 66 64 65 66 70 73 74 73 62
72 72 73 73 70 69 70 69 69 71 72 72 72 72 72 72 72 72 72 72 71 70 70 70 71 70 71 72 71 74 73 71 70 66 64 63 63 72 72 65 64 64 64
70 72 72 74 75 73 73 72 71 71 71 71 71 71 71 70 70 72 71 71 72 71 70 70 71 71 70 70 69 75 76 72 68 67 64 63 62 67 66 65 65 65 69
70 70 72 73 72 74 74 73 74 71 72 71 71 70 71 70 62 63 69 71 71 72 71 71 70 73 71 68 68 68 71 73 74 73 68 67 73 71 68 68 69 68 67
69 70 69 71 68 69 70 72 73 72 72 73 73 72 70 66 57 59 65 71 72 73 74 74 73 71 69 71 69 68 68 66 67 74 73 73 74 76 76 74 74 72 70
69 68 68 68 67 67 67 67 68 70 72 73 70 68 65 58 54 56 61 74 73 72 71 71 70 67 60 60 65 70 71 71 74 73 75 74 74 73 73 73 75 75 73
64 65 67 67 67 67 65 65 67 69 68 68 67 63 60 55 51 53 64 71 70 68 63 60 62 60 56 56 63 65 67 68 65 64 65 63 62 63 65 70 71 74 73
61 62 64 65 64 66 67 67 69 66 64 61 57 58 55 53 49 49 56 62 65 64 66 58 55 56 54 54 62 62 60 60 61 64 65 67 66 70 64 72 74 71 69
57 60 62 63 65 65 66 67 64 61 60 59 56 55 53 53 47 48 48 53 51 56 57 57 55 52 51 51 53 59 56 58 61 64 61 61 65 65 67 67 70 65 63
57 57 59 61 59 61 65 64 62 59 58 57 57 56 54 53 47 46 47 47 49 51 54 51 52 49 49 50 53 53 53 55 57 56 55 56 57 57 57 60 67 67 62
57 58 59 59 59 62 62 62 59 61 59 58 56 53 51 49 46 47 45 45 46 47 45 46 49 48 48 51 53 53 54 54 56 55 53 54 53 53 62 60 62 66 64
58 58 58 58 57 56 53 53 53 53 53 53 52 51 49 45 39 38 37 40 44 45 49 49 48 50 50 51 53 52 53 54 53 53 54 54 53 52 50 51 51 51 50
54 52 52 50 51 49 43 43 45 40 38 48 45 44 42 40 35 37 37 38 39 42 44 46 46 47 46 47 47 49 50 49 49 49 48 48 48 48 48 49 48 47 47
47 45 43 44 45 44 42 36 39 38 38 38 38 37 34 37 38 38 38 38 39 40 41 41 41 40 40 41 41 43 46 47 44 45 44 45 45 45 45 45 46 45 46
45 46 39 40 38 40 38 35 31 34 38 37 37 37 37 36 37 36 36 37 39 41 37 40 39 39 39 39 39 39 39 41 48 42 43 42 44 45 46 44 43 42 42
46 43 38 37 36 37 37 36 33 34 34 33 36 37 36 36 36 36 37 38 38 38 35 36 36 37 38 38 39 38 39 39 38 39 40 41 41 41 40 41 41 42 41
42 36 37 36 36 37 36 35 34 35 35 35 37 37 37 37 38 38 37 37 35 34 35 35 35 36 37 38 39 39 40 38 37 38 37 37 38 38 40 38 38 40 40
41 43 39 36 35 34 34 33 32 34 34 34 33 33 35 38 37 37 38 38 36 34 35 36 37 37 38 39 38 38 37 37 37 36 36 36 36 36 35 36 36 36 37
35 36 42 34 32 33 33 32 32 31 32 33 32 31 35 36 34 35 35 35 35 35 37 36 38 38 37 38 38 37 35 35 35 36 35 36 36 35 35 35 34 35 35
34 35 33 33 33 34 35 33 31 32 32 32 32 32 35 35 33 34 36 36 36 38 37 39 37 36 36 37 37 35 35 35 35 35 35 35 35 34 34 34 34 34 34
33 33 34 33 33 37 35 33 31 32 32 32 32 33 33 33 33 34 36 35 37 37 38 38 38 37 37 37 36 36 35 35 35 35 35 34 34 34 34 33 33 33 34
35 34 34 34 35 34 34 35 34 34 33 33 34 34 35 35 34 35 36 35 36 36 37 37 37 36 37 37 36 35 35 35 35 34 34 34 34 34 35 33 33 34 35
39 39 38 37 36 36 37 35 35 36 35 35 34 35 35 36 37 36 35 35 35 36 36 36 36 35 35 36 37 37 34 33 35 34 35 35 35 35 33 34 34 34 35
43 43 44 42 43 42 38 37 37 37 37 37 38 38 38 38 37 38 38 37 37 37 37 38 37 38 38 36 36 34 32 32 34 32 35 35 34 35 34 34 35 35 36

GFSGL_sfc_dewp_114.txt.gz
Dewpoint
70 71 72 71 72 74 74 75 76 72 69 74 75 75 75 75 76 76 76 75 73 75 75 75 74 75 73 72 71 70 69 70 68 68 69 70 71 72 73 74 75 72 71
71 71 72 72 72 71 73 74 75 75 74 75 76 77 76 76 75 76 75 73 73 73 74 75 74 70 74 75 74 74 73 72 72 70 72 71 72 72 76 76 73 67 70
72 72 71 72 72 73 73 73 75 76 77 74 75 76 76 76 75 75 76 75 75 74 74 73 71 73 74 75 75 75 73 73 72 72 71 71 70 71 69 73 71 74 66
73 73 73 74 72 71 73 74 74 76 75 75 75 75 76 74 75 75 75 74 75 74 75 73 73 73 72 75 73 74 74 73 71 71 68 66 70 71 72 70 69 72 70
70 70 73 73 72 74 73 73 75 74 75 75 74 74 75 72 67 68 71 72 73 73 73 72 73 72 70 70 72 75 75 74 74 70 70 69 70 70 70 72 71 71 72
69 70 71 72 73 71 71 71 74 75 75 75 74 73 71 64 61 62 68 72 73 73 73 73 72 69 70 69 68 68 70 73 73 72 70 70 71 72 72 73 73 71 70
70 70 71 71 70 71 70 71 70 73 74 73 72 70 65 60 55 58 64 71 75 74 73 73 72 66 62 65 66 67 68 66 67 72 72 72 72 72 74 72 71 72 71
70 70 70 69 68 67 67 68 69 70 71 69 68 66 62 53 53 56 62 74 73 71 70 71 66 61 58 59 64 69 70 71 73 70 72 70 70 70 71 71 72 73 72
68 68 68 68 67 66 66 66 68 67 65 64 62 58 58 50 51 53 64 74 68 65 61 61 61 59 55 56 66 65 65 65 58 61 62 62 61 61 63 68 71 70 69
63 65 66 66 67 68 67 67 67 65 62 60 57 55 53 47 48 50 58 66 68 64 59 56 55 54 53 53 61 62 59 59 59 61 64 68 67 67 65 70 69 64 64
60 60 64 64 64 65 66 66 64 62 60 59 56 54 50 50 44 47 48 53 59 55 57 57 53 51 50 50 52 61 58 56 58 61 63 66 63 60 61 62 66 66 61
58 59 60 61 62 64 62 62 62 61 59 58 57 56 53 48 47 47 47 48 51 52 48 47 50 48 47 48 52 52 52 54 61 58 56 56 55 55 57 61 66 67 65
58 59 58 60 61 63 62 62 59 59 57 57 57 55 53 51 49 45 46 46 48 50 50 48 49 48 49 54 54 53 54 54 55 56 56 55 58 59 60 57 57 58 57
57 58 58 58 52 48 51 58 50 49 58 60 57 56 53 48 42 41 43 47 47 50 50 54 51 51 51 52 52 52 51 51 50 49 50 51 50 50 50 50 49 50 50
57 58 56 56 54 48 39 42 42 37 38 50 47 44 46 44 35 37 38 39 40 42 42 53 54 53 50 51 50 49 48 47 46 47 47 48 48 49 49 49 50 47 47
56 54 55 58 56 53 46 36 39 39 38 38 38 39 34 38 38 38 37 38 39 40 49 46 47 47 45 46 46 45 46 46 48 46 45 45 44 44 44 45 46 45 45
52 55 49 48 46 47 43 38 32 35 39 38 37 37 37 36 36 36 36 37 39 43 49 48 48 47 47 46 45 44 44 47 47 43 44 44 44 42 41 42 42 42 42
51 45 44 45 46 45 43 41 35 35 34 33 36 37 36 37 36 36 37 39 46 45 43 44 44 45 44 44 43 42 42 42 42 43 43 41 41 40 39 39 39 39 39
49 47 49 45 44 47 46 42 39 42 40 38 35 36 37 38 37 37 38 47 44 42 43 42 43 42 43 44 44 44 45 41 42 41 40 40 39 38 38 38 37 38 38
47 45 44 45 39 44 43 42 39 43 43 42 42 41 40 39 41 46 48 48 43 40 41 42 43 44 44 45 44 44 42 41 40 39 38 38 38 37 36 36 36 35 35
41 40 45 39 36 37 38 38 40 42 40 41 37 35 36 40 42 43 42 43 41 40 43 42 45 45 44 43 43 40 38 37 38 38 37 37 37 35 36 35 35 35 35
39 39 36 35 37 42 41 41 41 39 41 40 34 31 36 34 39 39 43 42 40 43 41 45 41 41 40 42 41 37 36 36 36 36 36 35 35 35 35 34 34 34 34
37 37 37 38 39 42 40 38 37 37 36 38 38 34 33 35 39 41 42 41 43 43 43 43 44 42 44 42 41 39 37 36 36 35 34 34 34 34 34 33 33 32 32
37 35 37 37 40 39 37 39 39 37 36 38 40 39 39 41 40 41 41 43 43 42 44 44 43 38 42 41 41 40 40 39 38 36 35 34 34 34 34 32 32 33 33
36 37 39 40 39 39 40 38 39 39 38 39 39 40 39 40 41 41 40 41 41 42 42 43 43 42 41 40 39 38 34 34 36 33 35 35 34 35 33 34 34 34 34
41 42 44 45 45 43 40 40 41 41 40 40 40 41 43 44 42 43 43 43 43 43 43 43 43 42 41 39 39 36 32 32 34 33 35 35 34 35 35 34 35 36 36

GFSGL_sfc_dewp_117.txt.gz
Dewpoint
70 70 70 71 71 71 72 71 72 70 66 64 65 70 71 71 71 71 71 70 70 70 70 70 70 68 68 70 71 71 68 67 64 66 68 68 67 68 68 71 73 71 69
70 70 70 70 70 71 70 71 72 67 68 71 72 72 71 72 73 72 71 71 70 70 70 70 69 70 70 71 70 69 70 70 68 66 67 68 68 69 69 68 69 70 69
70 70 71 70 70 70 70 70 71 71 71 72 72 72 72 72 72 71 71 71 71 70 70 69 69 70 70 69 69 69 70 71 69 69 68 68 67 69 69 70 70 71 71
66 68 70 69 69 70 71 70 70 72 72 72 72 72 72 71 71 71 71 72 71 71 71 70 71 70 70 70 70 70 71 70 70 69 69 68 69 70 70 70 70 71 71
69 70 69 70 70 70 71 71 71 72 72 71 71 70 68 66 65 67 71 70 70 69 68 72 69 70 69 68 69 70 70 69 70 69 68 68 68 70 70 71 70 70 70
69 68 69 69 69 69 69 70 71 71 70 70 70 66 64 61 61 61 66 69 70 69 68 69 68 64 65 66 66 67 68 68 68 68 68 68 68 69 71 70 69 69 68
68 69 70 68 67 67 68 68 70 71 71 69 65 60 56 55 56 58 64 69 70 68 68 69 63 61 57 60 64 67 67 67 67 68 68 68 68 68 68 67 68 68 68
69 68 68 67 66 66 66 68 69 69 67 65 62 57 49 47 54 57 63 69 64 64 64 62 58 54 55 58 63 61 63 58 60 63 63 63 64 63 64 67 68 69 69
67 67 67 66 65 65 66 66 65 62 61 60 56 50 44 41 51 57 66 66 61 57 56 55 52 49 54 57 61 55 53 53 55 58 60 62 62 63 64 64 64 63 62
65 66 67 66 66 65 65 66 64 62 59 58 54 47 47 39 49 54 61 65 58 52 50 49 54 50 52 53 54 55 50 52 53 56 58 62 64 61 60 61 62 61 59
61 64 63 64 64 65 65 63 61 59 55 53 50 46 44 43 44 49 52 56 57 55 47 45 46 51 49 50 52 53 50 52 56 56 53 53 53 53 54 55 54 55 54
59 61 61 63 64 62 61 61 60 58 56 54 53 48 45 40 46 47 48 50 50 42 43 45 46 49 50 51 52 52 53 53 51 49 49 48 48 47 51 49 51 50 50
59 59 59 54 53 59 61 60 59 57 56 55 55 51 48 46 41 47 48 49 50 46 49 52 51 50 50 50 52 51 50 46 46 46 47 47 48 48 48 47 47 47 48
57 57 53 48 43 45 46 42 42 41 48 57 56 50 44 37 36 37 40 42 46 42 43 47 51 50 50 49 48 46 45 46 45 44 45 44 44 44 42 44 44 43 45
58 57 55 48 44 38 36 44 42 37 38 44 41 41 41 34 31 37 37 36 37 38 41 46 43 43 44 45 44 46 45 45 43 43 43 43 43 42 41 42 41 42 41
55 55 56 54 51 48 45 40 40 40 40 39 39 33 34 37 37 37 37 37 39 40 44 41 41 41 42 42 42 42 43 42 41 42 43 42 40 40 40 40 39 39 39
55 55 56 54 50 43 40 36 34 35 40 38 37 37 38 36 36 36 37 38 39 42 44 44 44 43 43 42 41 41 42 41 41 41 41 40 39 39 37 37 37 36 35
44 47 46 48 45 43 40 36 34 34 32 32 37 36 36 36 36 37 37 39 41 42 39 40 42 42 42 41 40 39 40 39 39 39 39 39 38 36 36 36 35 35 35
43 45 44 43 44 42 42 38 36 38 35 33 32 35 35 36 36 36 37 42 39 39 39 40 41 40 41 41 41 41 40 39 39 38 37 37 37 36 35 35 35 37 37
40 44 43 40 39 40 41 41 40 40 38 36 35 36 35 37 38 42 40 41 40 40 41 40 40 41 41 41 40 39 39 38 37 37 36 36 35 35 35 35 35 34 34
41 38 44 38 36 37 37 36 37 42 41 43 41 41 41 40 41 43 40 40 41 40 40 40 40 41 41 39 39 38 37 37 37 36 36 35 34 34 34 34 34 33 34
40 39 36 36 37 36 39 40 39 37 37 37 32 32 39 34 37 40 40 40 40 41 40 39 39 39 39 39 38 36 35 36 36 35 34 34 34 34 34 33 33 33 32
41 40 37 37 38 41 38 37 37 36 35 37 32 27 28 30 34 40 40 41 41 41 41 41 41 40 40 39 38 38 36 36 35 35 34 34 34 33 33 33 33 33 32
40 38 38 36 37 38 39 39 38 38 37 38 36 34 35 36 37 40 39 40 41 41 43 41 41 39 39 38 38 38 39 38 36 35 34 34 33 34 34 33 33 33 34
41 39 39 40 39 37 39 39 38 37 39 37 39 38 39 40 40 40 39 38 40 40 41 41 41 38 38 37 37 34 34 35 35 34 34 34 34 34 34 34 34 34 34
40 40 41 42 44 43 40 39 41 41 40 40 40 40 42 42 41 41 41 40 40 40 39 40 40 39 38 38 38 35 31 32 33 33 35 34 34 34 34 34 34 35 36

GFSGL_sfc_dewp_120.txt.gz
Dewpoint
69 70 69 69 70 71 70 68 70 69 66 66 64 66 71 70 71 71 70 69 69 69 69 70 69 69 68 69 69 70 69 67 64 65 67 68 67 68 70 70 71 70 70
69 70 69 69 71 70 70 71 72 69 68 66 65 70 70 71 71 71 70 71 69 69 69 70 68 70 69 70 69 68 69 69 67 65 67 68 67 70 71 71 70 71 71
70 70 70 69 70 70 69 70 71 68 67 67 71 71 71 72 71 71 71 71 71 70 70 69 68 69 70 69 69 68 69 70 68 68 67 68 67 70 70 71 71 71 70
69 70 70 69 70 69 70 70 70 70 70 70 72 71 71 71 70 71 71 71 71 70 71 70 70 70 69 69 69 69 70 69 68 67 67 68 68 70 70 70 68 69 70
67 67 68 69 69 69 70 69 70 71 71 71 70 68 67 66 66 68 70 70 70 67 70 68 66 67 66 66 70 68 68 68 68 67 67 67 68 68 68 70 68 69 70
67 68 69 69 69 69 69 70 70 70 70 69 66 64 62 64 62 61 66 67 68 68 68 66 63 61 63 64 65 66 66 67 66 67 67 66 66 66 67 67 67 67 66
68 68 69 68 68 68 68 68 68 69 67 63 59 57 55 56 57 57 63 68 68 66 67 63 59 59 60 64 64 64 61 63 66 65 63 63 63 64 64 64 65 66 66
68 68 67 66 66 66 67 68 68 68 64 62 59 57 55 55 56 57 63 66 65 63 60 57 55 54 58 60 54 51 52 53 56 57 59 61 63 64 64 65 65 64 64
67 67 66 66 66 66 64 63 61 62 61 59 56 54 53 54 55 61 63 62 58 55 53 50 48 49 55 58 52 49 50 53 56 59 61 60 58 58 60 57 59 58 56
66 66 66 66 65 65 64 62 60 58 55 54 52 49 48 47 54 59 61 59 53 48 47 48 53 50 52 53 52 49 52 52 55 53 52 52 52 51 54 51 52 50 54
65 66 66 66 66 65 65 61 59 57 54 52 51 51 49 46 48 54 58 60 57 49 43 45 47 52 51 51 52 52 53 54 53 50 48 48 48 48 47 47 48 50 51
63 63 64 64 64 63 61 59 57 54 50 47 44 42 40 42 48 49 50 54 50 47 44 45 50 50 49 49 49 50 50 49 47 47 46 47 46 45 46 47 45 47 51
59 56 55 55 54 57 59 59 58 55 53 52 47 44 42 39 39 47 48 51 51 48 50 51 50 48 47 47 50 50 47 44 43 43 43 44 45 43 43 43 42 43 45
53 51 49 46 47 48 42 41 43 46 55 56 50 44 37 31 33 37 39 40 43 42 47 49 49 49 49 47 45 46 44 43 42 42 42 42 42 40 40 40 39 40 41
54 51 46 42 40 36 39 44 39 38 40 49 51 43 34 26 32 37 37 36 36 40 44 41 41 41 41 42 42 42 41 41 41 41 40 39 38 38 38 39 38 37 36
56 54 52 50 46 43 41 40 41 41 41 40 38 40 34 36 38 37 37 38 39 42 40 39 41 42 42 41 41 41 40 41 41 40 39 39 38 37 36 35 35 35 35
52 53 53 50 46 43 41 37 39 40 40 38 39 38 36 37 37 37 37 38 40 43 42 42 41 41 40 40 39 38 38 39 38 38 37 37 36 36 35 35 35 35 34
49 50 53 51 46 42 40 36 34 34 38 37 38 36 37 36 36 36 37 40 39 40 41 41 41 40 39 38 38 38 38 38 37 37 37 36 36 35 34 34 35 35 34
39 41 44 49 45 42 39 34 34 33 29 30 31 34 35 36 36 36 39 38 37 39 40 39 40 39 39 39 39 39 38 37 36 36 36 35 35 35 34 35 34 35 34
38 47 44 39 42 42 41 36 36 35 31 30 30 31 34 36 38 41 41 40 40 39 39 40 40 40 40 39 38 38 37 36 35 35 34 34 34 34 34 34 33 33 33
41 37 44 36 37 39 40 39 38 39 37 34 33 36 38 36 39 41 39 40 41 40 39 39 41 40 39 38 38 38 37 36 35 34 34 33 33 33 33 33 33 33 33
40 37 35 35 36 35 38 37 39 41 41 41 39 39 40 39 39 43 40 40 40 40 40 40 40 39 38 38 37 36 36 35 35 34 34 33 33 33 33 32 33 33 33
43 40 36 34 35 39 37 36 35 37 39 38 36 33 34 33 37 41 40 40 41 40 40 39 40 39 39 39 38 37 36 36 35 35 34 33 33 32 32 32 33 33 33
43 39 38 35 35 35 37 38 37 38 37 38 33 29 28 29 35 40 40 41 41 41 41 41 40 39 39 39 38 38 37 37 36 35 34 33 32 33 33 33 33 33 34
43 40 39 37 35 35 36 38 37 37 37 37 39 35 33 35 36 39 39 40 40 41 40 40 40 39 38 38 37 37 36 35 36 35 34 33 33 34 34 33 34 34 34
42 41 40 41 41 39 37 38 40 39 38 37 39 40 39 38 39 40 40 39 40 39 40 40 40 38 38 37 36 35 32 33 35 33 34 34 33 32 32 32 33 34 34

GFSGL_sfc_dewp_123.txt.gz
Dewpoint
68 69 69 69 69 70 70 69 68 70 69 69 69 68 69 70 70 71 70 69 68 68 69 69 68 68 67 68 69 69 68 65 63 65 66 68 68 70 71 71 71 70 71
68 70 69 69 69 70 70 69 68 70 68 67 66 66 70 70 70 70 70 70 68 68 68 69 68 69 68 69 68 68 68 68 66 64 66 68 67 70 70 70 70 70 70
69 69 69 68 69 69 69 70 70 70 69 68 67 67 70 70 71 71 71 71 70 70 70 69 68 68 68 69 68 67 68 69 68 67 65 67 68 70 70 70 69 70 70
69 69 69 68 69 69 69 69 70 69 67 67 68 70 71 71 71 71 71 70 70 70 70 70 70 69 69 68 69 68 69 68 67 66 66 66 67 69 68 68 68 69 68
69 69 69 69 69 69 69 70 70 70 70 70 70 69 68 68 67 68 69 70 69 70 68 67 66 66 66 67 69 68 67 67 67 67 66 66 66 65 65 68 66 67 68
68 68 67 68 68 67 67 68 68 68 69 68 68 66 65 65 61 62 64 69 69 68 66 64 64 64 64 65 64 65 67 67 66 66 65 62 63 64 65 64 65 65 65
67 68 68 68 68 67 68 68 67 68 67 64 63 62 61 59 58 57 61 67 68 66 64 61 59 61 63 65 61 59 59 60 63 63 60 61 61 63 63 63 63 63 59
66 68 68 67 67 67 67 67 67 68 64 61 61 61 61 59 59 58 63 67 65 63 60 57 58 59 60 57 53 51 54 55 57 59 59 57 57 60 61 62 62 60 62
67 67 67 66 66 66 64 62 61 62 60 57 56 56 58 59 58 61 63 61 58 57 54 50 52 54 57 54 50 53 54 55 56 57 56 54 54 54 54 50 53 53 54
67 67 66 66 66 64 63 60 58 55 54 53 52 54 54 56 57 59 59 57 54 53 51 51 54 52 54 54 53 54 52 53 51 48 48 49 49 49 52 49 51 50 50
67 67 66 66 66 64 63 60 57 56 55 55 54 53 52 53 57 56 56 57 56 54 52 54 53 53 50 51 52 54 53 50 50 48 47 45 44 45 44 45 49 47 47
65 65 65 66 66 65 61 59 55 51 47 43 40 40 41 43 50 53 55 54 52 49 50 53 49 49 48 48 48 50 50 49 45 44 42 42 41 41 42 42 44 42 42
60 58 57 56 57 61 60 57 54 50 45 44 41 40 38 39 42 49 49 50 52 51 50 49 48 47 47 47 49 48 46 42 41 40 40 41 41 41 40 40 40 42 39
54 52 51 51 51 51 51 51 56 52 50 48 44 39 34 34 37 39 40 43 47 51 51 48 48 47 47 45 43 44 43 42 41 40 40 40 39 37 38 37 36 37 36
51 49 45 44 42 42 46 47 43 40 44 51 45 36 25 26 32 38 38 38 42 44 43 41 41 40 40 40 40 41 41 40 39 39 38 38 37 36 35 36 36 35 34
51 49 49 48 46 44 42 42 42 42 41 40 42 40 34 37 38 38 37 37 39 42 40 40 41 41 40 39 39 39 39 40 38 37 36 36 36 35 34 35 35 34 34
54 52 51 46 44 44 45 47 45 43 40 39 39 38 37 38 37 36 37 40 41 41 40 40 40 40 39 38 38 37 37 38 38 36 36 36 35 35 34 34 34 34 33
51 52 51 48 45 43 39 37 38 36 36 36 36 37 37 37 36 37 39 41 41 41 40 40 39 39 38 38 38 37 37 36 36 35 35 35 35 34 33 34 34 34 33
42 46 51 50 45 40 37 34 34 35 32 30 31 34 35 36 36 38 39 40 40 40 40 40 39 39 39 39 38 37 36 35 35 34 34 34 34 33 33 33 33 34 33
39 45 44 47 44 40 36 32 35 30 29 28 29 29 33 35 39 40 39 40 40 40 40 40 39 39 39 39 38 37 36 34 33 33 33 33 33 33 33 32 32 32 32
38 39 41 40 43 42 40 34 35 34 28 28 28 32 37 37 40 39 40 40 40 40 40 40 40 39 39 38 38 37 35 34 33 33 33 33 33 32 32 32 32 33 33
39 37 35 35 37 38 38 37 40 38 36 31 33 36 38 38 40 40 40 40 41 40 40 41 40 39 38 38 38 36 36 35 34 34 34 33 33 32 32 32 32 33 33
42 39 36 34 35 38 37 36 37 40 39 39 38 38 37 37 38 42 41 41 41 41 41 41 40 39 39 38 38 37 36 35 35 35 34 33 33 32 32 32 32 32 33
43 41 40 37 34 35 36 37 36 37 37 39 38 37 36 36 35 41 41 41 41 40 40 40 40 39 39 38 38 37 37 37 37 35 34 33 32 32 32 32 32 33 33
43 41 39 38 36 34 34 35 37 37 37 37 37 34 32 31 31 36 40 40 40 40 40 40 40 39 38 38 37 37 36 35 36 35 35 33 32 32 33 32 32 33 33
45 42 40 39 38 37 36 35 36 38 37 37 38 39 37 34 34 35 39 40 40 40 40 40 40 39 39 38 38 36 33 33 35 33 34 33 33 32 32 31 31 32 33

GFSGL_sfc_dewp_126.txt.gz
Dewpoint
68 68 69 69 69 68 69 71 71 70 71 71 72 72 72 71 72 72 72 72 71 71 71 71 71 71 69 70 71 71 70 67 65 68 68 71 72 73 72 73 72 73 71
68 69 69 69 69 69 70 71 71 70 71 71 71 70 70 71 72 72 72 72 71 70 71 71 71 70 71 71 70 70 70 70 68 68 69 70 71 72 72 72 70 66 67
69 69 70 69 69 69 70 71 71 70 71 70 69 68 69 71 72 72 72 72 72 71 71 71 71 71 71 72 71 71 70 71 70 70 69 71 70 70 71 72 71 70 59
69 69 70 69 69 70 70 70 71 71 70 70 70 70 70 72 72 72 72 72 72 72 72 72 71 71 72 72 71 71 71 70 71 68 69 69 71 70 70 69 68 70 58
69 69 69 70 70 70 70 70 71 71 71 70 70 70 72 72 70 71 71 72 72 71 70 69 69 68 66 68 71 71 71 70 70 69 69 68 68 66 67 68 68 69 61
69 69 69 70 70 70 70 70 70 70 71 71 71 71 69 68 63 64 66 69 71 71 69 67 66 66 66 65 66 66 69 70 70 70 68 65 66 67 67 67 67 67 60
69 68 69 69 69 69 69 69 69 69 69 69 68 67 67 64 59 59 63 68 70 69 66 64 64 65 65 61 60 61 60 61 63 67 64 65 65 65 66 64 64 60 53
68 68 68 68 67 68 68 68 68 69 68 65 64 64 64 63 60 58 62 69 68 67 64 62 62 63 62 60 59 60 60 59 57 55 58 56 57 58 61 62 62 61 56
67 67 67 67 67 67 66 65 65 64 61 60 59 60 61 62 59 60 63 63 60 58 56 57 58 58 56 54 59 58 55 53 53 54 54 53 53 54 55 56 55 56 55
66 67 67 67 66 65 63 61 58 57 55 55 54 56 56 61 58 58 60 59 55 54 55 55 55 55 54 54 60 57 55 53 51 50 49 49 51 50 52 52 49 46 47
67 67 67 66 64 63 61 59 57 56 55 56 55 54 54 55 60 58 57 58 55 55 55 56 55 52 51 52 54 56 53 52 50 47 45 43 45 44 44 46 46 44 41
66 66 66 65 64 62 60 58 57 56 53 49 46 46 48 52 54 54 54 55 55 54 55 53 51 49 48 49 50 50 50 49 45 44 42 40 40 42 42 42 44 43 43
60 61 59 60 63 62 59 57 55 53 47 44 44 42 43 45 48 51 51 52 54 55 53 51 49 47 47 47 49 48 48 45 43 42 40 39 39 40 41 42 42 43 42
55 55 55 55 55 55 54 57 55 53 49 47 45 42 40 43 44 45 47 51 51 49 50 48 48 47 46 46 45 45 43 42 41 40 38 38 38 37 36 37 36 38 34
53 51 52 53 53 51 46 48 49 44 45 50 43 36 34 38 37 39 42 46 49 47 44 43 42 41 41 42 42 42 41 40 39 38 37 36 35 35 35 36 35 34 33
50 49 49 49 47 49 47 44 43 43 42 40 40 37 37 39 39 38 37 39 41 42 43 41 40 41 40 40 40 40 39 38 37 37 36 36 34 34 34 34 34 34 33
50 50 49 49 48 49 49 49 45 44 41 41 39 39 38 38 38 38 39 40 41 42 42 41 40 40 40 39 38 38 37 37 39 36 36 35 34 34 34 34 34 33 33
53 50 49 47 45 44 44 46 44 44 42 40 38 37 38 37 36 38 39 41 41 42 41 41 40 40 39 39 38 37 36 35 35 35 34 34 34 33 33 34 34 34 33
50 52 51 48 45 44 41 39 39 38 35 34 35 36 37 37 38 39 40 45 42 41 41 40 40 40 40 40 38 38 36 34 34 33 33 33 34 34 34 34 34 34 34
44 45 49 50 43 40 37 36 36 36 35 34 34 35 36 39 42 43 43 44 43 41 41 41 40 41 41 40 39 37 36 35 34 33 33 33 33 34 33 34 34 34 34
39 43 44 47 44 41 37 35 36 32 31 31 31 35 38 40 42 42 42 43 42 41 42 41 41 41 41 40 39 37 34 33 34 34 34 33 33 32 34 34 34 34 35
40 38 38 39 42 44 42 39 38 38 32 30 30 34 38 40 41 41 42 42 42 43 42 43 41 41 40 40 40 37 34 34 34 34 34 34 34 33 33 34 34 34 34
41 39 38 38 38 41 40 39 39 40 38 36 34 36 36 38 41 42 42 42 43 42 43 42 42 40 41 40 40 39 36 35 36 36 34 34 33 32 33 33 34 34 34
44 42 41 37 38 38 38 39 38 39 41 40 40 39 39 39 40 41 43 42 43 42 42 43 42 40 40 40 39 38 38 38 38 37 36 35 34 33 33 33 32 33 34
43 43 42 41 38 37 37 37 39 39 39 39 40 40 40 40 39 39 41 42 42 42 41 42 41 41 40 40 39 38 37 36 38 36 37 35 34 35 33 32 32 32 34
46 43 42 41 40 39 37 37 38 40 39 39 40 41 40 38 38 37 38 43 42 42 41 41 41 41 41 40 40 38 33 32 36 34 37 36 34 34 34 33 32 32 33

GFSGL_sfc_dewp_129.txt.gz
Dewpoint
69 70 70 70 70 71 71 72 73 73 73 73 74 73 74 74 74 75 74 73 73 73 73 74 73 74 69 70 70 71 70 69 65 66 70 72 74 73 72 72 71 68 60
68 70 70 70 71 70 71 71 73 74 73 73 73 74 74 73 74 74 73 72 73 72 72 73 73 70 74 74 71 74 72 72 68 69 71 70 72 71 73 72 67 63 65
69 69 70 70 70 70 71 72 72 74 73 72 73 73 73 73 74 74 74 74 72 72 72 72 72 73 73 70 74 74 69 70 71 74 68 70 71 69 71 73 66 65 64
70 69 70 70 70 70 72 72 73 74 73 72 73 72 72 72 72 73 74 74 73 72 74 74 73 73 74 74 75 76 74 74 74 73 67 69 71 70 71 70 66 59 60
70 70 71 72 72 72 73 73 73 73 73 74 73 73 72 71 70 73 74 74 74 73 74 74 73 72 67 70 76 76 75 75 74 68 72 69 67 67 69 69 70 67 58
70 70 72 73 73 73 73 73 74 74 74 74 73 73 72 70 65 66 71 73 74 74 74 72 71 67 68 65 66 65 69 74 73 73 68 67 69 69 69 66 65 66 61
70 71 72 73 72 73 73 73 73 73 74 73 73 73 73 73 61 62 64 70 71 72 73 70 69 68 66 66 62 61 62 62 65 70 68 67 68 68 68 65 65 59 54
70 71 71 72 72 72 72 73 73 72 72 71 71 71 71 70 60 60 61 71 71 71 70 68 67 66 66 63 64 63 60 61 61 61 63 61 62 62 64 63 65 59 54
69 70 70 70 68 68 69 70 70 70 68 68 67 67 67 67 60 60 62 69 67 64 62 64 65 63 56 58 63 60 57 53 52 54 54 54 53 54 57 58 58 57 55
67 69 69 70 68 69 66 65 63 62 62 61 60 59 57 63 59 58 61 66 61 57 58 56 56 56 54 57 62 59 57 53 52 53 53 53 52 50 51 54 48 46 47
69 68 69 68 67 65 63 60 59 58 58 58 56 55 57 57 59 57 56 60 58 56 58 57 55 52 52 54 57 60 57 54 52 50 48 48 47 45 44 45 47 43 38
68 68 68 65 64 62 60 58 58 58 56 54 51 51 54 56 55 55 57 56 57 57 56 54 51 49 49 50 51 51 50 50 47 45 43 42 44 41 41 43 46 44 43
60 60 63 64 63 61 59 58 56 55 55 55 52 52 55 53 54 52 53 54 55 57 55 52 50 48 49 50 50 49 49 49 47 45 42 39 40 43 44 43 43 45 44
59 58 57 56 55 54 57 59 57 54 52 53 52 47 48 51 52 53 53 54 54 54 51 51 50 48 48 48 49 47 46 47 45 41 38 38 38 36 36 37 38 39 34
53 53 53 54 52 49 46 49 51 49 52 54 49 44 45 46 45 44 50 52 51 48 47 47 46 45 44 43 43 43 43 42 40 38 37 35 35 34 35 36 35 35 34
52 50 51 51 51 50 49 47 44 45 44 41 40 39 38 41 40 40 41 43 43 43 45 42 42 43 42 43 42 41 40 39 38 37 35 34 34 34 34 35 35 34 34
51 51 52 51 49 50 50 49 47 44 41 40 40 41 40 38 40 39 40 40 41 43 43 42 41 42 41 41 39 37 36 37 41 35 35 34 34 34 34 34 34 34 34
53 50 50 50 51 50 50 50 50 50 49 46 41 39 38 37 38 39 40 41 44 44 42 41 41 41 41 40 39 37 36 35 34 35 34 34 34 34 34 34 35 36 36
53 50 48 47 45 45 45 48 47 44 40 38 37 38 38 38 39 39 41 45 44 43 43 41 41 41 41 40 39 38 36 34 34 34 33 34 34 34 35 34 35 36 36
49 53 53 49 42 40 39 41 42 41 39 36 36 37 39 41 42 44 48 46 45 43 42 42 42 42 41 41 40 38 36 34 35 33 33 33 34 34 34 35 35 35 36
42 44 49 50 46 39 35 36 36 35 34 35 35 38 39 40 40 42 43 45 44 43 44 43 43 42 42 42 40 38 34 33 33 33 33 32 34 33 35 36 35 36 36
41 41 42 45 48 46 40 38 38 36 32 30 27 32 38 37 41 41 43 44 44 45 43 44 43 42 41 41 41 37 33 33 33 33 33 33 32 32 34 35 36 36 37
42 39 39 40 42 45 44 43 40 40 38 33 30 29 33 36 40 41 43 43 44 44 44 44 43 41 42 41 40 39 34 33 35 34 34 34 33 32 32 32 34 34 35
44 41 39 38 40 39 39 40 40 39 39 39 37 35 36 35 37 41 41 42 43 43 43 43 43 41 42 40 40 39 37 36 37 37 38 37 36 34 33 32 30 31 32
45 42 41 40 38 37 38 37 38 38 39 40 40 40 40 40 39 40 41 42 43 43 43 43 42 42 41 42 38 38 36 35 39 36 38 39 38 39 36 34 32 32 32
49 45 41 40 41 40 38 38 37 38 39 39 40 41 41 41 41 42 41 41 42 43 43 42 42 43 42 40 40 37 32 33 37 34 39 39 38 37 36 37 36 33 34